[[{"header":{"parameterUnit":"m.s-1","parameterCategory":1,"la1":30.6,"la2":29.2853,"lo1":-89.7004,"lo2":-87.6739,"dy":0.0162,"dx":0.0183,"nx":112,"ny":82,"refTime":"2023-08-17T12:00:00:Z","depth":0,"parameterNumber":2,"parameterNumberName":"U-component_of_WINDS"},"data":[0.0,0.0,0.0,0.0,0.0,0.0,0.0,0.0,0.0,0.0,0.0,0.0,0.0,0.0,0.0,0.0,0.0,0.0,0.0,0.0,0.0,0.0,0.0,0.0,0.0,0.0,0.0,0.0,0.0,0.0,0.0,0.0,0.0,0.0,0.0,0.0,0.0,0.0,0.0,0.0,0.0,0.0,0.0,0.0,0.0,0.0,0.0,0.0,0.0,0.0,0.0,0.0,0.0,0.0,0.0,0.0,0.0,0.0,0.0,0.0,0.0,0.0,0.0,0.0,0.0,0.0,0.0,0.0,0.0,0.0,0.0,0.0,0.0,0.0,0.0,0.0,0.0,0.0,0.0,0.0,0.0,0.0,0.0,0.0,0.0,0.0,0.0,0.0,0.0,0.0,-2.7127,-2.9549,-3.1962,-3.2741,-3.1143,-3.0781,-2.9412,-2.6506,0.0,0.0,0.0,0.0,0.0,0.0,0.0,0.0,0.0,0.0,0.0,0.0,0.0,0.0,0.0,0.0,0.0,0.0,0.0,0.0,0.0,0.0,0.0,0.0,0.0,0.0,0.0,0.0,0.0,0.0,0.0,0.0,0.0,0.0,0.0,0.0,0.0,0.0,0.0,0.0,0.0,0.0,0.0,0.0,0.0,0.0,0.0,0.0,0.0,0.0,0.0,0.0,0.0,0.0,0.0,0.0,0.0,0.0,0.0,0.0,0.0,0.0,0.0,0.0,0.0,0.0,0.0,0.0,0.0,0.0,0.0,0.0,0.0,0.0,0.0,0.0,0.0,0.0,0.0,0.0,0.0,0.0,0.0,0.0,0.0,0.0,0.0,0.0,0.0,0.0,0.0,0.0,0.0,0.0,0.0,0.0,0.0,0.0,0.0,0.0,0.0,0.0,0.0,0.0,-2.7127,-2.9549,-3.1962,-3.2741,-3.1143,-2.9753,-2.8245,-2.6571,0.0,0.0,0.0,0.0,0.0,0.0,0.0,0.0,0.0,0.0,0.0,0.0,0.0,0.0,0.0,0.0,0.0,0.0,0.0,0.0,0.0,0.0,0.0,0.0,0.0,0.0,0.0,0.0,0.0,0.0,0.0,0.0,0.0,0.0,0.0,0.0,0.0,0.0,0.0,0.0,0.0,0.0,0.0,0.0,0.0,0.0,0.0,0.0,0.0,0.0,0.0,0.0,0.0,0.0,0.0,0.0,0.0,0.0,0.0,0.0,0.0,0.0,0.0,0.0,0.0,0.0,0.0,0.0,0.0,0.0,0.0,0.0,0.0,0.0,0.0,0.0,0.0,0.0,0.0,0.0,0.0,0.0,0.0,0.0,0.0,0.0,0.0,0.0,0.0,0.0,0.0,0.0,0.0,0.0,0.0,0.0,0.0,0.0,0.0,0.0,0.0,0.0,0.0,-2.6464,-2.8087,-2.9639,-3.1962,-3.2741,-3.1143,-2.9523,-2.7979,-2.6497,-2.5517,0.0,0.0,0.0,0.0,0.0,0.0,0.0,0.0,0.0,0.0,0.0,0.0,0.0,0.0,0.0,0.0,0.0,0.0,0.0,0.0,0.0,0.0,0.0,0.0,0.0,0.0,0.0,0.0,0.0,0.0,0.0,0.0,0.0,0.0,0.0,0.0,0.0,0.0,0.0,0.0,0.0,0.0,0.0,0.0,0.0,0.0,0.0,0.0,0.0,0.0,0.0,0.0,0.0,0.0,0.0,0.0,0.0,0.0,0.0,0.0,0.0,0.0,0.0,0.0,0.0,0.0,0.0,0.0,0.0,0.0,0.0,0.0,0.0,0.0,0.0,0.0,0.0,0.0,0.0,0.0,0.0,0.0,0.0,0.0,0.0,0.0,0.0,0.0,0.0,0.0,0.0,0.0,0.0,0.0,0.0,0.0,0.0,0.0,0.0,0.0,0.0,0.0,-2.7224,-2.8907,-2.9712,-3.1781,-3.2469,-3.0853,-2.9259,-2.7749,-2.637,-2.499,0.0,0.0,0.0,0.0,0.0,0.0,0.0,0.0,0.0,0.0,0.0,0.0,0.0,0.0,0.0,0.0,0.0,0.0,0.0,0.0,0.0,0.0,0.0,0.0,0.0,0.0,0.0,0.0,0.0,0.0,0.0,0.0,0.0,0.0,0.0,0.0,0.0,0.0,0.0,0.0,0.0,0.0,0.0,0.0,0.0,0.0,0.0,0.0,0.0,0.0,0.0,0.0,0.0,0.0,0.0,0.0,0.0,0.0,0.0,0.0,0.0,0.0,0.0,0.0,0.0,0.0,0.0,0.0,0.0,0.0,0.0,0.0,0.0,0.0,0.0,0.0,0.0,0.0,0.0,0.0,0.0,0.0,0.0,0.0,0.0,0.0,0.0,0.0,0.0,0.0,0.0,0.0,0.0,0.0,0.0,0.0,0.0,0.0,0.0,0.0,0.0,0.0,-2.7568,-2.8907,-2.9712,-3.1288,-3.1618,-3.002,-2.8481,-2.7193,-2.6258,-2.5572,0.0,0.0,0.0,0.0,0.0,0.0,0.0,0.0,0.0,0.0,0.0,0.0,0.0,0.0,0.0,0.0,0.0,0.0,0.0,0.0,0.0,0.0,0.0,0.0,0.0,0.0,0.0,0.0,0.0,0.0,0.0,0.0,0.0,0.0,0.0,0.0,0.0,0.0,0.0,0.0,0.0,0.0,0.0,0.0,0.0,0.0,0.0,0.0,0.0,0.0,0.0,0.0,0.0,0.0,0.0,0.0,0.0,0.0,0.0,0.0,0.0,0.0,0.0,0.0,0.0,0.0,0.0,0.0,0.0,0.0,0.0,0.0,0.0,0.0,0.0,0.0,0.0,0.0,0.0,0.0,0.0,0.0,0.0,0.0,0.0,0.0,0.0,0.0,0.0,0.0,0.0,0.0,0.0,0.0,0.0,0.0,0.0,0.0,0.0,0.0,0.0,0.0,-2.7604,-2.8907,0.0,-3.1252,-3.1347,-2.9228,-2.8088,-2.6926,-2.5608,0.0,0.0,0.0,0.0,0.0,0.0,0.0,0.0,0.0,0.0,0.0,0.0,0.0,0.0,0.0,0.0,0.0,0.0,0.0,0.0,0.0,0.0,0.0,0.0,0.0,0.0,0.0,0.0,0.0,0.0,0.0,0.0,0.0,0.0,0.0,0.0,0.0,0.0,0.0,0.0,0.0,0.0,0.0,0.0,0.0,0.0,0.0,0.0,0.0,0.0,0.0,0.0,0.0,0.0,0.0,0.0,0.0,0.0,0.0,0.0,0.0,0.0,0.0,0.0,0.0,0.0,0.0,0.0,0.0,0.0,0.0,0.0,0.0,0.0,0.0,0.0,0.0,0.0,0.0,0.0,0.0,0.0,0.0,0.0,0.0,0.0,0.0,0.0,0.0,0.0,0.0,0.0,0.0,0.0,0.0,0.0,0.0,0.0,0.0,0.0,0.0,0.0,-2.5986,-2.7369,-2.8527,0.0,-3.0405,-3.0296,-2.8382,-2.7332,-2.6277,-2.5168,0.0,0.0,0.0,0.0,0.0,0.0,0.0,0.0,0.0,0.0,0.0,0.0,0.0,0.0,0.0,0.0,0.0,0.0,0.0,0.0,0.0,0.0,0.0,0.0,0.0,0.0,0.0,0.0,0.0,0.0,0.0,0.0,0.0,0.0,0.0,0.0,0.0,0.0,0.0,0.0,0.0,0.0,0.0,0.0,0.0,0.0,0.0,0.0,0.0,0.0,0.0,0.0,0.0,0.0,0.0,0.0,0.0,0.0,0.0,0.0,0.0,0.0,0.0,0.0,0.0,0.0,0.0,0.0,0.0,0.0,0.0,0.0,0.0,0.0,0.0,0.0,0.0,0.0,0.0,0.0,0.0,0.0,0.0,0.0,0.0,0.0,0.0,0.0,0.0,0.0,0.0,0.0,0.0,0.0,0.0,0.0,0.0,0.0,0.0,0.0,0.0,0.0,-2.5986,-2.6898,-2.7713,-2.8509,-2.86,-2.8274,-2.7459,-2.6052,-2.5168,0.0,0.0,0.0,0.0,0.0,0.0,0.0,0.0,0.0,0.0,0.0,0.0,0.0,0.0,0.0,0.0,0.0,0.0,0.0,0.0,0.0,0.0,0.0,0.0,0.0,0.0,0.0,0.0,0.0,0.0,0.0,0.0,0.0,0.0,0.0,0.0,0.0,0.0,0.0,0.0,0.0,0.0,0.0,0.0,0.0,0.0,0.0,0.0,0.0,0.0,0.0,0.0,0.0,0.0,0.0,0.0,0.0,0.0,0.0,0.0,0.0,0.0,0.0,0.0,0.0,0.0,0.0,0.0,0.0,0.0,0.0,0.0,0.0,0.0,0.0,0.0,0.0,0.0,0.0,0.0,0.0,0.0,0.0,0.0,0.0,0.0,0.0,0.0,0.0,0.0,0.0,0.0,0.0,0.0,0.0,0.0,0.0,0.0,0.0,0.0,0.0,0.0,0.0,-2.5986,-2.6898,-2.7713,-2.8509,-2.86,-2.8038,-2.6663,-2.5725,-2.4952,-2.4358,0.0,0.0,0.0,0.0,0.0,0.0,0.0,0.0,0.0,0.0,0.0,0.0,0.0,0.0,0.0,0.0,0.0,0.0,0.0,0.0,0.0,0.0,0.0,0.0,0.0,0.0,0.0,0.0,0.0,0.0,0.0,0.0,0.0,0.0,0.0,0.0,0.0,0.0,0.0,0.0,0.0,0.0,0.0,0.0,0.0,0.0,0.0,0.0,0.0,0.0,0.0,0.0,0.0,0.0,0.0,0.0,0.0,0.0,0.0,0.0,0.0,0.0,0.0,0.0,0.0,0.0,0.0,0.0,0.0,0.0,0.0,0.0,0.0,0.0,0.0,0.0,0.0,0.0,0.0,0.0,0.0,0.0,0.0,0.0,0.0,0.0,0.0,0.0,0.0,0.0,0.0,0.0,0.0,0.0,0.0,0.0,0.0,0.0,0.0,0.0,0.0,0.0,-2.6041,-2.6609,-2.7224,-2.8038,-2.7864,-2.7151,-2.5876,-2.5139,-2.4683,-2.4529,0.0,0.0,0.0,0.0,0.0,0.0,0.0,0.0,0.0,0.0,0.0,0.0,0.0,0.0,0.0,0.0,0.0,0.0,0.0,0.0,0.0,0.0,0.0,0.0,0.0,0.0,0.0,0.0,0.0,0.0,0.0,0.0,0.0,0.0,0.0,0.0,0.0,0.0,0.0,0.0,0.0,0.0,0.0,0.0,0.0,0.0,0.0,0.0,0.0,0.0,0.0,0.0,0.0,0.0,0.0,0.0,0.0,0.0,0.0,0.0,0.0,0.0,0.0,0.0,0.0,0.0,0.0,0.0,0.0,0.0,0.0,0.0,0.0,0.0,0.0,0.0,0.0,0.0,0.0,0.0,0.0,0.0,0.0,0.0,0.0,0.0,0.0,0.0,0.0,0.0,0.0,0.0,0.0,0.0,0.0,0.0,0.0,0.0,0.0,0.0,0.0,0.0,-2.6204,-2.6258,-2.65,-2.7314,-2.6728,-2.5964,-2.5168,-2.448,-2.4441,-2.5248,0.0,0.0,0.0,0.0,0.0,0.0,0.0,0.0,0.0,0.0,0.0,0.0,0.0,0.0,0.0,0.0,0.0,0.0,0.0,0.0,0.0,0.0,0.0,0.0,0.0,0.0,0.0,0.0,0.0,0.0,0.0,0.0,0.0,0.0,0.0,0.0,0.0,0.0,0.0,0.0,0.0,0.0,0.0,0.0,0.0,0.0,0.0,0.0,0.0,0.0,0.0,0.0,0.0,0.0,0.0,0.0,0.0,0.0,0.0,0.0,-3.9546,0.0,0.0,0.0,0.0,0.0,0.0,0.0,0.0,0.0,0.0,0.0,0.0,0.0,0.0,0.0,0.0,0.0,0.0,0.0,0.0,0.0,0.0,0.0,0.0,0.0,0.0,0.0,0.0,0.0,0.0,0.0,0.0,0.0,0.0,0.0,0.0,0.0,0.0,0.0,0.0,0.0,-2.6952,-2.659,-2.65,-2.7314,-2.6693,-2.593,-2.5158,-2.4449,-2.4383,-2.5248,-2.5197,0.0,0.0,0.0,0.0,0.0,0.0,0.0,0.0,0.0,0.0,0.0,0.0,0.0,0.0,0.0,0.0,0.0,0.0,0.0,0.0,0.0,0.0,0.0,0.0,0.0,0.0,0.0,0.0,0.0,0.0,0.0,0.0,0.0,0.0,0.0,0.0,0.0,0.0,0.0,0.0,0.0,0.0,0.0,0.0,0.0,0.0,0.0,0.0,0.0,0.0,0.0,0.0,0.0,0.0,0.0,0.0,0.0,0.0,0.0,0.0,-4.0301,0.0,0.0,0.0,0.0,0.0,0.0,0.0,0.0,0.0,0.0,0.0,0.0,0.0,0.0,0.0,0.0,0.0,0.0,0.0,0.0,0.0,0.0,0.0,0.0,0.0,0.0,0.0,0.0,0.0,0.0,0.0,0.0,0.0,0.0,0.0,0.0,0.0,0.0,0.0,0.0,-2.7242,-2.6699,-2.6367,-2.6819,-2.6533,-2.5834,-2.4715,-2.4302,-2.4461,-2.5297,-2.5473,0.0,0.0,0.0,0.0,0.0,0.0,0.0,0.0,0.0,0.0,0.0,0.0,0.0,0.0,0.0,0.0,0.0,0.0,0.0,0.0,0.0,0.0,0.0,0.0,0.0,0.0,0.0,0.0,0.0,0.0,0.0,0.0,0.0,0.0,0.0,0.0,0.0,0.0,0.0,0.0,0.0,0.0,0.0,0.0,0.0,0.0,0.0,0.0,0.0,0.0,0.0,0.0,0.0,-4.3673,-4.4322,-4.5507,-4.5507,-4.543,-4.5154,-4.2374,-4.1008,-4.0721,-4.0568,0.0,0.0,0.0,0.0,0.0,0.0,0.0,0.0,0.0,0.0,0.0,0.0,0.0,0.0,0.0,0.0,0.0,0.0,0.0,0.0,0.0,0.0,0.0,0.0,-3.361,-3.3212,-3.1727,0.0,0.0,0.0,0.0,0.0,0.0,0.0,0.0,0.0,0.0,0.0,-2.7912,-2.7188,-2.6596,-2.6497,-2.6427,-2.5754,-2.4202,-2.4151,-2.4538,-2.5338,-2.5727,-2.6497,0.0,0.0,0.0,0.0,0.0,0.0,0.0,0.0,0.0,0.0,0.0,0.0,0.0,0.0,0.0,0.0,0.0,0.0,0.0,0.0,0.0,0.0,0.0,0.0,0.0,0.0,0.0,0.0,0.0,0.0,0.0,0.0,-3.9986,-4.011,0.0,0.0,0.0,0.0,0.0,0.0,0.0,0.0,0.0,0.0,0.0,0.0,0.0,-4.4151,-4.5679,-4.6432,-4.691,-4.7139,-4.7139,-4.6863,-4.6347,-4.6347,-4.5965,-4.5288,-4.4819,0.0,-4.2412,-4.1648,0.0,0.0,0.0,0.0,0.0,0.0,0.0,0.0,0.0,0.0,0.0,0.0,0.0,0.0,0.0,0.0,0.0,0.0,0.0,0.0,0.0,0.0,-3.5297,-3.4624,-3.4443,-3.419,0.0,-3.3085,-3.2669,-3.127,-3.2125,0.0,0.0,0.0,0.0,0.0,0.0,0.0,-3.0418,-2.921,-2.802,-2.7327,-2.6697,-2.5681,-2.4134,-2.4074,-2.4481,-2.5356,-2.6246,-2.7139,-2.8019,-2.8457,0.0,0.0,0.0,0.0,0.0,0.0,0.0,0.0,0.0,0.0,0.0,0.0,0.0,0.0,0.0,0.0,0.0,0.0,0.0,0.0,0.0,0.0,0.0,0.0,0.0,0.0,0.0,0.0,0.0,-4.0528,-4.0701,-4.0233,-4.0596,-4.0613,0.0,0.0,0.0,0.0,0.0,0.0,0.0,0.0,0.0,-4.4745,-4.5641,-4.6465,-4.7215,-4.7616,-4.8266,-4.9202,-4.9009,-4.922,-4.9752,-4.953,-4.8975,-4.8207,-4.7928,-4.6882,-4.5163,-4.3096,-4.1724,-4.0912,0.0,0.0,0.0,0.0,-4.0103,-3.9979,-3.9362,-3.9098,0.0,-3.7466,0.0,0.0,0.0,0.0,0.0,0.0,0.0,0.0,0.0,0.0,-3.5713,-3.5351,-3.5261,-3.517,-3.4824,-3.4389,-3.3737,0.0,-3.2922,-3.3031,-3.1872,0.0,0.0,0.0,0.0,-3.0092,-3.0908,-2.921,-2.7828,-2.7543,-2.6409,-2.5262,-2.4203,-2.4141,-2.4317,-2.4695,-2.6191,-2.7185,-2.7409,-2.8735,-2.9425,0.0,0.0,0.0,0.0,0.0,0.0,0.0,0.0,0.0,0.0,0.0,0.0,0.0,0.0,0.0,0.0,0.0,0.0,0.0,0.0,0.0,0.0,0.0,0.0,0.0,0.0,0.0,0.0,-4.0931,-4.1279,-4.019,-4.1253,-4.1459,0.0,0.0,0.0,0.0,0.0,0.0,-4.3839,-4.5154,-4.6383,-4.7436,-4.8323,-4.8972,-4.9423,-4.9622,-5.0378,-5.1601,-5.1351,-5.1643,-5.2422,-5.2122,-5.1417,-5.0432,-5.0074,-4.9105,-4.7555,-4.4859,-4.3119,-4.2068,-4.1398,-4.0996,-4.0785,-4.0824,-4.1073,-4.1302,-4.0589,-4.0553,-4.0514,-3.875,-3.7798,-3.7247,-3.6787,0.0,0.0,0.0,0.0,-3.6417,-3.6433,-3.6433,-3.6363,-3.6164,-3.6109,-3.6055,-3.584,-3.5315,-3.4663,0.0,-3.3538,-3.3212,-3.2614,0.0,0.0,0.0,0.0,-3.0944,-3.1542,-2.9699,-2.8202,-2.79,-2.6461,-2.5158,-2.4252,-2.418,-2.4281,-2.4493,-2.6153,-2.7173,-2.7279,-2.8774,-2.9532,-2.9385,0.0,0.0,0.0,0.0,0.0,0.0,0.0,0.0,0.0,0.0,0.0,0.0,0.0,0.0,0.0,0.0,0.0,0.0,0.0,0.0,0.0,0.0,0.0,0.0,0.0,0.0,0.0,0.0,0.0,-4.0122,-4.2145,0.0,0.0,0.0,0.0,-4.3315,-4.5086,-4.6496,-4.7315,-4.7429,-4.8288,-5.0054,-5.0951,-5.2174,-5.3779,-5.46,-5.5059,-5.5154,-5.5142,-5.4288,-5.2773,-5.2761,-5.1851,-5.0324,-5.0298,-4.9782,-4.8877,-4.7062,-4.5343,-4.3833,-4.3555,-4.3113,-4.263,-4.2392,-4.2474,-4.2687,-4.2649,-4.2436,-4.2009,-4.0898,-3.9142,-3.7591,-3.8178,-3.7789,0.0,0.0,-3.8178,-3.8099,-3.8165,-3.8132,-3.7901,-3.7122,-3.6941,-3.6741,-3.5967,-3.5768,-3.5496,0.0,-3.3918,-3.3393,-3.3357,0.0,-3.3339,-3.3284,-3.3248,-3.323,-3.3266,-3.1836,-3.0269,-2.8802,-2.7257,-2.5739,-2.4222,-2.4161,-2.453,-2.5283,-2.6329,-2.7335,-2.8292,-2.9147,-2.9598,-2.9589,-2.9321,0.0,0.0,0.0,0.0,0.0,0.0,0.0,0.0,0.0,0.0,0.0,0.0,0.0,0.0,0.0,0.0,0.0,0.0,0.0,0.0,0.0,0.0,0.0,0.0,0.0,0.0,0.0,0.0,-4.3788,-4.5683,0.0,-4.4568,-4.5407,-4.6007,-4.5878,-4.7688,-4.8871,-4.908,-5.0716,-5.1948,-5.2609,-5.3409,-5.4205,-5.4944,-5.525,-5.5403,-5.539,-5.514,-5.4415,-5.3313,-5.3043,-5.2012,-5.044,-5.0659,-5.0297,-4.9518,-4.9105,-4.7627,-4.5553,-4.4936,-4.4221,-4.3557,-4.3465,-4.3232,-4.2925,-4.2389,-4.2267,-4.2073,-4.0592,-3.9203,-3.8115,-3.8312,-3.8184,-3.8002,-3.8198,-3.8274,-3.8257,-3.8241,-3.8225,-3.8136,-3.7846,-3.7774,-3.7701,-3.7413,-3.6942,-3.649,-3.6216,-3.5077,-3.4009,-3.3502,-3.3393,-3.3393,-3.3393,-3.3393,-3.3408,-3.3466,-3.2064,-3.0688,-2.9703,-2.7714,-2.604,-2.5032,-2.5078,-2.5226,-2.5384,-2.7072,-2.8163,-2.8394,-2.93,-2.9786,-2.9786,-2.8447,-2.7816,0.0,0.0,0.0,0.0,0.0,0.0,0.0,0.0,0.0,0.0,0.0,0.0,0.0,0.0,0.0,0.0,0.0,0.0,0.0,0.0,0.0,0.0,0.0,0.0,0.0,0.0,-4.6733,-4.6838,-4.8924,-4.9697,-4.8083,-4.8824,-4.9399,-4.9287,-5.1163,-5.2353,-5.2498,-5.3971,-5.48,-5.48,-5.5048,-5.5273,-5.5403,-5.5403,-5.5403,-5.539,-5.5127,-5.4572,-5.3755,-5.3482,-5.2451,-5.0879,-5.1114,-5.0734,-4.9981,-5.0212,-4.9308,-4.7704,-4.6901,-4.6042,-4.5275,-4.5151,-4.485,-4.4366,-4.3348,-4.2753,-4.2249,-4.1024,-4.0028,-3.9248,-3.8913,-3.8838,-3.8782,-3.8378,-3.8272,-3.829,-3.8259,-3.8225,-3.8209,-3.8209,-3.8209,-3.8209,-3.8209,-3.7792,-3.7321,-3.7049,-3.5693,-3.4443,-3.39,-3.3574,-3.3393,-3.3393,-3.3393,-3.3422,-3.3495,-3.2342,-3.1141,-3.0198,-2.8429,-2.694,-2.5981,-2.5764,-2.5875,-2.6376,-2.7522,-2.8377,-2.8885,-2.9544,-2.9897,-2.9897,-2.7949,-2.7726,-2.9324,0.0,0.0,0.0,0.0,0.0,0.0,0.0,0.0,0.0,0.0,0.0,0.0,0.0,0.0,0.0,0.0,0.0,0.0,0.0,0.0,0.0,0.0,0.0,-4.3973,-4.7365,-4.9676,-4.9003,-5.166,-5.2579,-5.017,-5.2214,-5.3648,-5.3515,-5.5446,-5.6908,-5.7472,-5.6932,-5.6593,-5.6549,-5.5791,-5.539,-5.5403,-5.5403,-5.5403,-5.5403,-5.5403,-5.4944,-5.4104,-5.4065,-5.3168,-5.1589,-5.1582,-5.1085,-5.0302,-5.0302,-5.0302,-5.0225,-4.9442,-4.8602,-4.7804,-4.7447,-4.7289,-4.7027,-4.5652,-4.4095,-4.2656,-4.24,-4.1754,-4.0932,-4.0063,-3.9808,-3.9593,-3.867,-3.8354,-3.8307,-3.8307,-3.8241,-3.8209,-3.8209,-3.8209,-3.8209,-3.8209,-3.8209,-3.7973,-3.7194,-3.5765,-3.4661,-3.4606,-3.3936,-3.3393,-3.3393,-3.3393,0.0,-3.3477,-3.2833,-3.1796,-3.0325,-2.9484,-2.8437,-2.7102,-2.6219,-2.6487,-2.8282,-2.7635,-2.8012,-2.9832,-2.9916,-2.9916,-2.9897,-2.8059,-2.7858,-2.9402,0.0,0.0,0.0,0.0,0.0,0.0,0.0,0.0,0.0,0.0,0.0,0.0,0.0,0.0,0.0,0.0,0.0,0.0,0.0,0.0,0.0,0.0,-4.823,-4.7932,-5.0657,-5.2959,-5.3612,-5.5337,-5.6027,-5.5016,-5.5675,-5.592,-5.5393,-5.6939,-5.7236,-5.5719,-5.6493,-5.647,-5.5413,-5.5147,-5.5151,-5.539,-5.5403,-5.5403,-5.5403,-5.5403,-5.4944,-5.4085,-5.3454,-5.2594,-5.1551,-5.0932,-5.0531,-5.0302,-5.0302,-5.0302,-5.0283,-5.0054,-4.9461,-4.8648,-4.793,-4.673,-4.5401,-4.4829,-4.3789,-4.2686,-4.2613,-4.1859,-4.0811,-4.0028,-3.9723,-3.9475,-3.8591,-3.8305,-3.829,-3.8241,-3.8225,-3.8209,-3.8209,-3.8209,-3.8209,-3.8209,-3.8209,-3.8136,-3.7919,-3.7049,-3.5996,-3.4882,-3.3966,-3.3408,-3.3466,-3.3422,0.0,-3.3549,-3.3551,-3.3125,-3.2038,-3.1377,-3.0372,-2.8765,-2.8549,-2.8474,-2.8404,-2.8995,-2.9509,-2.9878,-3.0042,-3.0049,-2.9897,-2.9283,-2.9111,0.0,0.0,0.0,0.0,0.0,0.0,0.0,0.0,0.0,0.0,0.0,0.0,0.0,0.0,0.0,0.0,0.0,0.0,0.0,0.0,0.0,0.0,-4.9839,-5.1986,-5.2526,-5.405,-5.5715,-5.7415,-5.8088,-5.8359,-5.8165,-5.828,-5.8135,-5.7613,-5.8532,-5.8369,-5.6675,-5.7039,-5.6789,-5.5641,-5.528,-5.5192,-5.539,-5.5403,-5.5231,-5.4868,-5.5231,-5.4944,-5.4104,-5.3951,-5.3435,-5.2594,-5.1735,-5.1162,-5.0818,-5.0455,-5.0302,0.0,0.0,0.0,0.0,0.0,-4.686,-4.51,-4.4842,-4.408,-4.3209,-4.3069,-4.2564,-4.1852,-4.1066,-4.0557,-4.005,-3.9216,-3.8674,-3.8368,-3.8338,-3.8272,-3.8241,-3.8241,-3.8225,-3.8209,-3.8209,-3.8209,-3.8209,-3.8242,-3.7588,0.0,-3.593,-3.4763,-3.3974,-3.4026,-3.3724,-3.3563,-3.378,-3.3947,-3.3747,-3.2974,-3.2616,-3.1925,-3.0695,-3.0067,0.0,0.0,0.0,-2.978,-3.0007,-3.0142,0.0,0.0,0.0,-2.9903,-3.0075,0.0,0.0,0.0,-2.9206,-2.9021,0.0,0.0,0.0,0.0,0.0,0.0,0.0,0.0,0.0,0.0,0.0,0.0,0.0,0.0,0.0,0.0,-5.3399,-5.5708,-5.7311,-5.7428,-5.8086,-6.0069,-5.9915,-5.9717,-5.9885,-6.001,-5.9906,-5.9551,-5.9874,-5.9665,-5.8671,0.0,0.0,0.0,0.0,-5.5377,-5.5403,-5.5403,-5.5021,-5.4256,-5.504,-5.5002,-5.4276,-5.4963,-5.4791,-5.3913,-5.3034,-5.2193,-5.1391,-5.0627,-5.0302,-5.0302,-5.0302,-5.0187,-4.9885,-4.8891,-4.7265,-4.5519,-4.5245,0.0,0.0,-4.3666,-4.3458,-4.3204,-4.2415,-4.159,-4.0785,-4.0086,-3.9271,-3.8622,-3.8622,-3.8547,-3.8432,-3.8342,-3.8274,-3.8224,-3.8224,-3.8225,-3.8224,-3.8307,-3.7725,-3.728,-3.7449,-3.6027,-3.4881,-3.4991,-3.4296,-3.3908,-3.4241,-3.4228,-3.3995,-3.3502,0.0,0.0,-3.2596,-3.1174,-3.0671,-3.1488,-3.0159,-2.9681,-3.0452,-3.0498,-3.0486,-3.0486,-3.0349,-3.0587,-3.1174,-3.0235,-3.0066,-3.061,-2.9664,-2.9251,0.0,0.0,0.0,0.0,0.0,0.0,0.0,0.0,0.0,0.0,0.0,0.0,0.0,0.0,0.0,-5.3478,-5.6125,-5.8694,-6.1156,-6.0659,-5.9974,-5.9772,-5.9896,-5.9979,-5.9902,-5.9918,-5.9681,-5.9079,-5.9602,-5.9048,-5.6997,-5.7241,-5.6804,-5.5421,-5.523,-5.5227,-5.5403,-5.5403,-5.5326,-5.5154,0.0,0.0,-5.5135,-5.46,-5.3874,-5.3015,-5.2193,-5.1353,-5.055,-5.0378,-5.0302,-5.0302,-5.0302,-4.948,-4.8266,-4.8037,-4.6858,-4.5312,-4.4991,-4.4624,-4.4275,-4.4002,-4.3242,-4.2313,-4.1556,-4.0665,0.0,-3.9827,-3.9611,-3.9384,-3.9384,-3.9367,-3.9187,-3.853,-3.8368,-3.8368,-3.8368,-3.8322,-3.8289,-3.8368,-3.8211,-3.818,-3.8534,-3.7004,-3.5842,-3.6127,-3.5449,-3.501,-3.5357,-3.4969,-3.4566,-3.4293,-3.4468,-3.4264,-3.3449,-3.307,-3.276,-3.2474,-3.2145,-3.205,-3.2203,-3.2266,-3.2307,-3.2307,-3.2164,-3.216,-3.23,-3.1295,-3.0817,-3.0818,-2.9822,-2.9376,0.0,0.0,0.0,0.0,0.0,0.0,0.0,0.0,0.0,0.0,0.0,-4.8939,0.0,0.0,-5.4638,-5.7343,-5.9054,-6.0551,-6.2119,-6.1693,-6.1058,-6.0659,-6.03,-6.0068,-6.001,-6.0091,-5.9965,-5.9528,-5.9433,-5.8741,-5.7243,-5.6953,-5.6349,-5.5279,-5.5241,-5.53,-5.5403,-5.5403,-5.5193,-5.4753,-5.5193,-5.5174,-5.4753,-5.4753,-5.4505,-5.4027,-5.2747,-5.1945,-5.1486,-5.0646,-5.0302,-5.0302,-5.0302,-4.9538,-4.8391,-4.7971,-4.6997,-4.5799,-4.5055,-4.4714,-4.4559,-4.4294,-4.3708,-4.3068,-4.2826,-4.1995,-4.1162,-4.123,-4.0901,-4.0525,-4.0388,-4.0032,-3.9597,-3.9195,-3.8725,-3.8399,-3.8399,-3.8368,-3.8368,-3.843,-3.8538,-3.8688,-3.8947,-3.8308,-3.7662,-3.7436,-3.6665,-3.6047,-3.5913,-3.5642,-3.5296,-3.4879,-3.4973,-3.4864,-3.4445,-3.4027,-3.3489,-3.2749,-3.2699,-3.2699,-3.2699,-3.2752,-3.28,-3.28,-3.2781,-3.289,-3.3195,-3.2327,-3.2011,-3.2232,-3.1211,-3.0265,0.0,0.0,0.0,0.0,0.0,0.0,0.0,0.0,-4.7629,-5.0038,-5.1362,-5.2798,-5.5159,-5.6436,-5.8028,-6.0739,-6.1581,-6.1961,-6.2224,-6.1989,-6.1626,-6.1172,-6.0379,-5.987,-5.99,-5.987,-5.9865,-5.9896,-5.9153,-5.8468,-5.7944,-5.6924,-5.6052,-5.5409,-5.5403,-5.5403,-5.5403,-5.5403,-5.5059,-5.4352,-5.5059,-5.504,-5.4371,-5.5078,-5.5231,-5.4811,-5.3072,-5.2308,-5.2212,-5.0856,-5.0302,-5.0302,-5.0302,-4.9901,-4.9213,-4.8181,-4.7349,-4.6582,-4.5245,-4.4914,-4.4978,-4.4535,-4.4152,-4.3879,-4.4102,-4.3423,-4.26,-4.275,-4.234,-4.1764,-4.1488,-4.0885,-4.027,-3.9896,-3.9244,-3.8647,-3.8501,-3.843,-3.8462,-3.8585,-3.8774,-3.8985,-3.92,-3.9421,-3.9361,-3.8715,-3.786,-3.7101,-3.6482,-3.6274,-3.5931,-3.5269,-3.5209,-3.5209,-3.5209,-3.4617,-3.3929,-3.3234,-3.3196,-3.3196,-3.3196,-3.3256,-3.3286,-3.3286,-3.335,-3.3635,-3.414,-3.3356,-3.3218,-3.3634,-3.2666,-3.1392,-4.2042,-4.246,0.0,-4.5581,-4.5765,-4.7289,0.0,0.0,-5.539,-5.7134,-5.8745,-5.9474,-5.8245,-5.9403,-6.0925,-6.2048,-6.2995,-6.3423,-6.2883,-6.2612,-6.1717,-5.9616,-5.9178,-5.9092,-5.9201,-5.843,-5.8268,-5.9144,-5.847,-5.7987,-5.7905,-5.7052,-5.6211,-5.5422,-5.5403,-5.5403,-5.5403,-5.5403,-5.5345,-5.5269,-5.5345,-5.5345,-5.5269,-5.5365,-5.4562,-5.2996,-5.1314,-5.0588,-5.0569,-5.0378,-5.0302,-5.0302,-5.0302,-5.0245,-4.9977,-4.838,-4.7731,-4.7373,-4.5454,-4.5312,-4.578,-4.4737,-4.39,-4.3286,-4.3327,-4.275,-4.223,-4.2929,-4.3079,-4.2936,-4.2601,-4.2436,-4.1952,-4.0294,-3.9811,-3.9554,-3.8823,-3.8559,-3.8603,-3.8956,-3.8961,-3.909,-3.9717,-3.9848,-3.9821,-3.9738,-3.8977,-3.8198,-3.7602,-3.6894,-3.6139,-3.5297,-3.5209,-3.5209,-3.5209,-3.5114,-3.5018,-3.4934,-3.4915,-3.4915,-3.4915,-3.4975,-3.502,-3.502,-3.5131,-3.5236,-3.5318,-3.4448,-3.3976,-3.3845,-3.302,-3.2336,-4.4594,0.0,0.0,0.0,-4.9675,-5.2343,-5.6554,-5.7671,-5.8394,-6.0399,-6.1654,-6.2191,-6.1544,-6.2429,-6.3389,0.0,-6.3968,-6.4104,-6.4168,-6.2525,-6.0967,-5.9969,-5.808,-5.7265,-5.8293,-5.8443,-5.8448,-5.8408,-5.7619,-5.7141,-5.7141,-5.6339,-5.5747,-5.5422,-5.5403,-5.5403,-5.5403,-5.5403,-5.5403,-5.5403,-5.5403,-5.5403,-5.5384,-5.4868,-5.3722,-5.2059,-5.1372,-5.0779,-5.0302,-5.0302,-5.0302,-5.0302,-5.0302,-5.0302,-5.0168,-4.8984,-4.8563,-4.8285,-4.6428,-4.6032,-4.6191,-4.5231,-4.4555,-4.4166,-4.4362,-4.4056,-4.3706,-4.4033,-4.4128,-4.4024,-4.3565,-4.3073,-4.2504,-4.1718,-4.0803,-4.0233,-4.0547,-4.0175,-3.983,-3.9997,-4.0108,-4.0119,-3.9927,-4.0027,-4.0128,-4.0128,-3.9813,-3.9309,-3.8544,-3.7712,-3.67,-3.5343,-3.5209,-3.5209,-3.5209,-3.5209,-3.5209,-3.5209,-3.5209,-3.5218,-3.5261,-3.5297,-3.5323,-3.5364,-3.5453,-3.55,-3.55,-3.5135,-3.4915,-3.482,-3.4359,-3.4067,-4.5777,0.0,0.0,-5.0769,-5.4214,-5.7596,-5.9568,-6.0704,-6.182,-6.3464,-6.3879,-6.3935,-6.3872,-6.4053,-6.4217,-6.4256,-6.4235,-6.418,-6.4152,-6.1978,-6.0141,-5.9448,-5.7008,-5.5689,-5.6415,-5.7466,-5.7925,-5.7562,-5.7179,-5.695,-5.695,-5.6415,-5.5976,-5.5747,-5.5728,-5.5632,-5.5403,-5.5403,-5.5403,-5.5403,-5.5403,-5.5403,-5.5365,-5.4505,-5.332,-5.1926,-5.1704,-5.1123,-5.0302,-5.0302,-5.0302,-5.0302,-5.0302,-5.0302,-5.0225,-4.9652,-4.9423,-4.9175,-4.7455,-4.7016,-4.7073,-4.6252,-4.5837,-4.5627,-4.5625,-4.5464,-4.5231,-4.5003,-4.4946,-4.4819,-4.4351,-4.3754,-4.3212,-4.292,-4.1959,-4.1269,-4.1873,-4.1499,-4.108,-4.1155,-4.1342,-4.1214,-4.0463,-4.05,-4.0559,-4.032,-4.0301,-3.9995,-3.9107,-3.8056,-3.6814,-3.5362,-3.5209,-3.5209,-3.5209,-3.5218,-3.5218,-3.5209,-3.5226,-3.525,-3.5304,-3.532,-3.5357,-3.5405,-3.546,-3.55,-3.55,-3.55,-3.55,-3.55,-3.5346,-3.525,0.0,0.0,-5.2047,-5.5665,-5.9214,-6.2466,-6.5064,-6.6472,-6.7274,-6.7315,-6.6425,-6.5388,-6.4615,-6.3484,-6.2671,-6.2671,-6.3532,-6.3618,-6.1956,-6.0943,-5.9472,-5.7008,-5.5938,-5.4753,0.0,-5.4505,-5.5823,-5.6568,-5.739,-5.7867,-5.7867,-5.7848,-5.7447,-5.6587,-5.6549,-5.6186,-5.5422,-5.5403,-5.5403,-5.5403,-5.5403,-5.5403,-5.5365,-5.4505,-5.3607,-5.2709,-5.1945,-5.1123,-5.0302,-5.0302,-5.0302,-5.0302,-5.0302,-5.0302,-5.0302,-5.0264,-5.0264,-5.0015,-4.8342,-4.8315,-4.888,-4.8009,-4.7712,-4.7548,-4.6719,-4.6451,-4.6298,-4.5496,-4.5277,-4.5213,-4.4856,-4.4745,-4.4468,-4.3418,-4.3157,-4.2913,-4.217,-4.1982,-4.204,-4.2302,-4.2348,-4.218,-4.1551,-4.1457,-4.1189,-4.0416,-4.0301,-3.9995,-3.9107,-3.7551,-3.6194,-3.5305,-3.5209,-3.5209,-3.5209,-3.5261,-3.5269,-3.5209,-3.5262,-3.5304,-3.5293,-3.5361,-3.5405,-3.5405,-3.546,-3.55,-3.55,-3.55,-3.55,-3.55,-3.5493,-3.5395,-4.8826,0.0,-5.7005,-6.035,-6.3375,-6.6135,-6.8467,-6.8445,-6.756,-6.6347,-6.402,-6.1488,-5.9148,-5.8446,-5.8448,-5.9159,-6.109,-6.2471,-6.2471,-6.2223,-6.0695,-5.7027,-5.6358,0.0,0.0,0.0,0.0,-5.4925,-5.5747,-5.6473,-5.7008,-5.7581,-5.7504,-5.6625,-5.6587,-5.6205,-5.5422,-5.5403,-5.5403,-5.5403,-5.5403,-5.4791,-5.3664,-5.3359,-5.2461,-5.1123,-5.0856,-5.0569,-5.0302,-5.0302,-5.0302,-5.0302,-5.0302,-5.0302,-5.0302,-5.0302,-5.0302,-5.0149,-4.9041,-4.885,-4.8945,-4.8086,-4.7788,-4.7635,-4.6768,-4.65,-4.6328,-4.5526,-4.5307,-4.5224,-4.4879,-4.4788,-4.4719,-4.4348,-4.3851,-4.361,-4.4072,-4.3745,-4.3357,-4.3433,-4.3463,-4.3228,-4.2497,-4.2354,-4.2068,-4.1227,-4.0635,-3.9995,-3.9107,-3.7999,-3.6986,-3.6156,-3.5545,-3.5218,-3.5269,-3.5285,-3.5293,-3.527,-3.5293,-3.5315,-3.5369,-3.5391,-3.542,-3.546,-3.5493,-3.55,-3.55,-3.55,-3.55,-3.55,-3.55,-3.5453,-5.2915,-5.6972,-6.0926,-6.4694,-6.7328,-6.9297,-7.0514,-6.9107,-6.6858,-6.4517,-6.1156,-5.7752,-5.4848,-5.4133,-5.4382,-5.5687,-5.7857,-5.9682,-6.0523,-6.0924,-5.9873,-5.6568,-5.6167,-5.5078,0.0,0.0,0.0,-5.4104,-5.5728,-5.6816,-5.7046,-5.7867,-5.7944,-5.7084,-5.6759,-5.6205,-5.5422,-5.5403,-5.5403,-5.5403,-5.5078,-5.4352,-5.3244,-5.2938,-5.2059,-5.076,-5.076,-5.0588,-5.0302,-5.0302,-5.0302,-5.0302,-5.0302,-5.0302,-5.0302,-5.0302,-5.0302,-5.0225,-4.971,-4.9519,-4.9442,-4.8888,-4.8686,-4.8487,-4.7322,-4.6948,-4.6729,-4.5602,-4.5307,-4.5246,-4.5034,-4.4969,-4.4969,-4.4969,-4.457,-4.4406,-4.5142,-4.4857,-4.4456,-4.4456,-4.4456,-4.4208,-4.3367,-4.2737,-4.2144,-4.1571,-4.0826,-3.9995,-3.9107,-3.8514,-3.775,-3.6615,-3.6003,-3.5684,-3.5771,-3.5733,-3.5748,-3.5768,-3.5783,-3.5825,-3.5866,-3.5861,-3.5883,-3.5923,-3.5923,-3.5788,-3.55,-3.55,-3.55,-3.55,-3.55,-3.55,-5.6687,-6.026,-6.3946,-6.856,-7.0869,-7.1774,-7.1081,-6.8495,-6.5283,-6.193,-5.7932,-5.4249,0.0,0.0,-5.0665,-5.2384,-5.4237,-5.5785,-5.6721,-5.76,-5.7523,0.0,0.0,0.0,0.0,0.0,0.0,-5.4237,0.0,-5.8689,-5.8001,-5.8689,-5.8727,-5.7925,-5.7046,-5.6205,-5.5422,-5.5403,-5.5403,-5.5403,-5.4524,-5.4085,-5.4008,-5.3129,-5.2308,-5.1544,-5.1544,-5.1066,-5.0302,-5.0302,-5.0302,-5.0302,-5.0302,-5.0302,-5.0302,-5.0302,-5.0302,-5.0302,-5.0302,-5.0302,-5.0302,-5.0302,-5.0302,-4.9996,-4.8361,-4.7845,-4.7463,-4.5812,-4.5364,-4.5364,-4.5307,-4.5326,-4.5364,-4.5307,-4.5307,-4.5307,-4.5307,-4.5307,-4.5307,-4.5307,-4.5307,-4.5029,-4.4197,-4.2717,-4.1609,-4.1571,-4.0883,-4.0053,-3.9183,-3.903,-3.84,-3.6806,-3.6596,-3.6583,-3.666,-3.6602,-3.6607,-3.6665,-3.6723,-3.6776,-3.6776,-3.6774,-3.6769,-3.6769,-3.6712,-3.6327,-3.5558,-3.5519,-3.55,-3.55,-3.55,-3.55,-6.1053,-6.535,-6.9136,-7.1114,-7.1542,-7.0969,-6.9009,-6.5587,-6.1648,-5.7408,-5.2995,-4.9012,0.0,0.0,0.0,-5.0569,-5.3951,0.0,-5.9931,-6.1077,0.0,-5.844,0.0,-5.7963,-5.5021,-5.6071,0.0,0.0,-5.674,-5.7695,-5.8746,-5.8994,-5.8727,-5.7925,-5.7046,-5.6205,-5.5422,-5.5403,-5.5403,-5.5403,-5.4524,-5.376,-5.3091,-5.2289,-5.1448,-5.0627,-5.0627,-5.0512,-5.0302,-5.0302,-5.0302,-5.0302,-5.0302,-5.0302,-5.0302,-5.0302,-5.0302,-5.0302,-5.0302,-5.0302,-5.0302,-5.0302,-5.0302,-5.0111,-4.9079,-4.8315,-4.7578,-4.65,-4.6194,-4.6061,-4.5449,-4.5736,-4.6042,-4.543,-4.5307,-4.5307,-4.5307,-4.5307,-4.5307,-4.5307,-4.5307,-4.522,-4.501,-4.4074,-4.3157,-4.2565,-4.1743,-4.0903,-4.0072,-3.9412,-3.8839,-3.8419,-3.7834,-3.7494,-3.7554,-3.7555,-3.7575,-3.7651,-3.7658,-3.7666,-3.7666,-3.7673,-3.768,-3.768,-3.7019,-3.6596,-3.6385,-3.5788,-3.55,-3.55,-3.55,-3.55,-6.49,-6.827,-7.0962,-7.2021,-7.1186,-6.9311,-6.6316,-6.2278,-5.7737,-5.2791,-4.8701,0.0,0.0,0.0,0.0,0.0,0.0,0.0,-5.8402,-6.0236,-6.058,0.0,-5.9644,0.0,-5.6759,-5.7676,-5.823,0.0,-5.7695,-5.8116,-5.9038,-5.8784,-5.8364,-5.7905,-5.6702,-5.5861,-5.5403,-5.5747,-5.5556,-5.483,-5.4333,-5.3454,-5.2251,-5.141,-5.076,-5.0302,0.0,-5.0302,-5.0302,-5.0302,-5.0302,-5.0302,-5.0302,-5.0302,-5.0302,-5.0302,-5.0302,-5.0302,-5.0302,-5.0302,-5.0302,-5.0302,-5.0302,-5.0149,-4.9328,-4.8487,-4.7616,-4.6748,-4.6252,-4.587,-4.5411,-4.5621,-4.5851,-4.5411,-4.5307,-4.5307,-4.5307,-4.5307,-4.5307,-4.5307,-4.5307,-4.5307,-4.5307,-4.4284,-4.3329,-4.287,-4.1762,-4.0807,-4.0358,-3.9862,-3.9441,-3.9085,-3.8652,-3.8408,-3.8465,-3.8434,-3.8466,-3.8565,-3.855,-3.8543,-3.8565,-3.8565,-3.8565,-3.8565,-3.7719,-3.7084,-3.6692,-3.5885,-3.55,-3.55,-3.55,-3.55,-6.8184,-7.001,-7.1124,-7.2039,-7.0319,-6.7348,-6.3381,-5.8816,-5.3886,-4.844,0.0,-4.274,-4.1256,-4.1374,-4.2813,-4.629,0.0,-5.1658,-5.5517,-5.7734,-5.8803,-5.8421,-5.9568,-5.9816,-5.8364,-5.8861,-5.9281,-5.9281,-5.9281,-5.9281,-5.9281,-5.8498,-5.7963,-5.7734,-5.6205,-5.546,-5.5556,-5.6243,-5.5861,-5.4428,-5.4218,-5.3282,-5.1735,-5.076,-5.0302,-5.0302,-5.0302,0.0,-5.0302,-5.0302,-5.0302,-5.0302,-5.0302,-5.0302,-5.0302,-5.0302,-5.0302,-5.0302,-5.0302,-5.0302,-5.0302,-5.0302,-5.0302,-5.0168,-4.9461,-4.8582,-4.7635,-4.6901,-4.6099,-4.543,-4.5326,-4.5373,-4.543,-4.5326,-4.5307,-4.5307,-4.5307,-4.5307,-4.5307,-4.5307,-4.5307,-4.5307,-4.5307,-4.3997,-4.2928,-4.2813,-4.1457,-4.0425,-4.031,-4.0291,-4.0032,-3.9331,-3.9272,-3.9314,-3.9376,-3.9325,-3.9333,-3.945,-3.94,-3.9392,-3.945,-3.9457,-3.9457,-3.9457,-3.8604,-3.7738,-3.6865,-3.6173,-3.5769,-3.5654,-3.568,-3.5661,-7.0312,-7.1901,-7.2492,-7.2153,-6.9647,-6.5957,-6.0922,-5.5977,0.0,0.0,-4.2805,-4.1298,-4.0567,-4.1618,0.0,-4.799,0.0,0.0,0.0,0.0,-5.8822,0.0,0.0,0.0,0.0,0.0,0.0,0.0,0.0,-6.016,-6.016,-5.9357,-5.8268,-5.6855,-5.5899,-5.5728,-5.6377,-5.653,-5.6454,-5.6148,-5.4753,-5.3569,-5.2537,-5.1009,-5.0302,-5.0302,-5.0302,0.0,-5.0302,-5.0302,-5.0302,-5.0302,-5.0302,-5.0302,-5.0302,-5.0302,-5.0302,-5.0302,-5.0302,-5.0302,-5.0302,-5.0302,-5.0302,-5.0264,-5.013,-4.9022,-4.7769,-4.7616,-4.6959,-4.6137,-4.5468,-4.5793,-4.6118,-4.5449,-4.5307,-4.5307,-4.5307,-4.5307,-4.5307,-4.5307,-4.5307,-4.5307,-4.5307,-4.4456,-4.3567,-4.2908,-4.1934,-4.1055,-4.0385,-4.0289,-4.026,-4.0116,-4.0185,-4.0255,-4.0271,-4.0265,-4.0269,-4.0285,-4.0277,-4.0277,-4.0285,-4.0285,-4.0285,-4.0285,-3.9496,-3.8642,-3.7777,-3.7623,-3.7199,-3.6481,-3.6554,-3.6568,-7.1065,-7.265,-7.3143,-7.2029,-6.8255,-6.339,-5.7993,0.0,0.0,0.0,-4.1227,-4.0613,-4.0339,0.0,0.0,0.0,0.0,0.0,0.0,0.0,0.0,0.0,0.0,0.0,0.0,0.0,0.0,0.0,0.0,-5.9911,-6.037,-5.9185,-5.7714,-5.6033,-5.5594,-5.5594,-5.5976,-5.6377,-5.6148,-5.5288,-5.4486,-5.3416,-5.2136,-5.0875,-5.055,-5.099,-5.099,0.0,-5.1601,-5.1601,-5.1353,-5.099,-5.099,-5.0703,-5.0302,-5.0302,-5.0302,-5.0302,-5.0302,-5.0302,-5.0302,-5.0302,-5.0302,-5.0302,-5.0302,-4.9137,-4.7884,-4.8353,-4.7226,-4.5984,-4.6462,-4.6557,-4.6405,-4.6023,-4.5602,-4.5307,-4.5307,-4.5307,-4.5307,-4.5307,-4.5307,-4.5307,-4.5307,-4.4227,-4.3243,-4.2871,-4.1705,-4.0748,-4.0391,-4.0379,-4.0396,-4.0396,-4.0458,-4.0491,-4.0495,-4.05,-4.0496,-4.0496,-4.0496,-4.0496,-4.0496,-4.0496,-4.0496,-4.0496,-3.9708,-3.9092,-3.8681,-3.8267,-3.7832,-3.7427,-3.6999,-3.68,-7.1218,-7.2809,-7.3185,-7.1519,-6.6712,-6.0961,-5.546,-4.9738,0.0,0.0,-4.0301,-4.0301,-4.0301,0.0,0.0,0.0,0.0,0.0,0.0,0.0,0.0,0.0,0.0,0.0,0.0,0.0,0.0,0.0,0.0,0.0,-6.0365,-5.8803,-5.7294,-5.5976,-5.5594,-5.5479,-5.567,-5.6282,-5.5938,-5.4639,-5.4276,-5.332,-5.183,-5.0971,-5.0951,-5.1608,-5.1792,0.0,0.0,-5.2805,-5.2422,-5.1849,-5.1677,-5.1181,-5.0569,-5.0378,-5.0302,-5.0302,-5.0302,-5.0302,-5.0302,-5.0302,-5.0302,-5.0302,-5.0302,-4.927,-4.822,-4.8907,-4.7513,-4.6137,-4.7463,-4.7139,-4.6462,-4.629,-4.5755,-4.5307,-4.5307,-4.5307,-4.5307,-4.5307,-4.5307,-4.5307,-4.5317,-4.4075,-4.3072,-4.3092,-4.1665,-4.063,-4.0665,-4.0573,-4.051,-4.0499,-4.0499,-4.0495,-4.0496,-4.0496,-4.0496,-4.0496,-4.0496,-4.0496,-4.0496,-4.0496,-4.0496,-4.0496,-3.9881,-3.9477,-3.9292,-3.8847,-3.8541,-3.8355,-3.7501,-3.709,-7.1063,-7.2531,-7.2391,-7.0378,-6.5425,-5.9649,-5.4223,0.0,0.0,-4.0836,-4.0301,-4.0301,-4.0301,-4.0358,0.0,0.0,0.0,0.0,0.0,0.0,0.0,0.0,0.0,0.0,0.0,0.0,0.0,0.0,0.0,0.0,-6.0403,-5.8803,-5.7829,-5.7676,-5.6186,-5.5747,-5.6473,-5.6549,-5.6524,-5.6339,-5.483,-5.3607,-5.2652,-5.1849,-5.1525,-5.1627,-5.2365,0.0,0.0,-5.2805,-5.2747,-5.2614,-5.1888,-5.1551,-5.1391,-5.0588,-5.0302,-5.0302,-5.0302,-5.0302,-5.0302,-5.0302,-5.0302,-5.0302,-5.0302,-4.9671,-4.8995,-4.9091,-4.8353,-4.7597,-4.775,-4.7139,-4.6328,-4.5583,-4.5364,-4.5307,-4.5307,-4.5307,-4.5307,-4.5307,-4.5307,-4.5317,-4.5388,-4.4603,-4.4011,-4.4058,-4.263,-4.1574,-4.1588,-4.0943,-4.0499,-4.0508,-4.0508,-4.0489,-4.0496,-4.0496,-4.0496,-4.0496,-4.0496,-4.0496,-4.0496,-4.0496,-4.0496,-4.0496,-4.0439,-4.0031,-3.9309,-4.0029,-3.9993,-3.9257,-3.844,-3.8073,-6.7922,-7.0252,-7.0914,-6.9081,-6.3426,-5.7216,-5.3035,0.0,0.0,-4.0587,-4.0301,-4.0301,-4.0301,-4.0301,-4.0626,0.0,0.0,0.0,0.0,0.0,0.0,0.0,0.0,0.0,0.0,0.0,0.0,0.0,0.0,0.0,-5.8918,-5.8249,-5.7657,-5.7122,-5.5995,-5.5556,-5.5861,-5.588,-5.588,-5.5861,-5.4142,-5.3416,-5.3531,-5.2212,-5.2155,-5.3129,-5.3435,0.0,0.0,-5.4352,-5.3741,-5.2766,-5.2442,-5.1716,-5.0779,-5.0436,-5.0302,-5.0302,-5.0302,-5.0302,-5.0302,-5.0302,-5.0302,-5.0302,-5.0302,-4.9729,-4.9194,-4.9691,-4.885,-4.7922,-4.8449,-4.7551,-4.6691,-4.7409,-4.6415,-4.543,-4.5927,-4.564,-4.5307,-4.5307,-4.5328,-4.5378,-4.5398,-4.4719,-4.4173,-4.4249,-4.324,-4.2298,-4.1822,-4.1484,-4.1088,-4.0554,-4.0496,-4.0496,-4.0496,-4.0496,-4.0496,-4.0496,-4.0496,-4.0496,-4.0496,-4.0496,-4.0523,-4.0565,-4.0565,-4.0395,-4.0084,-4.0472,-4.0512,-4.0159,-3.9367,-3.898,-6.3592,-6.6535,-6.7924,-6.6143,-6.0542,-5.46,0.0,0.0,0.0,-4.0416,-4.0301,-4.0301,-4.0301,-4.0301,-4.0301,0.0,0.0,0.0,0.0,0.0,0.0,0.0,0.0,0.0,0.0,0.0,0.0,0.0,0.0,0.0,-5.7925,-5.7657,-5.7218,-5.6619,-5.5823,-5.5403,-5.5403,-5.5403,-5.5403,-5.5384,-5.3894,-5.3511,-5.4065,-5.2881,-5.2977,-5.4104,-5.4371,0.0,0.0,-5.5021,-5.4142,-5.2785,-5.2537,-5.1716,-5.0646,-5.0397,-5.0302,-5.0302,-5.0302,-5.0302,-5.0302,-5.0302,-5.0302,-5.0302,-5.0302,-4.9901,-4.9576,-5.0149,-4.9289,-4.8277,-4.8621,-4.781,-4.721,-4.8441,-4.7161,-4.5833,-4.6385,-4.587,-4.5307,-4.5328,-4.5378,-4.5418,-4.5429,-4.4959,-4.4613,-4.4668,-4.3946,-4.309,-4.2288,-4.1971,-4.1501,-4.0641,-4.0588,-4.0554,-4.0504,-4.0496,-4.0496,-4.0496,-4.0496,-4.0496,-4.0496,-4.053,-4.0571,-4.0607,-4.0648,-4.0655,-4.0628,-4.0707,-4.0726,-4.0713,-3.9875,-3.9365,-5.8277,-6.1343,-6.3065,-6.099,-5.6625,-5.1964,0.0,0.0,0.0,-4.0301,-4.0301,-4.0301,-4.0301,-4.0301,-4.0301,-4.0301,-4.0301,0.0,0.0,0.0,0.0,0.0,0.0,0.0,0.0,0.0,0.0,0.0,0.0,0.0,-5.7905,-5.7084,-5.6619,-5.6587,-5.5823,-5.5403,-5.5403,-5.5403,-5.5403,-5.5403,-5.4505,-5.4085,-5.4104,-5.4085,-5.4085,0.0,0.0,0.0,0.0,-5.4104,-5.3588,-5.2709,-5.1926,-5.1589,-5.1486,-5.0627,-5.0302,-5.0302,-5.0302,-5.0302,-5.0302,-5.0302,-5.0302,-5.0302,-5.0302,-5.0283,-5.0283,-5.0302,-4.971,-4.8888,-4.8036,-4.7843,-4.7875,-4.7829,-4.7182,-4.6564,-4.6511,-4.587,-4.5317,-4.5398,-4.5408,-4.5419,-4.5485,-4.5504,-4.5513,-4.5586,-4.4836,-4.3989,-4.3181,-4.2396,-4.1583,-4.0771,-4.0765,-4.0718,-4.0519,-4.0496,-4.0496,-4.0496,-4.0496,-4.0496,-4.0496,-4.063,-4.0675,-4.0607,-4.0722,-4.0772,-4.07,-4.0765,-4.0801,-4.0777,-3.9907,-3.9036,-5.3048,-5.5063,-5.6033,-5.5358,-5.1811,-4.8067,-4.6462,0.0,0.0,-4.0301,-4.0301,-4.0301,-4.0301,-4.0301,-4.0301,-4.0301,-4.0301,0.0,0.0,0.0,0.0,0.0,0.0,0.0,0.0,0.0,0.0,0.0,0.0,0.0,-5.6313,-5.6,-5.6078,-5.6581,-5.5823,-5.5116,-5.4524,-5.5097,-5.5122,-5.458,-5.37,-5.3628,-5.4207,-5.3558,-5.3628,0.0,0.0,0.0,0.0,-5.4345,-5.3588,-5.2709,-5.1907,-5.1238,-5.0684,-5.0397,-5.0302,-5.0302,-5.0302,-5.0302,-5.0302,-5.0302,-5.0302,-5.0206,-4.9652,-4.9862,-5.0302,-5.0302,-4.9725,-4.9174,-4.9499,-4.8736,-4.8173,-4.9308,-4.8015,-4.6704,-4.7308,-4.6362,-4.5379,-4.5409,-4.5448,-4.5486,-4.5495,-4.555,-4.5577,-4.5594,-4.5364,-4.4705,-4.3342,-4.2955,-4.2267,-4.0906,-4.0791,-4.0762,-4.0713,-4.0707,-4.0707,-4.0707,-4.0707,-4.0718,-4.0721,-4.0742,-4.0781,-4.0806,-4.0852,-4.0883,-4.0909,-4.0933,-4.0937,-4.0937,-4.0649,-4.0065,0.0,-4.9805,-5.0837,-5.0512,-4.7971,0.0,0.0,0.0,0.0,-4.0301,-4.0301,-4.0301,-4.0301,-4.0301,-4.0301,-4.0301,-4.0301,0.0,0.0,0.0,0.0,0.0,0.0,0.0,0.0,0.0,0.0,0.0,0.0,0.0,-5.5581,-5.5216,-5.5258,-5.5727,-5.5536,-5.5173,-5.4637,-5.4865,-5.4736,-5.4238,-5.3338,-5.3246,-5.3786,-5.3207,-5.3265,0.0,0.0,0.0,0.0,-5.3408,-5.2676,-5.1811,-5.1314,-5.0779,-5.0302,-5.0302,-5.0302,-5.0264,-4.9939,-5.0065,-5.0241,-4.961,-4.9411,-4.9346,-4.884,-4.901,-4.9457,-4.9797,-4.9073,-4.8462,-4.9609,-4.8952,-4.8379,-5.001,-4.8709,-4.7265,-4.7811,-4.6596,-4.5409,-4.5429,-4.5476,-4.5504,-4.5522,-4.5577,-4.562,-4.5668,-4.5676,-4.521,-4.3924,-4.3784,-4.3296,-4.2006,-4.1887,-4.1769,-4.1434,-4.1025,-4.081,-4.081,-4.08,-4.0794,-4.0807,-4.0855,-4.0877,-4.0889,-4.0964,-4.1011,-4.099,-4.099,-4.099,-4.099,-4.099,-4.0701,0.0,0.0,0.0,0.0,0.0,0.0,0.0,0.0,0.0,0.0,0.0,-4.0301,-4.0301,-4.0301,-4.0301,-4.0301,-4.0339,0.0,0.0,0.0,0.0,0.0,0.0,0.0,0.0,0.0,0.0,0.0,0.0,0.0,-5.5381,-5.4634,-5.4219,-5.4219,-5.496,-5.5293,-5.5236,-5.4565,-5.4181,-5.4104,-5.3299,-5.2927,-5.2927,-5.2927,-5.2927,0.0,0.0,0.0,0.0,-5.1714,-5.1182,-5.039,-5.0321,-5.0314,-5.0314,-5.0314,-5.0314,-5.0218,-4.9465,-4.9679,-5.0049,-4.8441,-4.7918,-4.7921,-4.7978,-4.7966,-4.8088,-4.8879,-4.8037,-4.7231,-4.8731,-4.864,-4.8557,-5.0063,-4.9177,-4.7991,-4.8009,-4.6637,-4.5429,-4.5495,-4.5504,-4.5522,-4.5603,-4.5612,-4.5651,-4.58,-4.5801,-4.5544,-4.4797,-4.4767,-4.4481,-4.3692,-4.3663,-4.3372,-4.2552,-4.1526,-4.0891,-4.0833,-4.0816,-4.0813,-4.0813,-4.0944,-4.0981,-4.0929,-4.11,-4.1142,-4.1006,-4.1006,-4.1006,-4.1006,-4.1006,-4.1006,-4.1008,0.0,-4.2001,-4.181,-4.1466,-4.1122,0.0,0.0,0.0,0.0,0.0,0.0,0.0,0.0,-4.0301,-4.0301,0.0,0.0,0.0,0.0,0.0,0.0,0.0,0.0,0.0,0.0,0.0,0.0,0.0,-5.5258,-5.3834,-5.3565,-5.3469,-5.3469,-5.3642,-5.3407,-5.2686,-5.3141,-5.3048,-5.2387,-5.2176,-5.2101,-5.2151,-5.212,-5.2101,0.0,0.0,0.0,-5.2644,-5.1909,-5.1522,-5.1289,-5.0639,-5.0412,-5.0438,-5.0438,-5.0438,-5.0429,-5.0238,-4.9874,-4.9318,-4.8303,-4.7546,-4.7126,-4.7798,-4.7989,-4.8015,-4.8227,-4.8469,-4.8787,-4.9161,-4.9133,-4.9287,-5.0312,-4.8748,-4.7213,-4.7856,-4.6666,-4.5495,-4.5568,-4.5577,-4.5601,-4.5727,-4.5749,-4.578,-4.5863,-4.5881,-4.5608,-4.4869,-4.4798,-4.4517,-4.3765,-4.37,-4.3629,-4.34,-4.2549,-4.1735,-4.1072,-4.1023,-4.1031,-4.1037,-4.1064,-4.1087,-4.1126,-4.1171,-4.1171,-4.1147,-4.1147,-4.1147,-4.1147,-4.1147,-4.1147,-4.0301,-4.0301,-4.0301,-4.0301,-4.0301,-4.0301,-4.0301,0.0,0.0,0.0,0.0,0.0,0.0,0.0,0.0,0.0,0.0,0.0,0.0,0.0,0.0,0.0,0.0,0.0,0.0,0.0,0.0,0.0,0.0,-5.4545,-5.3269,-5.2818,-5.2596,-5.2596,-5.226,-5.2172,-5.2436,-5.2496,-5.2305,-5.1844,-5.147,-5.1307,-5.1356,-5.1307,-5.1307,0.0,0.0,0.0,-5.1856,-5.1349,-5.1135,-5.1108,-5.0618,-5.0468,-5.05,-5.05,-5.05,-5.0385,-4.9618,-4.8546,-4.7511,-4.7511,-4.6906,-4.6282,-4.6752,-4.6887,-4.706,-4.7828,-4.8116,-4.8375,-4.9105,-4.9326,-4.9557,-5.0392,-4.8922,-4.7473,-4.7943,-4.6723,-4.5566,-4.5676,-4.5692,-4.5727,-4.5841,-4.5841,-4.5889,-4.5978,-4.5992,-4.587,-4.5532,-4.5499,-4.5336,-4.4932,-4.4899,-4.4727,-4.4321,-4.3858,-4.3215,-4.2353,-4.2299,-4.2106,-4.1717,-4.1698,-4.1543,-4.1211,-4.1191,-4.1191,-4.1191,-4.1191,-4.1191,-4.1191,-4.1191,-4.1191,-4.0301,-4.0301,-4.0301,-4.0301,-4.0301,-4.0301,-4.0301,0.0,0.0,0.0,0.0,0.0,0.0,0.0,0.0,0.0,0.0,0.0,0.0,0.0,0.0,0.0,0.0,0.0,0.0,0.0,0.0,0.0,0.0,-5.3876,-5.2876,-5.2125,-5.1712,-5.1712,-5.1048,-5.1375,-5.2799,-5.2087,-5.1712,-5.1712,-5.1029,-5.0712,-5.0712,-5.0712,-5.0712,-5.0712,0.0,0.0,-5.0603,-5.0593,-5.0562,-5.0492,-5.0357,-5.0406,-5.0513,-5.0378,-5.0417,-5.0282,-4.8594,-4.6993,-4.582,-4.6491,-4.6201,-4.5594,-4.5594,-4.5594,-4.5922,-4.749,-4.7509,-4.7433,-4.8923,-4.9356,-4.9615,-5.0412,-4.925,-4.7969,-4.8103,-4.6821,-4.568,-4.5794,-4.5822,-4.5841,-4.5929,-4.5925,-4.5983,-4.6105,-4.6135,-4.6176,-4.6298,-4.6303,-4.6303,-4.6305,-4.6291,-4.6002,-4.526,-4.5191,-4.4881,-4.4137,-4.3845,-4.3319,-4.244,-4.2285,-4.1894,-4.1211,-4.1191,-4.1191,-4.1191,-4.1191,-4.1191,-4.1191,-4.1191,-4.1191,-4.0301,-4.0301,-4.0301,-4.0301,-4.0301,-4.0301,-4.0301,0.0,0.0,0.0,0.0,0.0,0.0,0.0,0.0,0.0,0.0,0.0,0.0,0.0,0.0,0.0,0.0,0.0,0.0,0.0,0.0,0.0,0.0,0.0,-5.1174,-5.0952,-5.0875,-5.0875,-5.077,-5.0827,-5.1077,-5.0952,-5.0875,-5.0875,-5.077,-5.0712,-5.0712,-5.0712,-5.0712,-5.0702,0.0,-5.0603,-5.0593,-5.0532,-5.0532,-5.0506,-4.9776,-4.996,-5.0586,-4.9836,-5.0048,-5.0413,-4.8702,-4.7472,-4.6596,-4.599,-4.571,-4.5594,-4.5594,-4.5594,-4.5806,-4.6797,-4.749,-4.8135,-4.9135,-4.9385,-4.9625,-5.0481,-4.8887,-4.7372,-4.8106,-4.6997,-4.5856,-4.5872,-4.5878,-4.591,-4.6049,-4.6064,-4.6109,-4.6245,-4.6271,-4.6277,-4.6309,-4.6291,-4.6294,-4.6299,-4.63,-4.6244,-4.611,-4.6091,-4.6034,-4.5918,-4.4512,-4.3301,-4.2441,-4.1758,-4.1328,-4.1191,-4.1191,-4.1191,-4.1191,-4.1191,-4.1191,-4.1191,-4.1191,-4.1191,-3.9765,-3.9965,-4.0203,-3.9762,-3.9983,-4.0318,-4.0355,0.0,0.0,0.0,0.0,0.0,0.0,0.0,0.0,0.0,0.0,0.0,0.0,0.0,0.0,0.0,0.0,0.0,0.0,0.0,0.0,0.0,0.0,0.0,-5.075,-5.0712,-5.0712,-5.0712,-5.0712,-5.0712,-5.0712,-5.0231,-5.0231,-5.0712,-5.0712,-5.0712,-5.0693,-5.0212,-4.999,-4.999,0.0,-4.9682,-4.9279,-4.972,-4.9643,-4.9221,-4.8818,-4.9202,-4.9952,-4.9548,-4.9086,-4.8529,-4.774,-4.6894,-4.6124,-4.5729,-4.5913,-4.6201,-4.5748,-4.622,-4.7028,-4.7451,-4.7817,-4.8298,-4.9163,-4.974,-5.0096,-5.0119,-4.8863,-4.7703,-4.7701,-4.6748,-4.592,-4.5996,-4.6005,-4.6053,-4.6181,-4.6211,-4.6238,-4.6298,-4.6305,-4.6308,-4.6293,-4.6296,-4.6299,-4.6301,-4.6304,-4.6305,-4.6307,-4.6308,-4.6308,-4.6308,-4.5117,-4.4219,-4.3828,-4.2558,-4.1855,-4.1855,-4.1426,-4.1191,-4.1191,-4.1191,-4.1191,-4.1191,-4.1152,-4.1152,-3.9265,-3.9407,-3.9644,-3.9227,0.0,-4.0326,-4.0379,-4.0551,0.0,0.0,0.0,0.0,0.0,0.0,0.0,0.0,0.0,0.0,0.0,0.0,0.0,0.0,0.0,0.0,0.0,0.0,0.0,0.0,0.0,0.0,-5.0423,-5.0404,-5.0308,-5.0087,-5.0087,-5.0087,-5.0087,-4.9433,-4.9644,-5.0712,-5.05,-5.0404,-5.0366,-4.9702,-4.9298,-4.9106,-4.9106,-4.8721,-4.8144,-4.8817,-4.8702,-4.8105,-4.8105,-4.8537,-4.9132,-4.9132,-4.8214,-4.6968,-4.6926,-4.6358,-4.5646,-4.5603,-4.6082,-4.6551,-4.6078,-4.6863,-4.7968,-4.8373,-4.8497,-4.8692,-4.9535,-5.0258,-5.0612,-5.0062,-4.9134,-4.8238,-4.7678,-4.6732,-4.6013,-4.6135,-4.6144,-4.6178,-4.6277,-4.6302,-4.6303,-4.6303,-4.6291,-4.6296,-4.6297,-4.6301,-4.6303,-4.6305,-4.6307,-4.6307,-4.6307,-4.6308,-4.6308,-4.6308,-4.5488,-4.5,-4.5,-4.332,-4.2402,-4.2402,-4.1601,-4.1191,-4.1191,-4.1172,-4.1172,-4.1172,-4.1112,-4.1091,-3.9112,-3.861,-3.8249,-3.8999,-3.9759,0.0,-4.0389,-4.0975,0.0,-4.1595,0.0,0.0,0.0,0.0,0.0,0.0,0.0,0.0,0.0,0.0,0.0,0.0,0.0,0.0,0.0,0.0,0.0,0.0,0.0,0.0,-4.9586,-4.949,-4.9125,-4.8317,-4.8298,-4.8298,-4.8298,-4.8221,-4.9048,-5.0693,-4.9875,-4.949,-4.949,-4.9433,-4.8952,-4.8202,-4.8202,-4.8163,-4.8105,-4.8163,-4.8163,-4.8105,-4.8105,-4.8204,-4.8381,-4.8381,-4.7868,-4.7163,-4.704,-4.6455,-4.5764,-4.5646,-4.5722,-4.6018,-4.6767,-4.7127,-4.7612,-4.9223,-4.9676,-4.9859,-5.0608,-5.084,-5.0898,-5.0901,-4.9766,-4.8666,-4.8596,-4.7365,-4.6273,-4.6277,-4.6296,-4.6298,-4.63,-4.6306,-4.6293,-4.6293,-4.6297,-4.6302,-4.6306,-4.6306,-4.6307,-4.6308,-4.6308,-4.6308,-4.6308,-4.6308,-4.6308,-4.6308,-4.5488,-4.5,-4.5,-4.332,-4.2402,-4.2402,-4.1601,-4.1191,-4.1191,-4.1132,-4.1112,-4.1112,-4.1109,-4.1108,-3.7841,-3.8115,-3.8681,-3.8489,-3.9416,0.0,0.0,-4.1925,-4.2829,-4.1278,-4.2844,0.0,0.0,0.0,0.0,0.0,0.0,0.0,0.0,0.0,0.0,0.0,0.0,0.0,0.0,0.0,0.0,0.0,0.0,0.0,0.0,-4.8586,-4.8432,-4.8105,-4.8105,-4.8105,-4.8105,-4.7605,-4.7952,-4.9086,-4.8759,-4.8586,-4.8567,-4.8067,-4.7682,-4.7346,-4.7346,-4.7048,-4.6586,-4.7124,-4.7071,-4.6723,-4.7316,-4.7249,-4.6874,-4.743,-4.7062,-4.6326,-4.6325,-4.6087,-4.5794,-4.579,-4.6552,-4.7448,-4.7235,-4.8299,-4.959,-4.9757,-5.0159,-5.0614,-5.0888,-5.0953,-5.0733,-4.9795,-4.9519,-4.9032,-4.7532,-4.7166,-4.6944,-4.6417,-4.6305,-4.6308,-4.6308,-4.6295,-4.6299,-4.6299,-4.6303,-4.6306,-4.6307,-4.6308,-4.6308,-4.6308,-4.6308,-4.6308,-4.6308,-4.6308,-4.6308,-4.6308,-4.5996,-4.5801,-4.5801,-4.4121,-4.3203,-4.3202,-4.1855,-4.1132,-4.113,-4.111,-4.1109,-4.1109,-4.1104,-4.1102,-3.6957,-3.749,-3.8335,-3.8077,0.0,0.0,-4.0761,-4.2456,-4.3476,-4.2008,-4.3742,0.0,0.0,0.0,0.0,0.0,0.0,0.0,0.0,0.0,0.0,0.0,0.0,0.0,0.0,0.0,0.0,0.0,0.0,0.0,0.0,-4.7721,-4.7605,-4.7317,-4.7317,-4.7317,-4.7317,-4.6759,-4.6778,-4.7317,-4.7317,-4.7451,-4.7702,-4.7154,-4.6759,-4.649,-4.6532,-4.621,-4.5698,-4.6325,-4.6448,-4.6281,-4.6657,-4.6593,-4.6346,-4.6727,-4.6443,-4.5908,-4.5949,-4.5924,-4.5902,-4.5908,-4.6741,-4.768,-4.7354,-4.8696,-5.0252,-4.9969,-5.0295,-5.0719,-5.0719,-5.0675,-5.0408,-4.9386,-4.9169,-4.8713,-4.7075,-4.6965,-4.7006,-4.6422,-4.6291,-4.6296,-4.6296,-4.6301,-4.6304,-4.6304,-4.6306,-4.6308,-4.6308,-4.6308,-4.6308,-4.6308,-4.6308,-4.6308,-4.6308,-4.6308,-4.6308,-4.6308,-4.6308,-4.6308,-4.6308,-4.4883,-4.3984,-4.3709,-4.2263,-4.1363,-4.1107,-4.1105,-4.1105,-4.1104,-4.1099,-4.1095,-3.6699,-3.6709,-3.6923,0.0,0.0,0.0,-4.1396,-4.2437,-4.3255,-4.4135,0.0,-4.5575,0.0,0.0,0.0,0.0,0.0,0.0,0.0,0.0,0.0,0.0,0.0,0.0,0.0,0.0,0.0,0.0,0.0,0.0,0.0,-4.6885,-4.649,-4.5633,-4.5594,-4.5594,-4.5594,-4.5594,-4.5594,-4.5594,-4.5594,-4.6047,-4.6885,-4.6894,-4.6413,-4.5603,-4.5742,-4.5807,-4.5821,-4.5875,-4.6404,-4.7093,-4.623,-4.6424,-4.7109,-4.636,-4.6102,-4.6098,-4.6102,-4.6102,-4.6087,-4.5959,-4.5992,-4.6277,-4.7134,-4.8059,-4.8974,-4.9831,-5.0085,-5.0085,-5.0085,-4.999,-4.9916,-5.0035,-4.8816,-4.7606,-4.7586,-4.6912,-4.6312,-4.6293,-4.6299,-4.6301,-4.6301,-4.6305,-4.6307,-4.6307,-4.6308,-4.6308,-4.6308,-4.6308,-4.6308,-4.6308,-4.6308,-4.6308,-4.6308,-4.6308,-4.6308,-4.6307,-4.6306,-4.6307,-4.6308,-4.5468,-4.4588,-4.3728,-4.2846,-4.1965,-4.1107,-4.1101,-4.1098,-4.1098,-4.1091,-4.1108,-3.6707,-3.7151,0.0,0.0,0.0,0.0,0.0,-4.2898,0.0,0.0,0.0,0.0,0.0,0.0,0.0,0.0,0.0,0.0,0.0,0.0,0.0,0.0,0.0,0.0,0.0,0.0,0.0,0.0,0.0,0.0,0.0,-4.599,-4.5883,-4.5614,-4.5594,-4.5594,-4.5594,-4.5594,-4.5654,-4.5734,-4.5734,-4.5827,-4.5998,-4.6086,-4.5985,-4.5742,-4.5835,-4.5869,-4.5881,-4.5987,-4.6201,-4.6415,-4.6258,-4.6334,-4.6549,-4.6314,-4.6178,-4.6109,-4.6211,-4.6178,-4.6105,-4.6153,-4.6621,-4.7196,-4.745,-4.8125,-4.8857,-4.9111,-4.9189,-4.919,-4.9196,-4.874,-4.8283,-4.8328,-4.8392,-4.8124,-4.6933,-4.6958,-4.7021,-4.6417,-4.6303,-4.6306,-4.6306,-4.6307,-4.6308,-4.6308,-4.6308,-4.6308,-4.6308,-4.6308,-4.6308,-4.6308,-4.6265,-4.6237,-4.6237,-4.6147,-4.6081,-4.6095,-4.6047,-4.6099,-4.6285,-4.5464,-4.4577,-4.3652,-4.2767,-4.1844,-4.0889,-4.0882,-4.0898,-4.0898,-4.0894,-4.089,-3.6709,0.0,0.0,0.0,0.0,0.0,0.0,0.0,0.0,0.0,0.0,0.0,0.0,0.0,0.0,0.0,0.0,0.0,0.0,0.0,0.0,0.0,0.0,0.0,0.0,0.0,0.0,0.0,0.0,0.0,0.0,-4.5594,-4.5594,-4.5594,-4.5594,-4.5629,-4.5676,-4.568,-4.5737,-4.5828,-4.584,-4.5796,-4.5718,-4.579,-4.5828,-4.5835,-4.5939,-4.6005,-4.608,-4.6144,-4.6178,-4.6181,-4.6271,-4.6271,-4.6238,-4.6275,-4.6214,-4.6112,-4.6247,-4.6245,-4.6184,-4.6273,-4.6651,-4.7081,-4.7081,-4.7668,-4.8316,-4.8316,-4.8317,-4.832,-4.8326,-4.7701,-4.7174,-4.752,-4.7718,-4.7526,-4.6511,-4.6711,-4.6929,-4.6401,-4.6307,-4.6308,-4.6308,-4.6308,-4.6308,-4.6308,-4.6308,-4.6289,-4.6265,-4.6265,-4.6242,-4.6191,-4.6147,-4.6108,-4.6081,-4.6013,-4.5955,-4.5966,-4.5914,-4.5835,-4.5662,-4.516,-4.4443,-4.3539,-4.2652,-4.1743,-4.081,-4.081,-4.081,-4.081,-4.081,-4.081,-3.6788,0.0,0.0,0.0,0.0,0.0,0.0,0.0,0.0,0.0,0.0,0.0,0.0,0.0,0.0,0.0,0.0,0.0,0.0,0.0,0.0,0.0,0.0,0.0,0.0,0.0,0.0,0.0,0.0,0.0,0.0,-4.5372,-4.5411,-4.5488,-4.5488,-4.5583,-4.5793,-4.5802,-4.5834,-4.5894,-4.5905,-4.5929,-4.5925,-4.592,-4.5925,-4.5935,-4.6061,-4.6181,-4.63,-4.63,-4.63,-4.63,-4.63,-4.6236,-4.6138,-4.6267,-4.6216,-4.6138,-4.6269,-4.63,-4.63,-4.6302,-4.6302,-4.6302,-4.6303,-4.6855,-4.7484,-4.7484,-4.7487,-4.7472,-4.7472,-4.6887,-4.6498,-4.7297,-4.6888,-4.6302,-4.6302,-4.6305,-4.6307,-4.6307,-4.6308,-4.6308,-4.6308,-4.6308,-4.6308,-4.6289,-4.6289,-4.6266,-4.6181,-4.6177,-4.6136,-4.5998,-4.5982,-4.597,-4.5909,-4.5896,-4.5881,-4.5876,-4.5871,-4.5511,-4.4694,-4.4701,-4.4248,-4.3297,-4.2486,-4.1655,-4.0762,-4.0762,-4.0762,-4.0762,-4.0762,-4.0762,0.0,-3.8488,0.0,0.0,0.0,0.0,0.0,0.0,0.0,0.0,0.0,0.0,0.0,0.0,0.0,0.0,0.0,0.0,0.0,0.0,0.0,0.0,0.0,0.0,0.0,0.0,0.0,0.0,0.0,0.0,-4.3713,-4.3721,-4.401,-4.4646,-4.4665,-4.499,-4.5712,-4.5764,-4.5834,0.0,-4.601,-4.6086,-4.6138,-4.6086,-4.6102,-4.6214,-4.6245,-4.6273,-4.63,-4.63,-4.63,-4.63,-4.63,-4.6277,-4.6269,-4.6298,-4.6275,-4.6269,-4.6298,-4.63,-4.6302,-4.6308,-4.6291,-4.6291,-4.6296,-4.6435,-4.6573,-4.6573,-4.6574,-4.6576,-4.6579,-4.6442,-4.6345,-4.6542,-4.6444,-4.6306,-4.6306,-4.6308,-4.6308,-4.6308,-4.6308,-4.6308,-4.6308,-4.6308,-4.6288,-4.6237,-4.6213,-4.6179,-4.6053,-4.6043,-4.601,-4.5931,-4.5876,-4.5842,-4.5811,-4.5769,-4.5742,-4.5734,-4.5677,-4.5275,-4.4411,-4.4593,-4.3936,-4.2329,-4.2129,-4.1551,-4.0554,-4.0554,-4.0554,-4.0554,-4.0554,-4.0559,0.0,0.0,0.0,0.0,0.0,0.0,0.0,0.0,0.0,0.0,0.0,0.0,0.0,0.0,0.0,0.0,0.0,0.0,0.0,0.0,0.0,0.0,0.0,0.0,0.0,0.0,0.0,0.0,0.0,-4.3162,-4.3204,-4.3204,-4.3397,-4.3821,-4.384,-4.4068,-4.4594,-4.5048,-4.5341,-4.5468,-4.595,-4.6204,-4.6253,-4.6208,-4.6232,-4.63,-4.63,-4.63,-4.63,-4.63,-4.63,-4.63,-4.63,-4.63,-4.63,-4.63,-4.63,-4.6302,-4.6305,-4.6306,-4.6308,-4.6295,-4.6297,-4.6299,-4.6301,-4.6303,-4.6305,-4.6305,-4.6306,-4.6307,-4.6308,-4.6308,-4.6308,-4.6308,-4.6308,-4.6308,-4.6308,-4.6308,-4.6308,-4.6308,-4.6308,-4.6308,-4.6308,-4.6268,-4.6216,-4.6111,-4.61,-4.6053,-4.5925,-4.5906,-4.5875,-4.5808,-4.5769,-4.5733,-4.5718,-4.5676,-4.5648,-4.5648,-4.5238,-4.4605,-4.3758,-4.3448,-4.2866,-4.1914,-4.1489,-4.1029,-4.0496,-4.0496,-4.05,-4.0503,-4.0503,-4.0471,0.0,0.0,0.0,0.0,0.0,0.0,0.0,0.0,0.0,0.0,0.0,0.0,0.0,0.0,0.0,0.0,0.0,0.0,0.0,0.0,0.0,0.0,0.0,0.0,0.0,0.0,0.0,0.0,0.0,-4.2775,-4.2802,-4.2782,-4.2847,-4.3011,-4.3011,-4.3136,-4.3416,-4.4136,-4.4582,-4.4749,-4.5481,-4.5912,-4.6082,-4.6082,-4.6155,-4.63,-4.63,-4.63,-4.63,-4.63,-4.63,-4.63,-4.6302,-4.6303,-4.6303,-4.6305,-4.6305,-4.6306,-4.6293,-4.6295,-4.6295,-4.6301,-4.6303,-4.6303,-4.6304,-4.6306,-4.6307,-4.6307,-4.6308,-4.6308,-4.6308,-4.6308,-4.6308,-4.6308,-4.6308,-4.6308,-4.6308,-4.6308,-4.6308,-4.6308,-4.6289,-4.6288,-4.6246,-4.6191,-4.6128,-4.5982,-4.5966,-4.592,-4.5809,-4.579,-4.5768,-4.569,-4.5693,-4.5657,-4.5594,-4.5594,-4.5537,-4.5383,-4.4701,-4.3874,-4.2912,-4.2173,-4.1723,-4.1588,-4.0865,-4.05,-4.0473,-4.0473,-4.0468,-4.0474,-4.0474,-4.0441,0.0,0.0,0.0,0.0,0.0,0.0,0.0,0.0,0.0,0.0,0.0,0.0,0.0,0.0,0.0,0.0,0.0,0.0,0.0,0.0,0.0,0.0,0.0,0.0,0.0,0.0,0.0,0.0,-4.1459,-4.1055,-4.1126,-4.1126,-4.1466,-4.2221,-4.2246,-4.2651,-4.349,-4.3668,-4.3734,-4.3695,-4.3884,-4.438,-4.5173,-4.5173,-4.5597,-4.63,-4.63,-4.63,-4.63,-4.63,-4.63,-4.6302,-4.6308,-4.6291,-4.6293,-4.6297,-4.63,-4.63,-4.6301,-4.6301,-4.6301,-4.6305,-4.6306,-4.6307,-4.6308,-4.6308,-4.6308,-4.6308,-4.6308,-4.6308,-4.6308,-4.6308,-4.6308,-4.6308,-4.6308,-4.6308,-4.6308,-4.6308,-4.6308,-4.6308,-4.6244,-4.6177,-4.606,-4.604,-4.5978,-4.5847,-4.5825,-4.5803,-4.5715,-4.5703,-4.5698,-4.5631,-4.5603,-4.5622,-4.5594,-4.5594,-4.5287,-4.4509,-4.4355,-4.3605,-4.2038,-4.1822,-4.1393,-4.0683,-4.0567,-4.0474,-4.0405,-4.0405,-4.0405,-4.0415,-4.0415,-4.0379,-3.718,0.0,0.0,0.0,0.0,0.0,0.0,0.0,0.0,0.0,0.0,0.0,0.0,0.0,0.0,0.0,0.0,0.0,0.0,0.0,0.0,0.0,0.0,0.0,0.0,0.0,0.0,0.0,-4.1007,-4.0821,-4.0856,-4.0893,-4.1099,-4.1463,-4.1486,-4.1698,-4.2149,-4.2621,-4.3116,-4.3603,-4.3637,-4.3879,-4.4273,-4.4273,-4.5012,-4.6294,-4.6294,-4.6294,-4.6294,-4.6294,-4.6294,-4.6294,-4.6297,-4.6299,-4.6299,-4.6301,-4.6301,-4.6302,-4.6305,-4.6305,-4.6305,-4.6308,-4.6308,-4.6308,-4.6308,-4.6308,-4.6308,-4.6308,-4.6308,-4.6308,-4.6308,-4.6308,-4.6308,-4.6308,-4.6267,-4.6241,-4.6241,-4.6241,-4.6217,-4.6154,-4.6108,-4.6043,-4.5915,-4.589,-4.5861,-4.5766,-4.5737,-4.5719,-4.5657,-4.564,-4.5631,-4.5594,-4.5171,-4.5075,-4.5556,-4.4748,-4.4231,-4.4301,-4.3378,-4.2505,-4.178,-4.1244,-4.0797,-4.0407,-4.0432,-4.0432,-4.0407,-4.0407,-4.0379,-4.0334,-4.0334,-4.0326,0.0,0.0,0.0,0.0,0.0,0.0,0.0,0.0,0.0,0.0,0.0,0.0,0.0,0.0,0.0,0.0,0.0,0.0,0.0,0.0,0.0,0.0,0.0,0.0,0.0,0.0,0.0,0.0,-4.0903,-4.0924,-4.0924,-4.0963,-4.1019,-4.1017,-4.1037,-4.1061,-4.112,-4.1725,-4.2375,-4.3065,-4.3065,-4.3162,-4.3374,-4.3374,-4.4195,-4.5641,-4.5638,-4.5755,-4.5969,-4.5969,-4.6106,-4.6301,-4.6303,-4.6303,-4.6303,-4.6305,-4.6305,-4.6305,-4.6307,-4.6307,-4.6308,-4.6308,-4.6308,-4.6308,-4.6308,-4.6308,-4.6308,-4.6308,-4.6308,-4.6308,-4.6308,-4.6308,-4.6308,-4.6288,-4.6218,-4.6177,-4.6169,-4.6165,-4.6106,-4.5998,-4.5953,-4.5911,-4.5796,-4.5764,-4.5754,-4.5671,-4.5665,-4.5648,-4.5614,-4.5421,-4.5267,-4.5267,-4.4489,-4.4259,-4.4885,-4.3788,-4.3244,-4.3623,-4.2424,-4.1601,-4.1374,-4.0724,-4.0362,-4.0307,-4.0344,-4.0372,-4.0372,-4.0372,-4.0354,-4.0308,-4.0308,-4.03,0.0,0.0,0.0,0.0,0.0,0.0,0.0,0.0,0.0,0.0,0.0,0.0,0.0,0.0,0.0,0.0,0.0,0.0,0.0,0.0,0.0,0.0,0.0,0.0,0.0,0.0,0.0,0.0,-4.0984,-4.0987,-4.0987,-4.101,-4.1039,-4.1085,-4.1087,-4.1139,-4.1191,-4.123,-4.1289,-4.1328,-4.1328,-4.1738,-4.2461,-4.2461,-4.2969,-4.3848,-4.3844,-4.4309,-4.5071,-4.5071,-4.5559,-4.6302,-4.6306,-4.6307,-4.6307,-4.6308,-4.6308,-4.6308,-4.6308,-4.6308,-4.6308,-4.6308,-4.6308,-4.6308,-4.6308,-4.6308,-4.6308,-4.6308,-4.6308,-4.6308,-4.6308,-4.6308,-4.6288,-4.6213,-4.6158,-4.6101,-4.6115,-4.6052,-4.5994,-4.5908,-4.5844,-4.579,-4.5719,-4.5717,-4.5682,-4.5622,-4.5614,-4.5594,-4.5594,-4.4874,-4.4374,-4.4374,-4.3643,-4.3165,-4.3131,-4.3054,-4.2663,-4.1881,-4.1747,-4.1336,-4.0503,-4.0372,-4.0307,-4.0307,-4.03,-4.031,-4.031,-4.031,-4.0291,-4.031,-4.031,-4.031,0.0,0.0,0.0,0.0,0.0,0.0,0.0,0.0,0.0,0.0,0.0,0.0,0.0,0.0,0.0,0.0,0.0,0.0,0.0,0.0,0.0,0.0,0.0,0.0,0.0,0.0,0.0,0.0,0.0,-4.1068,-4.1068,-4.1091,-4.1143,-4.1169,-4.1169,-4.117,-4.1191,-4.1191,-4.1191,-4.1191,-4.1191,-4.1348,-4.1621,-4.1621,-4.1797,-4.2109,-4.2109,-4.3202,-4.4999,-4.4999,-4.5507,-4.6308,-4.6308,-4.6308,-4.6308,-4.6308,-4.6308,-4.6308,-4.6308,-4.6308,-4.6308,-4.6308,-4.6308,-4.6308,-4.6308,-4.6308,-4.6308,-4.6308,-4.6267,-4.6239,-4.6239,-4.6161,-4.6078,-4.597,-4.592,-4.5906,-4.5853,-4.5863,-4.585,-4.5773,-4.5742,-4.5704,-4.5657,-4.564,-4.5631,-4.5594,-4.5133,-4.4759,-4.4759,-4.4047,-4.3528,-4.3528,-4.2733,-4.2428,-4.2958,-4.1974,-4.1651,-4.2364,-4.1406,-4.089,-4.1112,-4.0596,-4.0215,-4.0049,-4.0048,-4.0118,-4.0301,-4.0301,-4.0301,-4.0301,-4.0301,-4.0215,-3.63,0.0,0.0,0.0,0.0,0.0,0.0,0.0,0.0,0.0,0.0,0.0,0.0,0.0,0.0,0.0,0.0,0.0,0.0,0.0,0.0,0.0,0.0,0.0,0.0,0.0,0.0,0.0,0.0,0.0,-4.1122,-4.117,-4.1191,-4.1191,-4.1191,-4.1191,-4.1191,-4.1191,-4.1191,-4.1191,-4.1191,-4.1191,-4.1191,-4.1191,-4.1191,-4.1191,-4.1191,-4.2305,-4.4121,-4.4121,-4.4648,-4.5469,-4.5742,-4.5859,-4.5898,-4.6191,-4.6308,-4.6308,-4.6308,-4.6308,-4.6308,-4.6308,-4.6308,-4.6308,-4.6308,-4.6268,-4.6226,-4.6226,-4.6167,-4.6108,-4.6108,-4.6013,-4.5911,-4.582,-4.5777,-4.5754,-4.5673,-4.5723,-4.5747,-4.5706,-4.5684,-4.5648,-4.5614,-4.5594,-4.5498,-4.521,-4.4662,-4.4201,-4.3932,-4.3181,-4.2654,-4.2626,-4.1833,-4.1511,-4.2042,-4.1288,-4.1244,-4.2298,-4.1495,-4.1102,-4.1358,-4.0771,-4.0228,-3.9762,-3.9762,-3.9829,-3.9967,-4.0007,-4.0036,-4.0036,-3.9996,-3.9862,0.0,0.0,0.0,0.0,0.0,0.0,0.0,0.0,0.0,0.0,0.0,0.0,0.0,0.0,0.0,0.0,0.0,0.0,0.0,0.0,0.0,0.0,0.0,0.0,0.0,0.0,0.0,0.0,-4.1191,-4.1191,-4.1191,-4.1191,-4.1191,-4.1191,-4.1191,-4.1191,-4.1191,-4.1191,-4.1191,-4.1191,-4.1191,-4.1191,-4.1191,-4.1191,-4.1191,-4.1191,-4.1191,-4.1641,-4.2363,-4.2383,-4.291,-4.3789,-4.4668,-4.5,-4.5117,-4.5976,-4.6308,-4.6308,-4.6308,-4.6308,-4.6308,-4.6308,-4.6308,-4.6289,-4.6289,-4.62,-4.6087,-4.6087,-4.5995,-4.5894,-4.589,-4.5855,-4.5796,-4.5783,-4.5742,-4.5684,-4.5603,-4.5648,-4.5701,-4.5701,-4.564,-4.5594,-4.5575,-4.5556,-4.5267,-4.4393,-4.4239,-4.3932,-4.3162,-4.2297,-4.1734,-4.1662,-4.0962,-4.0441,-4.0307,-4.1092,-4.1571,-4.1504,-4.1974,-4.1908,-4.1143,-4.0828,-4.0284,-3.9489,-3.9471,-3.9414,-3.9288,-3.9427,-3.9483,-3.9483,-3.9358,-3.9244,-3.5799,0.0,0.0,0.0,0.0,0.0,0.0,0.0,0.0,0.0,0.0,0.0,0.0,0.0,0.0,0.0,0.0,0.0,0.0,0.0,0.0,0.0,0.0,0.0,0.0,0.0,0.0,0.0,-4.1191,-4.1191,-4.1191,-4.1191,-4.1191,-4.1191,-4.1191,-4.1191,-4.1191,-4.1191,-4.1191,-4.1191,-4.1191,-4.1191,-4.1191,-4.1191,-4.1191,-4.1191,-4.1191,-4.1328,-4.1582,-4.2168,-4.291,-4.3789,-4.4668,-4.5,-4.5117,-4.5976,-4.6308,-4.6308,-4.6308,-4.6308,-4.6308,-4.6308,-4.6223,-4.6168,-4.6161,-4.6064,-4.5963,-4.5963,-4.5896,-4.5819,-4.5775,-4.5742,-4.5715,-4.5676,-4.5646,-4.5631,-4.5594,-4.5603,-4.5631,-4.5631,-4.5603,-4.5402,-4.4759,-4.4662,-4.4374,-4.3566,-4.2893,-4.2412,-4.22,-4.1399,-4.0844,-4.0828,-4.0539,-4.0261,-4.0022,-4.0779,-4.1393,-4.1767,-4.1387,-4.1299,-4.1663,-4.0497,-3.9639,-3.9205,-3.9114,-3.8957,-3.8715,-3.9144,-3.9327,-3.9275,-3.9054,-3.9036,0.0,0.0,0.0,0.0,0.0,0.0,-3.5816,-3.6439,0.0,0.0,0.0,0.0,0.0,0.0,0.0,0.0,0.0,0.0,0.0,0.0,0.0,0.0,0.0,0.0,0.0,-4.1191,-4.1191,-4.1191,-4.1191,-4.1191,-4.1191,-4.1191,-4.1191,-4.1191,-4.1191,-4.1191,-4.1191,-4.1191,-4.1191,-4.1191,-4.1191,-4.1191,-4.1191,-4.1191,-4.1191,-4.1191,-4.1191,-4.1191,-4.123,-4.1719,-4.2207,-4.2734,-4.3594,-4.4141,-4.4551,-4.5449,-4.5996,-4.6308,-4.6308,-4.6268,-4.6222,-4.6219,-4.6134,-4.6024,-4.6014,-4.5946,-4.5861,-4.5861,-4.5783,-4.5711,-4.5671,-4.5657,-4.5648,-4.5622,-4.5594,-4.5594,-4.5594,-4.5594,-4.5594,-4.5594,-4.5306,-4.4893,-4.4393,-4.4028,-4.3528,-4.2681,-4.2107,-4.1638,-4.1303,-4.0684,-4.0279,-4.0252,-4.0081,-3.9891,-3.9747,-4.0476,-4.1072,-4.1386,-4.1167,-4.1081,-4.1239,-4.0198,-3.9379,-3.8873,-3.8748,-3.8597,-3.8417,-3.8759,-3.89,-3.8814,-3.8673,-3.8658,0.0,0.0,0.0,0.0,0.0,0.0,-3.6061,-3.6538,-3.6764,0.0,0.0,0.0,0.0,0.0,0.0,0.0,0.0,0.0,0.0,0.0,0.0,0.0,0.0,0.0,-4.082,-4.0996,-4.1055,-4.1055,-4.1152,-4.1191,-4.1191,-4.1191,-4.1191,-4.1191,-4.1191,-4.1191,-4.1191,-4.1191,-4.1191,-4.1191,-4.1191,-4.1191,-4.1191,-4.1191,-4.1191,-4.1191,-4.1191,-4.1191,-4.1191,-4.1191,-4.1191,-4.1289,-4.209,-4.2871,-4.3652,-4.4531,-4.5331,-4.6015,-4.6092,-4.6039,-4.5963,-4.6058,-4.5985,-4.59,-4.5896,-4.5842,-4.5769,-4.5769,-4.5685,-4.5594,-4.5594,-4.5594,-4.5594,-4.5594,-4.5594,-4.5594,-4.5594,-4.5518,-4.546,-4.546,-4.4836,-4.4239,-4.4047,-4.3431,-4.2654,-4.1788,-4.1566,-4.1255,-4.0545,-4.0148,-3.9922,-3.987,-3.9641,-3.9494,-3.9458,-4.0177,-4.0646,-4.0607,-4.1054,-4.1004,-4.0265,-3.9868,-3.9296,-3.8494,-3.8415,-3.8352,-3.829,-3.8336,-3.8354,-3.829,-3.829,-3.8257,0.0,0.0,0.0,0.0,0.0,0.0,-3.7029,-3.6619,-3.6169,0.0,0.0,0.0,0.0,0.0,0.0,0.0,0.0,0.0,0.0,0.0,0.0,0.0,0.0,0.0,-3.9023,-3.9746,-4.0156,-4.0156,-4.0801,-4.1171,-4.1129,-4.1171,-4.1172,-4.1112,-4.1112,-4.1152,-4.1191,-4.1152,-4.1152,-4.1191,-4.1191,-4.1191,-4.1191,-4.1191,-4.1172,-4.1112,-4.1112,-4.1111,-4.1129,-4.1129,-4.1151,-4.1289,-4.209,-4.25,-4.2752,-4.3577,-4.3977,-4.42,-4.4818,-4.5,-4.5079,-4.5737,-4.5876,-4.5828,-4.5816,-4.5737,-4.5643,-4.5643,-4.5629,-4.5594,-4.5594,-4.5594,-4.5594,-4.5594,-4.5594,-4.5594,-4.5594,-4.5056,-4.4547,-4.4547,-4.4412,-4.3874,-4.2527,-4.2118,-4.1709,-4.0883,-4.0508,-4.0282,-4.012,-3.9797,-3.9587,-3.9595,-3.9519,-3.9408,-3.9192,-3.9909,-4.0294,-4.0062,-4.0151,-4.0126,-3.99,-3.9161,-3.8643,-3.8415,-3.8336,-3.829,-3.8225,-3.8224,-3.8224,-3.8225,-3.8225,-3.8225,0.0,0.0,0.0,-3.8593,0.0,0.0,0.0,-3.6953,-3.6523,0.0,0.0,0.0,0.0,0.0,0.0,0.0,0.0,0.0,0.0,0.0,0.0,0.0,0.0,0.0,-3.8516,-3.9394,-4.0077,-4.0467,-4.0897,-4.113,-4.1108,-4.113,-4.1131,-4.111,-4.111,-4.111,-4.1151,-4.111,-4.111,-4.1151,-4.1151,-4.1151,-4.1151,-4.1151,-4.1131,-4.111,-4.111,-4.1108,-4.1107,-4.1056,-4.1074,-4.1139,-4.1549,-4.1976,-4.238,-4.2729,-4.3133,-4.3552,-4.3923,-4.4005,-4.4024,-4.4416,-4.4776,-4.5055,-4.5059,-4.5316,-4.5594,-4.5594,-4.5594,-4.5594,-4.5594,-4.5594,-4.5498,-4.5056,-4.5287,-4.5364,-4.4528,-4.4335,-4.4002,-4.3004,-4.2804,-4.2535,-4.1711,-4.1149,-4.0664,-4.0138,-3.988,-3.9754,-3.9754,-3.9494,-3.9313,-3.9313,-3.9173,-3.9045,-3.8906,-3.9261,-3.9426,-3.931,-3.9245,-3.9198,-3.915,-3.8668,-3.8368,-3.8305,-3.8274,-3.8224,-3.8209,-3.8209,-3.8209,-3.8209,-3.8209,-3.8209,0.0,0.0,0.0,0.0,0.0,-3.8672,0.0,0.0,0.0,0.0,0.0,0.0,0.0,0.0,0.0,0.0,0.0,0.0,0.0,0.0,0.0,0.0,0.0,0.0,0.0,-3.8884,-3.9818,-4.0794,-4.0873,-4.093,-4.1085,-4.1106,-4.1107,-4.1106,-4.1106,-4.1106,-4.1107,-4.1106,-4.1106,-4.1107,-4.1107,-4.1107,-4.1107,-4.1107,-4.1086,-4.1081,-4.1081,-4.1077,-4.1049,-4.0976,-4.0959,-4.0959,-4.0964,-4.1395,-4.1992,-4.1879,-4.2274,-4.2896,-4.3034,-4.3025,-4.297,-4.3124,-4.3573,-4.4066,-4.4066,-4.4662,-4.5344,-4.5344,-4.5344,-4.5383,-4.5556,-4.5364,-4.4979,-4.4432,-4.4836,-4.4914,-4.3342,-4.3497,-4.3406,-4.1578,-4.1078,-4.0954,-4.0964,-4.039,-3.9829,-3.9611,-3.95,-3.9414,-3.9414,-3.9187,-3.9017,-3.9017,-3.8822,-3.8707,-3.8707,-3.8692,-3.8658,-3.8658,-3.8544,-3.8478,-3.8462,-3.8338,-3.8257,-3.8209,-3.8209,-3.8209,-3.8209,-3.8209,-3.8209,-3.8209,-3.8174,-3.8105,0.0,0.0,0.0,0.0,-4.0312,0.0,0.0,0.0,-3.8203,-3.7324,0.0,0.0,0.0,0.0,0.0,0.0,0.0,0.0,0.0,0.0,0.0,0.0,0.0,0.0,0.0,-3.7085,-3.8275,-3.991,-4.0031,-4.0342,-4.1054,-4.1102,-4.1105,-4.11,-4.1099,-4.1102,-4.1107,-4.1102,-4.1102,-4.1107,-4.1107,-4.1107,-4.1107,-4.1107,-4.1073,-4.1011,-4.1011,-4.0932,-4.0831,-4.0837,-4.0814,-4.0818,-4.0821,-4.0883,-4.0956,-4.0886,-4.0928,-4.1105,-4.1745,-4.1967,-4.2079,-4.2856,-4.3168,-4.3239,-4.3239,-4.3797,-4.4451,-4.4451,-4.4451,-4.4624,-4.5402,-4.4489,-4.3547,-4.4143,-4.4387,-4.4123,-4.2919,-4.2686,-4.2354,-4.1173,-4.0264,-3.972,-3.9777,-3.9656,-3.9559,-3.9524,-3.9294,-3.9137,-3.9137,-3.8906,-3.8735,-3.8735,-3.8723,-3.8707,-3.8707,-3.859,-3.8525,-3.8525,-3.8446,-3.8385,-3.834,-3.8241,-3.8209,-3.8209,-3.8209,-3.8209,-3.8209,-3.8209,-3.8209,-3.8209,-3.8088,-3.7791,0.0,0.0,0.0,0.0,0.0,0.0,-4.0019,0.0,-3.9101,0.0,0.0,0.0,0.0,0.0,0.0,0.0,0.0,0.0,0.0,0.0,0.0,0.0,0.0,0.0,0.0,0.0,0.0,0.0,-3.9574,-3.9983,-4.0327,-4.0822,-4.1097,-4.1094,-4.1094,-4.1095,-4.1098,-4.1095,-4.1085,-4.1046,-4.1046,-4.0991,-4.0922,-4.0922,-4.0899,-4.0883,-4.0883,-4.0855,-4.0806,-4.0765,-4.0738,-4.0732,-4.0666,-4.0665,-4.0724,-4.063,-4.0588,-4.0624,-4.0935,-4.1046,-4.1181,-4.2066,-4.2354,-4.245,-4.2951,-4.3335,-4.3605,-4.3605,-4.3568,-4.3628,-4.4002,-4.3415,-4.2709,-4.2594,-4.2801,-4.2637,-4.1179,-4.1241,-4.1233,-4.0084,-3.9551,-3.9236,-3.91,-3.9181,-3.9227,-3.905,-3.8931,-3.8866,-3.8866,-3.8765,-3.8707,-3.8707,-3.8707,-3.8658,-3.859,-3.8525,-3.8494,-3.8446,-3.8385,-3.8305,-3.8241,-3.8225,-3.8209,-3.8209,-3.8209,-3.8037,-3.7685,-3.7685,-3.7523,-3.721,-3.7487,-3.7323,-4.1191,0.0,0.0,0.0,0.0,0.0,0.0,0.0,0.0,0.0,0.0,0.0,0.0,0.0,0.0,0.0,0.0,0.0,0.0,0.0,0.0,0.0,0.0,0.0,0.0,0.0,0.0,-3.8128,-3.8703,-3.9252,-3.9779,-4.0377,-4.0822,-4.1074,-4.1074,-4.1048,-4.1015,-4.1015,-4.0995,-4.0944,-4.0944,-4.0894,-4.081,-4.081,-4.0796,-4.0766,-4.0766,-4.0751,-4.0713,-4.0662,-4.0642,-4.0629,-4.0542,-4.0564,-4.0629,-4.0542,-4.0496,-4.0496,-4.0496,-4.0496,-4.0593,-4.1239,-4.145,-4.1566,-4.22,-4.2538,-4.2722,-4.2722,-4.2625,-4.2592,-4.2822,-4.2296,-4.1621,-4.1279,-4.1457,-4.1323,-3.9794,-4.0139,-4.0396,-3.9217,-3.8985,-3.8937,-3.8735,-3.8866,-3.8921,-3.8738,-3.8707,-3.8707,-3.8707,-3.8707,-3.8692,-3.8658,-3.8658,-3.8609,-3.8478,-3.8446,-3.8417,-3.8352,-3.8289,-3.8241,-3.8209,-3.8089,-3.802,-3.802,-3.7898,-3.7614,-3.7136,-3.7136,-3.6849,-3.6305,-3.681,-3.677,0.0,0.0,0.0,-4.1191,0.0,0.0,0.0,0.0,-4.0918,0.0,0.0,0.0,0.0,0.0,0.0,0.0,0.0,0.0,0.0,0.0,0.0,0.0,0.0,0.0,0.0,0.0,0.0,-3.7074,-3.7101,-3.7887,-3.9699,-3.9767,-4.0129,-4.0974,-4.0994,-4.0944,-4.08,-4.082,-4.0815,-4.0815,-4.0815,-4.0791,-4.081,-4.081,-4.0756,-4.07,-4.07,-4.0629,-4.0512,-4.0504,-4.0504,-4.0504,-4.0496,-4.0496,-4.0504,-4.0496,-4.0496,-4.0496,-4.0496,-4.0496,-4.0496,-4.0535,-4.0535,-4.0554,-4.0573,-4.1138,-4.1739,-4.1739,-4.1552,-4.1527,-4.2299,-4.11,-3.9905,-4.0722,-4.087,-4.0522,-3.9378,-3.9742,-4.0006,-3.8927,-3.8704,-3.8704,-3.8707,-3.8707,-3.8707,-3.8707,-3.8707,-3.8707,-3.8707,-3.8707,-3.8658,-3.8525,-3.851,-3.8478,-3.8415,-3.8354,-3.8274,-3.8225,-3.8209,-3.8209,-3.8209,-3.7756,-3.7523,-3.7523,-3.7151,-3.6862,-3.6726,-3.6726,-3.6385,-3.5742,-3.6215,-3.6194,0.0,0.0,-4.1191,-4.1191,0.0,0.0,0.0,0.0,0.0,0.0,0.0,0.0,0.0,0.0,0.0,0.0,0.0,0.0,0.0,0.0,0.0,0.0,0.0,0.0,0.0,0.0,0.0,-3.6149,-3.6693,-3.7522,-3.8741,-3.9322,-4.0007,-4.0835,-4.0874,-4.0842,-4.081,-4.081,-4.0776,-4.0721,-4.0721,-4.0699,-4.059,-4.059,-4.0582,-4.0579,-4.0579,-4.0542,-4.0496,-4.0496,-4.0496,-4.0496,-4.0496,-4.0496,-4.0496,-4.0496,-4.0496,-4.0496,-4.0496,-4.0492,-4.0507,-4.0507,-4.0463,-4.0438,-4.0438,-4.0497,-4.0559,-4.0559,-4.0351,-4.0178,-4.0443,-3.9908,-3.9349,-3.9629,-3.956,-3.9289,-3.8914,-3.9036,-3.912,-3.8759,-3.8707,-3.8707,-3.8707,-3.8624,-3.8609,-3.8692,-3.8624,-3.8575,-3.8575,-3.8528,-3.8481,-3.843,-3.843,-3.8417,-3.8338,-3.8274,-3.8088,-3.7756,-3.7739,-3.7632,-3.7339,-3.7095,-3.6962,-3.6962,-3.6748,-3.6446,-3.6028,-3.6028,-3.5742,-3.5178,-3.5322,-3.5322,-4.1191,-4.1191,0.0,-4.1172,-4.1152,0.0,-4.1152,0.0,0.0,0.0,0.0,0.0,0.0,0.0,0.0,0.0,0.0,0.0,0.0,-3.559,0.0,0.0,0.0,0.0,0.0,0.0,-3.5645,-3.5664,-3.6164,-3.6876,0.0,0.0,-3.9156,-4.0271,-4.031,-4.0424,-4.069,-4.069,-4.0674,-4.0622,-4.0622,-4.0574,-4.0496,-4.0496,-4.0496,-4.0496,-4.0496,-4.0496,-4.0496,-4.0496,-4.0496,-4.0496,-4.0496,-4.0496,-4.0496,-4.0496,-4.0508,-4.0503,-4.0468,-4.0463,-4.0458,-4.0458,-4.037,-4.0252,-4.0252,-4.0042,-3.9819,-3.9819,-3.9595,-3.9358,-3.9358,-3.916,-3.8964,-3.8964,-3.884,-3.8707,-3.8707,-3.8707,-3.8707,-3.8707,-3.8658,-3.8624,-3.8624,-3.8544,-3.8494,-3.8609,-3.8544,-3.8462,-3.8462,-3.843,-3.8382,-3.8368,-3.8368,-3.8271,-3.8035,-3.7845,-3.7613,-3.7302,-3.7302,-3.7133,-3.6843,-3.6603,-3.6602,-3.6801,-3.631,-3.601,-3.5869,-3.5622,-3.5276,-3.4899,-3.4899,-3.4899]},{"header":{"parameterUnit":"m.s-1","parameterCategory":1,"la1":30.6,"la2":29.2853,"lo1":-89.7004,"lo2":-87.6739,"dy":0.0162,"dx":0.0183,"nx":112,"ny":82,"refTime":"2023-08-17T12:00:00:Z","depth":0,"parameterNumber":3,"parameterNumberName":"V-component_of_WINDS"},"data":[0.0,0.0,0.0,0.0,0.0,0.0,0.0,0.0,0.0,0.0,0.0,0.0,0.0,0.0,0.0,0.0,0.0,0.0,0.0,0.0,0.0,0.0,0.0,0.0,0.0,0.0,0.0,0.0,0.0,0.0,0.0,0.0,0.0,0.0,0.0,0.0,0.0,0.0,0.0,0.0,0.0,0.0,0.0,0.0,0.0,0.0,0.0,0.0,0.0,0.0,0.0,0.0,0.0,0.0,0.0,0.0,0.0,0.0,0.0,0.0,0.0,0.0,0.0,0.0,0.0,0.0,0.0,0.0,0.0,0.0,0.0,0.0,0.0,0.0,0.0,0.0,0.0,0.0,0.0,0.0,0.0,0.0,0.0,0.0,0.0,0.0,0.0,0.0,0.0,0.0,-1.096,-1.1901,-1.2914,-1.3228,-1.2543,-1.2397,-1.1771,-1.0408,0.0,0.0,0.0,0.0,0.0,0.0,0.0,0.0,0.0,0.0,0.0,0.0,0.0,0.0,0.0,0.0,0.0,0.0,0.0,0.0,0.0,0.0,0.0,0.0,0.0,0.0,0.0,0.0,0.0,0.0,0.0,0.0,0.0,0.0,0.0,0.0,0.0,0.0,0.0,0.0,0.0,0.0,0.0,0.0,0.0,0.0,0.0,0.0,0.0,0.0,0.0,0.0,0.0,0.0,0.0,0.0,0.0,0.0,0.0,0.0,0.0,0.0,0.0,0.0,0.0,0.0,0.0,0.0,0.0,0.0,0.0,0.0,0.0,0.0,0.0,0.0,0.0,0.0,0.0,0.0,0.0,0.0,0.0,0.0,0.0,0.0,0.0,0.0,0.0,0.0,0.0,0.0,0.0,0.0,0.0,0.0,0.0,0.0,0.0,0.0,0.0,0.0,0.0,0.0,-1.096,-1.1901,-1.2914,-1.3228,-1.2543,-1.2021,-1.1269,-1.0133,0.0,0.0,0.0,0.0,0.0,0.0,0.0,0.0,0.0,0.0,0.0,0.0,0.0,0.0,0.0,0.0,0.0,0.0,0.0,0.0,0.0,0.0,0.0,0.0,0.0,0.0,0.0,0.0,0.0,0.0,0.0,0.0,0.0,0.0,0.0,0.0,0.0,0.0,0.0,0.0,0.0,0.0,0.0,0.0,0.0,0.0,0.0,0.0,0.0,0.0,0.0,0.0,0.0,0.0,0.0,0.0,0.0,0.0,0.0,0.0,0.0,0.0,0.0,0.0,0.0,0.0,0.0,0.0,0.0,0.0,0.0,0.0,0.0,0.0,0.0,0.0,0.0,0.0,0.0,0.0,0.0,0.0,0.0,0.0,0.0,0.0,0.0,0.0,0.0,0.0,0.0,0.0,0.0,0.0,0.0,0.0,0.0,0.0,0.0,0.0,0.0,0.0,0.0,-1.0726,-1.1348,-1.1937,-1.2914,-1.3228,-1.2543,-1.1965,-1.1198,-1.0271,-0.9987,0.0,0.0,0.0,0.0,0.0,0.0,0.0,0.0,0.0,0.0,0.0,0.0,0.0,0.0,0.0,0.0,0.0,0.0,0.0,0.0,0.0,0.0,0.0,0.0,0.0,0.0,0.0,0.0,0.0,0.0,0.0,0.0,0.0,0.0,0.0,0.0,0.0,0.0,0.0,0.0,0.0,0.0,0.0,0.0,0.0,0.0,0.0,0.0,0.0,0.0,0.0,0.0,0.0,0.0,0.0,0.0,0.0,0.0,0.0,0.0,0.0,0.0,0.0,0.0,0.0,0.0,0.0,0.0,0.0,0.0,0.0,0.0,0.0,0.0,0.0,0.0,0.0,0.0,0.0,0.0,0.0,0.0,0.0,0.0,0.0,0.0,0.0,0.0,0.0,0.0,0.0,0.0,0.0,0.0,0.0,0.0,0.0,0.0,0.0,0.0,0.0,0.0,-1.1034,-1.1716,-1.1967,-1.284,-1.3119,-1.2426,-1.1784,-1.1141,-1.0487,-0.9781,0.0,0.0,0.0,0.0,0.0,0.0,0.0,0.0,0.0,0.0,0.0,0.0,0.0,0.0,0.0,0.0,0.0,0.0,0.0,0.0,0.0,0.0,0.0,0.0,0.0,0.0,0.0,0.0,0.0,0.0,0.0,0.0,0.0,0.0,0.0,0.0,0.0,0.0,0.0,0.0,0.0,0.0,0.0,0.0,0.0,0.0,0.0,0.0,0.0,0.0,0.0,0.0,0.0,0.0,0.0,0.0,0.0,0.0,0.0,0.0,0.0,0.0,0.0,0.0,0.0,0.0,0.0,0.0,0.0,0.0,0.0,0.0,0.0,0.0,0.0,0.0,0.0,0.0,0.0,0.0,0.0,0.0,0.0,0.0,0.0,0.0,0.0,0.0,0.0,0.0,0.0,0.0,0.0,0.0,0.0,0.0,0.0,0.0,0.0,0.0,0.0,0.0,-1.1173,-1.1716,-1.1967,-1.2602,-1.2775,-1.2091,-1.1363,-1.0849,-1.0609,-0.9848,0.0,0.0,0.0,0.0,0.0,0.0,0.0,0.0,0.0,0.0,0.0,0.0,0.0,0.0,0.0,0.0,0.0,0.0,0.0,0.0,0.0,0.0,0.0,0.0,0.0,0.0,0.0,0.0,0.0,0.0,0.0,0.0,0.0,0.0,0.0,0.0,0.0,0.0,0.0,0.0,0.0,0.0,0.0,0.0,0.0,0.0,0.0,0.0,0.0,0.0,0.0,0.0,0.0,0.0,0.0,0.0,0.0,0.0,0.0,0.0,0.0,0.0,0.0,0.0,0.0,0.0,0.0,0.0,0.0,0.0,0.0,0.0,0.0,0.0,0.0,0.0,0.0,0.0,0.0,0.0,0.0,0.0,0.0,0.0,0.0,0.0,0.0,0.0,0.0,0.0,0.0,0.0,0.0,0.0,0.0,0.0,0.0,0.0,0.0,0.0,0.0,0.0,-1.1188,-1.1716,0.0,-1.2587,-1.2665,-1.1809,-1.1241,-1.0674,-1.0184,0.0,0.0,0.0,0.0,0.0,0.0,0.0,0.0,0.0,0.0,0.0,0.0,0.0,0.0,0.0,0.0,0.0,0.0,0.0,0.0,0.0,0.0,0.0,0.0,0.0,0.0,0.0,0.0,0.0,0.0,0.0,0.0,0.0,0.0,0.0,0.0,0.0,0.0,0.0,0.0,0.0,0.0,0.0,0.0,0.0,0.0,0.0,0.0,0.0,0.0,0.0,0.0,0.0,0.0,0.0,0.0,0.0,0.0,0.0,0.0,0.0,0.0,0.0,0.0,0.0,0.0,0.0,0.0,0.0,0.0,0.0,0.0,0.0,0.0,0.0,0.0,0.0,0.0,0.0,0.0,0.0,0.0,0.0,0.0,0.0,0.0,0.0,0.0,0.0,0.0,0.0,0.0,0.0,0.0,0.0,0.0,0.0,0.0,0.0,0.0,0.0,0.0,-1.0499,-1.1092,-1.1562,0.0,-1.2284,-1.2241,-1.1503,-1.087,-1.0351,-0.9914,0.0,0.0,0.0,0.0,0.0,0.0,0.0,0.0,0.0,0.0,0.0,0.0,0.0,0.0,0.0,0.0,0.0,0.0,0.0,0.0,0.0,0.0,0.0,0.0,0.0,0.0,0.0,0.0,0.0,0.0,0.0,0.0,0.0,0.0,0.0,0.0,0.0,0.0,0.0,0.0,0.0,0.0,0.0,0.0,0.0,0.0,0.0,0.0,0.0,0.0,0.0,0.0,0.0,0.0,0.0,0.0,0.0,0.0,0.0,0.0,0.0,0.0,0.0,0.0,0.0,0.0,0.0,0.0,0.0,0.0,0.0,0.0,0.0,0.0,0.0,0.0,0.0,0.0,0.0,0.0,0.0,0.0,0.0,0.0,0.0,0.0,0.0,0.0,0.0,0.0,0.0,0.0,0.0,0.0,0.0,0.0,0.0,0.0,0.0,0.0,0.0,0.0,-1.0499,-1.0902,-1.1232,-1.1555,-1.1591,-1.1459,-1.1129,-1.0229,-0.9756,0.0,0.0,0.0,0.0,0.0,0.0,0.0,0.0,0.0,0.0,0.0,0.0,0.0,0.0,0.0,0.0,0.0,0.0,0.0,0.0,0.0,0.0,0.0,0.0,0.0,0.0,0.0,0.0,0.0,0.0,0.0,0.0,0.0,0.0,0.0,0.0,0.0,0.0,0.0,0.0,0.0,0.0,0.0,0.0,0.0,0.0,0.0,0.0,0.0,0.0,0.0,0.0,0.0,0.0,0.0,0.0,0.0,0.0,0.0,0.0,0.0,0.0,0.0,0.0,0.0,0.0,0.0,0.0,0.0,0.0,0.0,0.0,0.0,0.0,0.0,0.0,0.0,0.0,0.0,0.0,0.0,0.0,0.0,0.0,0.0,0.0,0.0,0.0,0.0,0.0,0.0,0.0,0.0,0.0,0.0,0.0,0.0,0.0,0.0,0.0,0.0,0.0,0.0,-1.0499,-1.0902,-1.1232,-1.1555,-1.1591,-1.1364,-1.0806,-1.0101,-0.9609,-0.9411,0.0,0.0,0.0,0.0,0.0,0.0,0.0,0.0,0.0,0.0,0.0,0.0,0.0,0.0,0.0,0.0,0.0,0.0,0.0,0.0,0.0,0.0,0.0,0.0,0.0,0.0,0.0,0.0,0.0,0.0,0.0,0.0,0.0,0.0,0.0,0.0,0.0,0.0,0.0,0.0,0.0,0.0,0.0,0.0,0.0,0.0,0.0,0.0,0.0,0.0,0.0,0.0,0.0,0.0,0.0,0.0,0.0,0.0,0.0,0.0,0.0,0.0,0.0,0.0,0.0,0.0,0.0,0.0,0.0,0.0,0.0,0.0,0.0,0.0,0.0,0.0,0.0,0.0,0.0,0.0,0.0,0.0,0.0,0.0,0.0,0.0,0.0,0.0,0.0,0.0,0.0,0.0,0.0,0.0,0.0,0.0,0.0,0.0,0.0,0.0,0.0,0.0,-1.0521,-1.0784,-1.1034,-1.1364,-1.1222,-1.0901,-1.0356,-0.9776,-0.9382,-0.9293,0.0,0.0,0.0,0.0,0.0,0.0,0.0,0.0,0.0,0.0,0.0,0.0,0.0,0.0,0.0,0.0,0.0,0.0,0.0,0.0,0.0,0.0,0.0,0.0,0.0,0.0,0.0,0.0,0.0,0.0,0.0,0.0,0.0,0.0,0.0,0.0,0.0,0.0,0.0,0.0,0.0,0.0,0.0,0.0,0.0,0.0,0.0,0.0,0.0,0.0,0.0,0.0,0.0,0.0,0.0,0.0,0.0,0.0,0.0,0.0,0.0,0.0,0.0,0.0,0.0,0.0,0.0,0.0,0.0,0.0,0.0,0.0,0.0,0.0,0.0,0.0,0.0,0.0,0.0,0.0,0.0,0.0,0.0,0.0,0.0,0.0,0.0,0.0,0.0,0.0,0.0,0.0,0.0,0.0,0.0,0.0,0.0,0.0,0.0,0.0,0.0,0.0,-1.0587,-1.0609,-1.074,-1.107,-1.0697,-1.0293,-0.9914,-0.9366,-0.9138,-0.9377,0.0,0.0,0.0,0.0,0.0,0.0,0.0,0.0,0.0,0.0,0.0,0.0,0.0,0.0,0.0,0.0,0.0,0.0,0.0,0.0,0.0,0.0,0.0,0.0,0.0,0.0,0.0,0.0,0.0,0.0,0.0,0.0,0.0,0.0,0.0,0.0,0.0,0.0,0.0,0.0,0.0,0.0,0.0,0.0,0.0,0.0,0.0,0.0,0.0,0.0,0.0,0.0,0.0,0.0,0.0,0.0,0.0,0.0,0.0,0.0,-0.8406,0.0,0.0,0.0,0.0,0.0,0.0,0.0,0.0,0.0,0.0,0.0,0.0,0.0,0.0,0.0,0.0,0.0,0.0,0.0,0.0,0.0,0.0,0.0,0.0,0.0,0.0,0.0,0.0,0.0,0.0,0.0,0.0,0.0,0.0,0.0,0.0,0.0,0.0,0.0,0.0,0.0,-1.0924,-1.0777,-1.074,-1.107,-1.0785,-1.0378,-0.9942,-0.9447,-0.9238,-0.9377,-0.9233,0.0,0.0,0.0,0.0,0.0,0.0,0.0,0.0,0.0,0.0,0.0,0.0,0.0,0.0,0.0,0.0,0.0,0.0,0.0,0.0,0.0,0.0,0.0,0.0,0.0,0.0,0.0,0.0,0.0,0.0,0.0,0.0,0.0,0.0,0.0,0.0,0.0,0.0,0.0,0.0,0.0,0.0,0.0,0.0,0.0,0.0,0.0,0.0,0.0,0.0,0.0,0.0,0.0,0.0,0.0,0.0,0.0,0.0,0.0,0.0,-0.8612,0.0,0.0,0.0,0.0,0.0,0.0,0.0,0.0,0.0,0.0,0.0,0.0,0.0,0.0,0.0,0.0,0.0,0.0,0.0,0.0,0.0,0.0,0.0,0.0,0.0,0.0,0.0,0.0,0.0,0.0,0.0,0.0,0.0,0.0,0.0,0.0,0.0,0.0,0.0,0.0,-1.1041,-1.0821,-1.0653,-1.0733,-1.0552,-1.0144,-0.9518,-0.9177,-0.9085,-0.9301,-0.8927,0.0,0.0,0.0,0.0,0.0,0.0,0.0,0.0,0.0,0.0,0.0,0.0,0.0,0.0,0.0,0.0,0.0,0.0,0.0,0.0,0.0,0.0,0.0,0.0,0.0,0.0,0.0,0.0,0.0,0.0,0.0,0.0,0.0,0.0,0.0,0.0,0.0,0.0,0.0,0.0,0.0,0.0,0.0,0.0,0.0,0.0,0.0,0.0,0.0,0.0,0.0,0.0,0.0,-0.9283,-0.9421,-0.9673,-0.9673,-0.9657,-0.9546,-0.9007,-0.8763,-0.8702,-0.8669,0.0,0.0,0.0,0.0,0.0,0.0,0.0,0.0,0.0,0.0,0.0,0.0,0.0,0.0,0.0,0.0,0.0,0.0,0.0,0.0,0.0,0.0,0.0,0.0,-1.3579,-1.3418,-1.2819,0.0,0.0,0.0,0.0,0.0,0.0,0.0,0.0,0.0,0.0,0.0,-1.1313,-1.1019,-1.0712,-1.0538,-1.0343,-0.9918,-0.9109,-0.891,-0.8931,-0.9191,-0.8608,-0.8769,0.0,0.0,0.0,0.0,0.0,0.0,0.0,0.0,0.0,0.0,0.0,0.0,0.0,0.0,0.0,0.0,0.0,0.0,0.0,0.0,0.0,0.0,0.0,0.0,0.0,0.0,0.0,0.0,0.0,0.0,0.0,0.0,-0.8591,-0.8571,0.0,0.0,0.0,0.0,0.0,0.0,0.0,0.0,0.0,0.0,0.0,0.0,0.0,-0.9839,-0.9709,-0.9922,-1.0024,-1.0073,-1.0073,-0.9961,-0.9851,-0.9851,-0.977,-0.9575,-0.9527,0.0,-0.9015,-0.8852,0.0,0.0,0.0,0.0,0.0,0.0,0.0,0.0,0.0,0.0,0.0,0.0,0.0,0.0,0.0,0.0,0.0,0.0,0.0,0.0,0.0,0.0,-1.4306,-1.3989,-1.3916,-1.3814,0.0,-1.3367,-1.3199,-1.2594,-1.298,0.0,0.0,0.0,0.0,0.0,0.0,0.0,-1.2251,-1.1802,-1.1357,-1.1041,-1.0617,-1.0051,-0.9234,-0.9061,-0.9031,-0.9198,-0.8782,-0.8753,-0.9205,-0.9246,0.0,0.0,0.0,0.0,0.0,0.0,0.0,0.0,0.0,0.0,0.0,0.0,0.0,0.0,0.0,0.0,0.0,0.0,0.0,0.0,0.0,0.0,0.0,0.0,0.0,0.0,0.0,0.0,0.0,-0.9217,-0.907,-0.9012,-0.9,-0.9283,0.0,0.0,0.0,0.0,0.0,0.0,0.0,0.0,0.0,-0.9869,-1.0066,-1.0142,-1.009,-1.0175,-1.0314,-1.0514,-1.1202,-1.159,-1.1715,-1.2464,-1.2666,-1.2355,-1.1617,-1.1039,-1.0583,-0.9456,-0.8869,-0.8743,0.0,0.0,0.0,0.0,-0.9489,-0.9921,-1.0363,-1.0889,0.0,-1.2672,0.0,0.0,0.0,0.0,0.0,0.0,0.0,0.0,0.0,0.0,-1.4474,-1.4328,-1.4291,-1.4254,-1.407,-1.3894,-1.3631,0.0,-1.3301,-1.3345,-1.2877,0.0,0.0,0.0,0.0,-1.212,-1.2448,-1.1802,-1.1208,-1.0919,-1.0336,-0.9729,-0.9049,-0.8936,-0.8911,-0.8958,-0.8384,-0.8279,-0.8807,-0.8888,-0.9102,0.0,0.0,0.0,0.0,0.0,0.0,0.0,0.0,0.0,0.0,0.0,0.0,0.0,0.0,0.0,0.0,0.0,0.0,0.0,0.0,0.0,0.0,0.0,0.0,0.0,0.0,0.0,0.0,-0.9638,-0.9435,-0.9463,-0.9287,-0.9524,0.0,0.0,0.0,0.0,0.0,0.0,-1.0071,-1.001,-0.9965,-1.0083,-1.0326,-1.0465,-1.0505,-1.0604,-1.0708,-1.0968,-1.1914,-1.2458,-1.2646,-1.3601,-1.3897,-1.3572,-1.2543,-1.1903,-1.1417,-0.9894,-0.9165,-0.8942,-0.9083,-0.9182,-0.9229,-0.9144,-0.9719,-1.0585,-1.0686,-1.1485,-1.258,-1.3201,-1.3617,-1.3926,-1.3983,0.0,0.0,0.0,0.0,-1.4714,-1.4674,-1.4674,-1.4692,-1.4611,-1.4589,-1.4567,-1.4526,-1.4313,-1.4049,0.0,-1.355,-1.3418,-1.3177,0.0,0.0,0.0,0.0,-1.2463,-1.2704,-1.1999,-1.1323,-1.092,-1.0257,-0.9563,-0.8917,-0.8831,-0.8838,-0.8884,-0.8246,-0.8049,-0.8438,-0.8489,-0.8748,-0.923,0.0,0.0,0.0,0.0,0.0,0.0,0.0,0.0,0.0,0.0,0.0,0.0,0.0,0.0,0.0,0.0,0.0,0.0,0.0,0.0,0.0,0.0,0.0,0.0,0.0,0.0,0.0,0.0,0.0,-0.9911,-1.0021,0.0,0.0,0.0,0.0,-1.1303,-1.0824,-1.0628,-1.0815,-1.0841,-1.076,-1.0639,-1.083,-1.109,-1.1431,-1.1606,-1.1703,-1.1723,-1.1784,-1.1663,-1.1277,-1.1335,-1.1199,-1.0869,-1.0806,-1.0695,-1.0445,-1.0057,-0.969,-0.9467,-1.0256,-1.0003,-0.9207,-1.008,-0.9904,-0.922,-0.9211,-0.9895,-1.0815,-1.1486,-1.2577,-1.3728,-1.4227,-1.4317,0.0,0.0,-1.4991,-1.5296,-1.513,-1.5213,-1.5265,-1.4951,-1.4878,-1.4798,-1.4577,-1.4496,-1.4386,0.0,-1.3704,-1.3492,-1.3477,0.0,-1.347,-1.3448,-1.3433,-1.3426,-1.344,-1.2862,-1.2153,-1.1454,-1.0634,-0.9848,-0.9056,-0.8883,-0.8898,-0.9171,-0.8778,-0.839,-0.8046,-0.8323,-0.8522,-0.8554,-0.9175,0.0,0.0,0.0,0.0,0.0,0.0,0.0,0.0,0.0,0.0,0.0,0.0,0.0,0.0,0.0,0.0,0.0,0.0,0.0,0.0,0.0,0.0,0.0,0.0,0.0,0.0,0.0,0.0,-1.1426,-1.1179,0.0,-1.236,-1.1796,-1.1577,-1.2079,-1.1614,-1.1451,-1.184,-1.1884,-1.1933,-1.1844,-1.2024,-1.1955,-1.1679,-1.1744,-1.1776,-1.1837,-1.2603,-1.2876,-1.2615,-1.3471,-1.3633,-1.3162,-1.2455,-1.1959,-1.1603,-1.0774,-1.0123,-0.9735,-0.9911,-0.9702,-0.9358,-0.9686,-1.0429,-1.1251,-1.1061,-1.217,-1.367,-1.373,-1.3979,-1.4393,-1.4754,-1.4705,-1.4635,-1.5047,-1.5173,-1.5215,-1.5257,-1.5347,-1.536,-1.5243,-1.5214,-1.5185,-1.5116,-1.4926,-1.4743,-1.4586,-1.4172,-1.374,-1.3536,-1.3492,-1.3492,-1.3492,-1.3492,-1.3455,-1.3309,-1.2711,-1.205,-1.1402,-1.0534,-0.9769,-0.9173,-0.8696,-0.8625,-0.9176,-0.818,-0.7711,-0.7974,-0.7919,-0.7842,-0.7842,-0.8561,-0.9071,0.0,0.0,0.0,0.0,0.0,0.0,0.0,0.0,0.0,0.0,0.0,0.0,0.0,0.0,0.0,0.0,0.0,0.0,0.0,0.0,0.0,0.0,0.0,0.0,0.0,0.0,-1.1327,-1.2113,-1.2312,-1.2679,-1.3278,-1.2854,-1.2661,-1.3091,-1.2283,-1.2087,-1.2664,-1.246,-1.2337,-1.2337,-1.2393,-1.2191,-1.1776,-1.1776,-1.1776,-1.1837,-1.2664,-1.2976,-1.2781,-1.3645,-1.3809,-1.3336,-1.2567,-1.2063,-1.1769,-1.1017,-1.0481,-1.014,-0.9969,-0.9786,-0.9727,-1.0113,-1.113,-1.2356,-1.2789,-1.3788,-1.4857,-1.5033,-1.4966,-1.4821,-1.4986,-1.4909,-1.4838,-1.5069,-1.5124,-1.5131,-1.5264,-1.5347,-1.5389,-1.5389,-1.5389,-1.5389,-1.5389,-1.5221,-1.5031,-1.4922,-1.4421,-1.3916,-1.3697,-1.3565,-1.3492,-1.3492,-1.3492,-1.3419,-1.3236,-1.2699,-1.2071,-1.1366,-1.0629,-0.9872,-0.9073,-0.8558,-0.8407,-0.8761,-0.7827,-0.7438,-0.7807,-0.7606,-0.7489,-0.7489,-0.8179,-0.8842,-0.9422,0.0,0.0,0.0,0.0,0.0,0.0,0.0,0.0,0.0,0.0,0.0,0.0,0.0,0.0,0.0,0.0,0.0,0.0,0.0,0.0,0.0,0.0,0.0,-1.1015,-1.1864,-1.2443,-1.1991,-1.336,-1.4088,-1.3267,-1.3321,-1.3625,-1.4214,-1.2928,-1.2486,-1.3269,-1.2556,-1.2094,-1.202,-1.1922,-1.1837,-1.1776,-1.1776,-1.1776,-1.1776,-1.1776,-1.1679,-1.15,-1.1492,-1.1301,-1.1024,-1.0964,-1.0858,-1.0692,-1.0692,-1.0692,-1.0676,-1.0509,-1.0331,-1.0325,-1.1446,-1.1845,-1.2162,-1.4012,-1.4274,-1.3963,-1.5015,-1.5197,-1.4999,-1.4929,-1.4884,-1.4902,-1.4747,-1.4915,-1.509,-1.509,-1.5257,-1.5389,-1.5389,-1.5389,-1.5389,-1.5389,-1.5389,-1.5294,-1.498,-1.445,-1.4004,-1.3982,-1.3711,-1.3492,-1.3492,-1.3492,0.0,-1.3229,-1.2892,-1.2325,-1.1414,-1.0987,-1.021,-0.8741,-0.8487,-0.8288,-0.801,-0.7859,-0.767,-0.7507,-0.7493,-0.7493,-0.7489,-0.8079,-0.8683,-0.9306,0.0,0.0,0.0,0.0,0.0,0.0,0.0,0.0,0.0,0.0,0.0,0.0,0.0,0.0,0.0,0.0,0.0,0.0,0.0,0.0,0.0,0.0,-1.3036,-1.3237,-1.2865,-1.3081,-1.4679,-1.4118,-1.4099,-1.5322,-1.4983,-1.4592,-1.4132,-1.4395,-1.4337,-1.3634,-1.4085,-1.4014,-1.324,-1.3176,-1.2733,-1.1837,-1.1776,-1.1776,-1.1776,-1.1776,-1.1679,-1.1496,-1.1362,-1.1179,-1.1016,-1.0826,-1.0741,-1.0692,-1.0692,-1.0692,-1.0688,-1.0639,-1.0513,-1.0396,-1.0571,-1.1003,-1.1583,-1.2802,-1.3492,-1.387,-1.4155,-1.4669,-1.5157,-1.4966,-1.5,-1.5104,-1.5007,-1.5041,-1.5131,-1.5257,-1.5347,-1.5389,-1.5389,-1.5389,-1.5389,-1.5389,-1.5389,-1.536,-1.5272,-1.4922,-1.4452,-1.3872,-1.3637,-1.3455,-1.3309,-1.3419,0.0,-1.3046,-1.2378,-1.1893,-1.174,-1.0919,-1.0052,-0.9312,-0.8762,-0.8333,-0.8011,-0.7229,-0.7016,-0.7484,-0.697,-0.6937,-0.7489,-0.7983,-0.8589,0.0,0.0,0.0,0.0,0.0,0.0,0.0,0.0,0.0,0.0,0.0,0.0,0.0,0.0,0.0,0.0,0.0,0.0,0.0,0.0,0.0,0.0,-1.3296,-1.4112,-1.4938,-1.4483,-1.4215,-1.4582,-1.455,-1.4754,-1.5653,-1.514,-1.4764,-1.4833,-1.4865,-1.4553,-1.3672,-1.4155,-1.4028,-1.3038,-1.2953,-1.2552,-1.1837,-1.1776,-1.174,-1.1663,-1.174,-1.1679,-1.15,-1.1468,-1.1358,-1.1179,-1.0997,-1.0875,-1.0802,-1.0724,-1.0692,0.0,0.0,0.0,0.0,0.0,-1.1466,-1.219,-1.3177,-1.374,-1.4092,-1.4515,-1.502,-1.544,-1.5201,-1.5113,-1.5074,-1.4906,-1.4846,-1.4824,-1.4957,-1.5124,-1.5257,-1.5257,-1.5347,-1.5389,-1.5389,-1.5389,-1.5389,-1.5305,-1.4996,0.0,-1.3927,-1.3694,-1.3511,-1.3275,-1.3242,-1.301,-1.2378,-1.1855,-1.1414,-1.0953,-1.0284,-0.9608,-0.8947,-0.8374,0.0,0.0,0.0,-0.6534,-0.7031,-0.6613,0.0,0.0,0.0,-0.8083,-0.8909,0.0,0.0,0.0,-0.9843,-0.9781,0.0,0.0,0.0,0.0,0.0,0.0,0.0,0.0,0.0,0.0,0.0,0.0,0.0,0.0,0.0,0.0,-1.4496,-1.4862,-1.5961,-1.6196,-1.5496,-1.3386,-1.473,-1.5513,-1.4931,-1.4338,-1.452,-1.5609,-1.4651,-1.3843,-1.3545,0.0,0.0,0.0,0.0,-1.1897,-1.1776,-1.1776,-1.1695,-1.1533,-1.1699,-1.1691,-1.1537,-1.1683,-1.1646,-1.1459,-1.1273,-1.1094,-1.0923,-1.0761,-1.0692,-1.0692,-1.0692,-1.0668,-1.0774,-1.1625,-1.2334,-1.2945,-1.3941,0.0,0.0,-1.5302,-1.571,-1.5725,-1.5438,-1.5189,-1.4945,-1.464,-1.4536,-1.4488,-1.4488,-1.4797,-1.5091,-1.5055,-1.5173,-1.5298,-1.5298,-1.5347,-1.5298,-1.509,-1.486,-1.4497,-1.4001,-1.3784,-1.3608,-1.3213,-1.2951,-1.2425,-1.1415,-1.1204,-1.0718,-0.9646,0.0,0.0,-0.8127,-0.7773,-0.7364,-0.6765,-0.6445,-0.6343,-0.6473,-0.6448,-0.641,-0.641,-0.6763,-0.7379,-0.8244,-0.835,-0.887,-0.9762,-0.989,-0.9894,0.0,0.0,0.0,0.0,0.0,0.0,0.0,0.0,0.0,0.0,0.0,0.0,0.0,0.0,0.0,-1.4204,-1.458,-1.4702,-1.4753,-1.5617,-1.607,-1.5458,-1.4726,-1.4469,-1.4866,-1.48,-1.4535,-1.4116,-1.4447,-1.4244,-1.3159,-1.3742,-1.3637,-1.2604,-1.2561,-1.2307,-1.1776,-1.1776,-1.176,-1.1723,0.0,0.0,-1.1719,-1.1606,-1.1451,-1.1269,-1.1094,-1.0915,-1.0745,-1.0708,-1.0692,-1.0692,-1.0692,-1.0517,-1.0314,-1.054,-1.0442,-1.0461,-1.1531,-1.2375,-1.3167,-1.4244,-1.5154,-1.5715,-1.5228,-1.5103,0.0,-1.4891,-1.4909,-1.5069,-1.5069,-1.5112,-1.5091,-1.4839,-1.4824,-1.4824,-1.4824,-1.4999,-1.5082,-1.4824,-1.4907,-1.4608,-1.341,-1.3514,-1.3445,-1.2483,-1.2293,-1.1884,-1.081,-0.9986,-0.9545,-0.9793,-0.9236,-0.8702,-0.834,-0.8245,-0.7865,-0.7014,-0.6869,-0.6849,-0.6882,-0.6675,-0.6573,-0.6573,-0.6873,-0.7167,-0.7346,-0.7694,-0.8221,-0.8946,-0.9403,-0.958,0.0,0.0,0.0,0.0,0.0,0.0,0.0,0.0,0.0,0.0,0.0,-1.2089,0.0,0.0,-1.337,-1.5097,-1.4792,-1.4677,-1.5416,-1.5025,-1.4659,-1.4563,-1.4129,-1.4006,-1.4338,-1.408,-1.3844,-1.3743,-1.4063,-1.3764,-1.269,-1.3345,-1.3269,-1.2255,-1.2247,-1.207,-1.1776,-1.1776,-1.1732,-1.1638,-1.1732,-1.1727,-1.1638,-1.1638,-1.1585,-1.1484,-1.1212,-1.1041,-1.0944,-1.0765,-1.0692,-1.0692,-1.0692,-1.053,-1.0286,-1.0197,-0.9989,-0.9892,-1.0869,-1.1512,-1.2096,-1.3173,-1.4201,-1.4882,-1.407,-1.4153,-1.4475,-1.4398,-1.4333,-1.44,-1.495,-1.5067,-1.5002,-1.485,-1.4768,-1.4692,-1.4692,-1.4824,-1.4824,-1.4608,-1.4265,-1.3795,-1.2984,-1.2678,-1.2328,-1.1624,-1.1341,-1.0892,-0.9875,-0.9301,-0.8923,-0.8737,-0.8356,-0.8049,-0.7952,-0.7856,-0.7578,-0.7036,-0.6988,-0.6988,-0.6988,-0.6738,-0.6599,-0.6599,-0.6595,-0.6841,-0.7283,-0.7315,-0.7722,-0.8524,-0.906,-0.9361,0.0,0.0,0.0,0.0,0.0,0.0,0.0,0.0,-1.2484,-1.2766,-1.2866,-1.3164,-1.3945,-1.4071,-1.4468,-1.585,-1.5069,-1.4661,-1.5803,-1.4454,-1.331,-1.3003,-1.3524,-1.3822,-1.3692,-1.3204,-1.3135,-1.3622,-1.3453,-1.3029,-1.2316,-1.2685,-1.2555,-1.1841,-1.1776,-1.1776,-1.1776,-1.1776,-1.1703,-1.1553,-1.1703,-1.1699,-1.1557,-1.1707,-1.174,-1.165,-1.1281,-1.1118,-1.1098,-1.081,-1.0692,-1.0692,-1.0692,-1.0607,-1.0461,-1.0241,-1.0118,-1.0061,-1.0915,-1.1198,-1.1423,-1.2403,-1.3236,-1.373,-1.2855,-1.3017,-1.3432,-1.3479,-1.335,-1.3419,-1.4488,-1.4729,-1.4707,-1.4817,-1.4721,-1.4642,-1.4587,-1.4608,-1.4524,-1.4139,-1.3493,-1.2808,-1.2266,-1.1537,-1.0962,-1.0736,-1.0455,-0.9898,-0.8927,-0.8792,-0.8461,-0.7577,-0.7484,-0.7484,-0.7484,-0.7358,-0.7212,-0.7102,-0.7094,-0.7094,-0.7094,-0.6804,-0.6659,-0.6659,-0.6332,-0.65,-0.7257,-0.69,-0.7174,-0.8075,-0.8486,-0.8927,-1.2105,-1.2276,0.0,-1.4044,-1.3774,-1.3504,0.0,0.0,-1.3746,-1.4179,-1.4579,-1.4966,-1.5199,-1.5086,-1.512,-1.5542,-1.5124,-1.4497,-1.3869,-1.4096,-1.3894,-1.2808,-1.3255,-1.3371,-1.2786,-1.302,-1.3118,-1.2774,-1.2562,-1.2392,-1.2308,-1.2192,-1.2012,-1.178,-1.1776,-1.1776,-1.1776,-1.1776,-1.1764,-1.1748,-1.1764,-1.1764,-1.1748,-1.1768,-1.1598,-1.1265,-1.0907,-1.0753,-1.0749,-1.0708,-1.0692,-1.0692,-1.0692,-1.068,-1.0623,-1.0339,-1.02,-1.0286,-1.0965,-1.1298,-1.152,-1.2407,-1.264,-1.2514,-1.2373,-1.2258,-1.2159,-1.2411,-1.2455,-1.2667,-1.3688,-1.3942,-1.4037,-1.4467,-1.4539,-1.4445,-1.4226,-1.4321,-1.4146,-1.3082,-1.2942,-1.2419,-1.0549,-1.012,-1.0067,-1.0,-0.9899,-0.9391,-0.825,-0.8011,-0.7805,-0.7543,-0.7484,-0.7484,-0.7484,-0.7464,-0.7443,-0.7465,-0.7461,-0.7461,-0.7461,-0.7076,-0.6847,-0.6847,-0.6472,-0.6332,-0.6426,-0.619,-0.6489,-0.7233,-0.7169,-0.7875,-1.406,0.0,0.0,0.0,-1.7347,-1.745,-1.6618,-1.6197,-1.5852,-1.5129,-1.5587,-1.6011,-1.5702,-1.571,-1.5731,0.0,-1.4915,-1.4138,-1.4299,-1.3861,-1.3307,-1.2747,-1.261,-1.2499,-1.2457,-1.2689,-1.2757,-1.2482,-1.2247,-1.2146,-1.2146,-1.1975,-1.1849,-1.178,-1.1776,-1.1776,-1.1776,-1.1776,-1.1776,-1.1776,-1.1776,-1.1776,-1.1772,-1.1663,-1.1419,-1.1066,-1.0919,-1.0794,-1.0692,-1.0692,-1.0692,-1.0692,-1.0692,-1.0692,-1.0664,-1.0412,-1.0322,-1.0318,-1.0399,-1.0469,-1.0558,-1.0807,-1.1264,-1.1525,-1.0907,-1.1087,-1.1507,-1.1644,-1.1669,-1.2054,-1.3684,-1.3943,-1.3862,-1.406,-1.39,-1.3511,-1.293,-1.2812,-1.2606,-1.2133,-1.169,-1.1079,-1.0047,-0.9471,-0.9126,-0.9126,-0.91,-0.885,-0.8237,-0.8016,-0.7801,-0.7512,-0.7484,-0.7484,-0.7484,-0.7484,-0.7484,-0.7484,-0.7484,-0.7446,-0.7334,-0.7061,-0.6826,-0.6714,-0.6451,-0.63,-0.63,-0.6235,-0.6353,-0.665,-0.7068,-0.7591,-1.5651,0.0,0.0,-1.8919,-2.0135,-2.0608,-1.8853,-1.8487,-1.8165,-1.7079,-1.6967,-1.6907,-1.6296,-1.5896,-1.5639,-1.5723,-1.4535,-1.3788,-1.4369,-1.3528,-1.2783,-1.2568,-1.2117,-1.1837,-1.1991,-1.2215,-1.2312,-1.2235,-1.2154,-1.2105,-1.2105,-1.1991,-1.1898,-1.1849,-1.1845,-1.1825,-1.1776,-1.1776,-1.1776,-1.1776,-1.1776,-1.1776,-1.1768,-1.1585,-1.1334,-1.1037,-1.1049,-1.0867,-1.0692,-1.0692,-1.0692,-1.0692,-1.0692,-1.0692,-1.0676,-1.0554,-1.0505,-1.0452,-1.0087,-0.9994,-1.0006,-0.9831,-1.0267,-1.0744,-0.9958,-1.0235,-1.0807,-1.0752,-1.0739,-1.1175,-1.298,-1.3273,-1.3108,-1.3327,-1.3129,-1.2716,-1.2056,-1.1802,-1.1634,-1.1365,-1.074,-1.0133,-0.9668,-0.9071,-0.8621,-0.8616,-0.8612,-0.8547,-0.8312,-0.8089,-0.7825,-0.7516,-0.7484,-0.7484,-0.7484,-0.7446,-0.7446,-0.7484,-0.7407,-0.7292,-0.7223,-0.6945,-0.6753,-0.6602,-0.6412,-0.63,-0.63,-0.63,-0.63,-0.63,-0.6911,-0.7292,0.0,0.0,-1.7415,-1.9917,-2.0896,-2.1356,-2.1534,-2.1118,-2.0648,-2.058,-1.9047,-1.7597,-1.7314,-1.5755,-1.4541,-1.4541,-1.4012,-1.3522,-1.3169,-1.2954,-1.2641,-1.2117,-1.189,-1.1638,0.0,-1.1585,-1.1866,-1.2024,-1.2199,-1.23,-1.23,-1.2296,-1.2211,-1.2028,-1.202,-1.1943,-1.178,-1.1776,-1.1776,-1.1776,-1.1776,-1.1776,-1.1768,-1.1585,-1.1395,-1.1204,-1.1041,-1.0867,-1.0692,-1.0692,-1.0692,-1.0692,-1.0692,-1.0692,-1.0692,-1.0684,-1.0684,-1.0631,-1.0331,-1.027,-1.0334,-1.0205,-1.0196,-1.0215,-0.9984,-0.9926,-0.9894,-0.9722,-0.9624,-0.992,-1.1028,-1.1312,-1.1448,-1.2194,-1.2324,-1.2255,-1.1943,-1.1889,-1.1609,-1.0694,-1.051,-1.0127,-0.9022,-0.8812,-0.8755,-0.8637,-0.8612,-0.8547,-0.8312,-0.8024,-0.7735,-0.7504,-0.7484,-0.7484,-0.7484,-0.7334,-0.7296,-0.7484,-0.7134,-0.7022,-0.718,-0.6834,-0.6602,-0.6602,-0.6412,-0.63,-0.63,-0.63,-0.63,-0.63,-0.6338,-0.676,-1.729,0.0,-2.1313,-2.3015,-2.3853,-2.3989,-2.3242,-2.257,-2.1626,-1.9732,-1.8433,-1.7269,-1.6056,-1.5047,-1.4235,-1.3862,-1.3473,-1.3279,-1.3279,-1.3226,-1.2901,-1.2121,-1.1979,0.0,0.0,0.0,0.0,-1.1675,-1.1849,-1.2004,-1.2117,-1.2239,-1.2223,-1.2036,-1.2028,-1.1947,-1.178,-1.1776,-1.1776,-1.1776,-1.1776,-1.1646,-1.1407,-1.1342,-1.1151,-1.0867,-1.081,-1.0749,-1.0692,-1.0692,-1.0692,-1.0692,-1.0692,-1.0692,-1.0692,-1.0692,-1.0692,-1.066,-1.0424,-1.0383,-1.0404,-1.0221,-1.0212,-1.018,-0.9941,-0.9884,-0.9847,-0.9677,-0.9579,-0.9871,-1.093,-1.1219,-1.1253,-1.1521,-1.1494,-1.1177,-1.053,-1.0301,-1.0159,-0.9828,-0.9785,-0.9583,-0.9082,-0.9003,-0.8942,-0.8763,-0.8637,-0.8547,-0.8312,-0.8077,-0.7862,-0.7726,-0.7596,-0.7446,-0.7296,-0.7219,-0.718,-0.7096,-0.698,-0.6865,-0.6795,-0.6679,-0.6525,-0.6412,-0.6338,-0.63,-0.63,-0.63,-0.63,-0.63,-0.63,-0.6451,-1.9194,-2.1514,-2.3693,-2.5158,-2.5929,-2.6082,-2.497,-2.3964,-2.2695,-2.0497,-1.8479,-1.6697,-1.534,-1.3937,-1.2931,-1.2665,-1.2628,-1.2686,-1.2865,-1.295,-1.2726,-1.2024,-1.1939,-1.1707,0.0,0.0,0.0,-1.15,-1.1845,-1.2077,-1.2125,-1.23,-1.2316,-1.2134,-1.2065,-1.1947,-1.178,-1.1776,-1.1776,-1.1776,-1.1707,-1.1553,-1.1317,-1.1252,-1.1066,-1.0789,-1.0789,-1.0753,-1.0692,-1.0692,-1.0692,-1.0692,-1.0692,-1.0692,-1.0692,-1.0692,-1.0692,-1.0676,-1.0566,-1.0526,-1.0509,-1.0391,-1.0404,-1.0306,-1.0059,-1.0033,-0.9933,-0.9693,-0.9579,-0.9772,-1.0449,-1.0641,-1.0641,-1.0641,-1.0546,-1.0303,-0.9698,-0.9535,-0.9449,-0.9449,-0.9449,-0.9397,-0.9218,-0.9084,-0.8958,-0.8836,-0.8678,-0.8547,-0.8312,-0.8187,-0.8024,-0.7824,-0.7694,-0.7504,-0.7278,-0.727,-0.7192,-0.6993,-0.6915,-0.6802,-0.6688,-0.6606,-0.6489,-0.6375,-0.6375,-0.6351,-0.63,-0.63,-0.63,-0.63,-0.63,-0.63,-2.1548,-2.3358,-2.4547,-2.6318,-2.7115,-2.7372,-2.6665,-2.5269,-2.3761,-2.2464,-1.8963,-1.5941,0.0,0.0,-1.0769,-1.1135,-1.1529,-1.1857,-1.2056,-1.2243,-1.2227,0.0,0.0,0.0,0.0,0.0,0.0,-1.1529,0.0,-1.2475,-1.2328,-1.2475,-1.2483,-1.2312,-1.2125,-1.1947,-1.178,-1.1776,-1.1776,-1.1776,-1.1589,-1.1496,-1.148,-1.1293,-1.1118,-1.0956,-1.0956,-1.0854,-1.0692,-1.0692,-1.0692,-1.0692,-1.0692,-1.0692,-1.0692,-1.0692,-1.0692,-1.0692,-1.0692,-1.0692,-1.0692,-1.0692,-1.0692,-1.0627,-1.0335,-1.0224,-1.0143,-0.9738,-0.9591,-0.9591,-0.9579,-0.9583,-0.9591,-0.9579,-0.9579,-0.9579,-0.9579,-0.9579,-0.9579,-0.9579,-0.9579,-0.9571,-0.9445,-0.908,-0.8844,-0.8836,-0.869,-0.8559,-0.8329,-0.8296,-0.8162,-0.7865,-0.782,-0.7693,-0.7417,-0.7405,-0.7282,-0.7086,-0.6889,-0.6816,-0.6816,-0.6608,-0.6525,-0.6525,-0.6515,-0.6446,-0.631,-0.6303,-0.63,-0.63,-0.63,-0.63,-2.2979,-2.4922,-2.6452,-2.6854,-2.6659,-2.6182,-2.5288,-2.3953,-2.221,-1.9907,-1.69,-1.4228,0.0,0.0,0.0,-1.0749,-1.1468,0.0,-1.2739,-1.2982,0.0,-1.2422,0.0,-1.232,-1.1695,-1.1918,0.0,0.0,-1.206,-1.2264,-1.2487,-1.254,-1.2483,-1.2312,-1.2125,-1.1947,-1.178,-1.1776,-1.1776,-1.1776,-1.1589,-1.1427,-1.1285,-1.1114,-1.0936,-1.0761,-1.0761,-1.0737,-1.0692,-1.0692,-1.0692,-1.0692,-1.0692,-1.0692,-1.0692,-1.0692,-1.0692,-1.0692,-1.0692,-1.0692,-1.0692,-1.0692,-1.0692,-1.0651,-1.0432,-1.027,-1.0167,-0.9884,-0.9819,-0.9791,-0.9661,-0.9721,-0.9786,-0.9657,-0.9579,-0.9579,-0.9579,-0.9579,-0.9579,-0.9579,-0.9579,-0.9612,-0.9567,-0.9368,-0.9173,-0.9047,-0.8873,-0.8694,-0.8563,-0.8377,-0.8256,-0.8166,-0.7912,-0.7628,-0.7427,-0.7215,-0.7007,-0.6808,-0.6767,-0.6726,-0.6726,-0.6685,-0.6644,-0.6644,-0.6569,-0.6494,-0.6457,-0.6351,-0.63,-0.63,-0.63,-0.63,-2.4346,-2.6036,-2.7417,-2.7107,-2.6439,-2.5484,-2.3891,-2.213,-2.0092,-1.7216,-1.4657,0.0,0.0,0.0,0.0,0.0,0.0,0.0,-1.2414,-1.2804,-1.2877,0.0,-1.2678,0.0,-1.2065,-1.2259,-1.2377,0.0,-1.2264,-1.2353,-1.2616,-1.2495,-1.2406,-1.2308,-1.2052,-1.1874,-1.1776,-1.1849,-1.1809,-1.1654,-1.1549,-1.1362,-1.1106,-1.0928,-1.0789,-1.0692,0.0,-1.0692,-1.0692,-1.0692,-1.0692,-1.0692,-1.0692,-1.0692,-1.0692,-1.0692,-1.0692,-1.0692,-1.0692,-1.0692,-1.0692,-1.0692,-1.0692,-1.066,-1.0485,-1.0306,-1.0175,-0.9937,-0.9831,-0.975,-0.9652,-0.9697,-0.9746,-0.9652,-0.9579,-0.9579,-0.9579,-0.9579,-0.9579,-0.9579,-0.9579,-0.9579,-0.9579,-0.9413,-0.921,-0.9112,-0.8877,-0.8674,-0.8624,-0.8518,-0.8338,-0.813,-0.7908,-0.764,-0.7346,-0.7297,-0.7129,-0.68,-0.6884,-0.6926,-0.68,-0.68,-0.68,-0.68,-0.6651,-0.6539,-0.6511,-0.6368,-0.63,-0.63,-0.63,-0.63,-2.5154,-2.635,-2.7213,-2.6666,-2.5855,-2.4596,-2.2056,-1.9894,-1.7574,-1.4579,0.0,-1.0954,-1.0286,-0.9457,-0.91,-0.9839,0.0,-1.098,-1.1801,-1.2272,-1.2499,-1.2418,-1.2661,-1.2714,-1.2406,-1.2511,-1.2601,-1.2601,-1.2601,-1.2601,-1.2601,-1.2434,-1.232,-1.2272,-1.1947,-1.1788,-1.1809,-1.1955,-1.1874,-1.1569,-1.1524,-1.1325,-1.0997,-1.0789,-1.0692,-1.0692,-1.0692,0.0,-1.0692,-1.0692,-1.0692,-1.0692,-1.0692,-1.0692,-1.0692,-1.0692,-1.0692,-1.0692,-1.0692,-1.0692,-1.0692,-1.0692,-1.0692,-1.0664,-1.0513,-1.0327,-1.018,-0.9969,-0.9799,-0.9657,-0.9583,-0.9644,-0.9657,-0.9583,-0.9579,-0.9579,-0.9579,-0.9579,-0.9579,-0.9579,-0.9579,-0.9579,-0.9579,-0.9352,-0.9125,-0.91,-0.8812,-0.8593,-0.8568,-0.8564,-0.8372,-0.8002,-0.7901,-0.7686,-0.7254,-0.7422,-0.7379,-0.6956,-0.7125,-0.7168,-0.6956,-0.6913,-0.6913,-0.6913,-0.6807,-0.6654,-0.6542,-0.6419,-0.6347,-0.6327,-0.6291,-0.6288,-2.4125,-2.467,-2.4873,-2.423,-2.3473,-2.2069,-1.8844,-1.6914,0.0,0.0,-1.117,-1.0201,-0.9133,-0.8989,0.0,-1.0201,0.0,0.0,0.0,0.0,-1.2503,0.0,0.0,0.0,0.0,0.0,0.0,0.0,0.0,-1.2787,-1.2787,-1.2617,-1.2385,-1.2085,-1.1882,-1.1845,-1.1983,-1.2016,-1.2,-1.1935,-1.1638,-1.1386,-1.1167,-1.0842,-1.0692,-1.0692,-1.0692,0.0,-1.0692,-1.0692,-1.0692,-1.0692,-1.0692,-1.0692,-1.0692,-1.0692,-1.0692,-1.0692,-1.0692,-1.0692,-1.0692,-1.0692,-1.0692,-1.0684,-1.0655,-1.042,-1.0208,-1.0175,-0.9981,-0.9807,-0.9665,-0.9734,-0.9803,-0.9661,-0.9579,-0.9579,-0.9579,-0.9579,-0.9579,-0.9579,-0.9579,-0.9579,-0.9579,-0.9449,-0.931,-0.912,-0.8913,-0.8633,-0.8308,-0.8288,-0.8237,-0.8162,-0.7811,-0.7552,-0.7464,-0.7281,-0.7146,-0.7058,-0.7102,-0.7102,-0.7058,-0.7058,-0.7058,-0.7058,-0.692,-0.6814,-0.6661,-0.6634,-0.6559,-0.6474,-0.6281,-0.6201,-2.3606,-2.3343,-2.2887,-2.2194,-2.1112,-1.9456,-1.6492,0.0,0.0,0.0,-0.966,-0.9283,-0.8712,0.0,0.0,0.0,0.0,0.0,0.0,0.0,0.0,0.0,0.0,0.0,0.0,0.0,0.0,0.0,0.0,-1.2735,-1.2832,-1.258,-1.2268,-1.191,-1.1817,-1.1817,-1.1898,-1.1983,-1.1935,-1.1752,-1.1581,-1.1354,-1.1082,-1.0814,-1.0745,-1.0838,-1.0838,0.0,-1.0968,-1.0968,-1.0915,-1.0838,-1.0838,-1.0777,-1.0692,-1.0692,-1.0692,-1.0692,-1.0692,-1.0692,-1.0692,-1.0692,-1.0692,-1.0692,-1.0692,-1.0444,-1.0233,-1.0278,-1.0038,-0.9774,-0.9876,-0.9896,-0.9864,-0.9782,-0.9693,-0.9579,-0.9579,-0.9579,-0.9579,-0.9579,-0.9579,-0.9579,-0.9579,-0.9401,-0.9142,-0.8917,-0.8675,-0.8383,-0.808,-0.794,-0.7852,-0.7852,-0.7635,-0.7459,-0.7323,-0.7187,-0.7095,-0.7095,-0.7095,-0.7095,-0.7095,-0.7095,-0.7095,-0.7095,-0.6957,-0.6849,-0.682,-0.6576,-0.6458,-0.6389,-0.6109,-0.5993,-2.2369,-2.1913,-2.1331,-2.0339,-1.8893,-1.7049,-1.4343,-1.2516,0.0,0.0,-0.8612,-0.8612,-0.8612,0.0,0.0,0.0,0.0,0.0,0.0,0.0,0.0,0.0,0.0,0.0,0.0,0.0,0.0,0.0,0.0,0.0,-1.2762,-1.2499,-1.2178,-1.1898,-1.1817,-1.1792,-1.1833,-1.1963,-1.189,-1.1614,-1.1537,-1.1334,-1.1017,-1.0834,-1.083,-1.1028,-1.1009,0.0,0.0,-1.1224,-1.1143,-1.1021,-1.0984,-1.0879,-1.0749,-1.0708,-1.0692,-1.0692,-1.0692,-1.0692,-1.0692,-1.0692,-1.0692,-1.0692,-1.0692,-1.0473,-1.0249,-1.0396,-1.0099,-0.9807,-1.0143,-1.0073,-0.9876,-0.9839,-0.9726,-0.9579,-0.9579,-0.9579,-0.9579,-0.9579,-0.9579,-0.9579,-0.9529,-0.9268,-0.9008,-0.8718,-0.8382,-0.8082,-0.7904,-0.7657,-0.7462,-0.7415,-0.7415,-0.7323,-0.7095,-0.7095,-0.7095,-0.7095,-0.7095,-0.7095,-0.7095,-0.7095,-0.7095,-0.7095,-0.6987,-0.6916,-0.684,-0.6544,-0.6363,-0.6289,-0.594,-0.5791,-1.9208,-1.9689,-2.0416,-1.8365,-1.692,-1.5149,-1.2145,0.0,0.0,-0.8726,-0.8612,-0.8612,-0.8612,-0.8624,0.0,0.0,0.0,0.0,0.0,0.0,0.0,0.0,0.0,0.0,0.0,0.0,0.0,0.0,0.0,0.0,-1.277,-1.2499,-1.2292,-1.2259,-1.1943,-1.1849,-1.2004,-1.202,-1.195,-1.1975,-1.1654,-1.1395,-1.1191,-1.1021,-1.0952,-1.1033,-1.1131,0.0,0.0,-1.1224,-1.1212,-1.1183,-1.1029,-1.1016,-1.0923,-1.0753,-1.0692,-1.0692,-1.0692,-1.0692,-1.0692,-1.0692,-1.0692,-1.0692,-1.0692,-1.0558,-1.0358,-1.0379,-1.0278,-1.0171,-1.0204,-1.0073,-0.9847,-0.9689,-0.9591,-0.9579,-0.9579,-0.9579,-0.9579,-0.9579,-0.9579,-0.9529,-0.9286,-0.9125,-0.8904,-0.8664,-0.8335,-0.8034,-0.7755,-0.7588,-0.7415,-0.7143,-0.7143,-0.7139,-0.7095,-0.7095,-0.7095,-0.7095,-0.7095,-0.7095,-0.7095,-0.7095,-0.7095,-0.7095,-0.7085,-0.6923,-0.6622,-0.6699,-0.6558,-0.6218,-0.5874,-0.569,-1.7408,-1.7353,-1.7025,-1.5949,-1.457,-1.3078,-1.1454,0.0,0.0,-0.8673,-0.8612,-0.8612,-0.8612,-0.8612,-0.8682,0.0,0.0,0.0,0.0,0.0,0.0,0.0,0.0,0.0,0.0,0.0,0.0,0.0,0.0,0.0,-1.2523,-1.2381,-1.2255,-1.2142,-1.1902,-1.1809,-1.1874,-1.1878,-1.1878,-1.1874,-1.1508,-1.1354,-1.1378,-1.1098,-1.1086,-1.1293,-1.1358,0.0,0.0,-1.1553,-1.1423,-1.1216,-1.1147,-1.0992,-1.0794,-1.072,-1.0692,-1.0692,-1.0692,-1.0692,-1.0692,-1.0692,-1.0692,-1.0692,-1.0692,-1.057,-1.0456,-1.0562,-1.0383,-1.0241,-1.0298,-1.0107,-0.9925,-1.0023,-0.9813,-0.9657,-0.9762,-0.9701,-0.9579,-0.9579,-0.948,-0.9335,-0.9236,-0.8946,-0.8687,-0.8401,-0.8161,-0.7887,-0.7563,-0.7455,-0.7337,-0.7105,-0.7095,-0.7095,-0.7095,-0.7095,-0.7095,-0.7095,-0.7095,-0.7095,-0.7095,-0.7095,-0.7054,-0.6925,-0.6925,-0.676,-0.6483,-0.641,-0.6281,-0.6136,-0.5752,-0.5565,-1.5561,-1.5514,-1.5136,-1.4135,-1.2869,-1.1606,0.0,0.0,0.0,-0.8637,-0.8612,-0.8612,-0.8612,-0.8612,-0.8612,0.0,0.0,0.0,0.0,0.0,0.0,0.0,0.0,0.0,0.0,0.0,0.0,0.0,0.0,0.0,-1.2312,-1.2255,-1.2162,-1.197,-1.1866,-1.1776,-1.1776,-1.1776,-1.1776,-1.1772,-1.1455,-1.1374,-1.1492,-1.124,-1.1261,-1.15,-1.1557,0.0,0.0,-1.1695,-1.1508,-1.122,-1.1167,-1.0992,-1.0765,-1.0712,-1.0692,-1.0692,-1.0692,-1.0692,-1.0692,-1.0692,-1.0692,-1.0692,-1.0692,-1.0607,-1.0538,-1.066,-1.0477,-1.0262,-1.0335,-1.0108,-0.9927,-1.0241,-0.9971,-0.9638,-0.986,-0.975,-0.9579,-0.948,-0.9335,-0.9137,-0.8985,-0.8739,-0.847,-0.8178,-0.7996,-0.7792,-0.7504,-0.7165,-0.6898,-0.671,-0.6428,-0.6514,-0.7051,-0.7095,-0.7095,-0.7095,-0.7095,-0.7095,-0.7095,-0.6782,-0.6653,-0.6795,-0.6166,-0.5985,-0.6299,-0.5902,-0.5769,-0.5994,-0.5648,-0.5489,-1.3254,-1.4303,-1.5578,-1.3382,-1.2036,-1.1045,0.0,0.0,0.0,-0.8612,-0.8612,-0.8612,-0.8612,-0.8612,-0.8612,-0.8612,-0.8612,0.0,0.0,0.0,0.0,0.0,0.0,0.0,0.0,0.0,0.0,0.0,0.0,0.0,-1.2308,-1.2134,-1.197,-1.2028,-1.1866,-1.1776,-1.1776,-1.1776,-1.1776,-1.1776,-1.1585,-1.1496,-1.15,-1.1496,-1.1496,0.0,0.0,0.0,0.0,-1.15,-1.139,-1.1204,-1.1037,-1.1024,-1.0944,-1.0761,-1.0692,-1.0692,-1.0692,-1.0692,-1.0692,-1.0692,-1.0692,-1.0692,-1.0692,-1.0688,-1.0688,-1.0692,-1.0566,-1.0391,-1.0265,-0.9951,-0.9795,-1.0112,-0.9868,-0.9579,-0.9833,-0.975,-0.9529,-0.9236,-0.9187,-0.9034,-0.8482,-0.8382,-0.8333,-0.8038,-0.7906,-0.7756,-0.7614,-0.662,-0.5844,-0.573,-0.487,-0.509,-0.6962,-0.7095,-0.7095,-0.7095,-0.7095,-0.7095,-0.7095,-0.6027,-0.5852,-0.6795,-0.473,-0.4465,-0.6083,-0.5186,-0.5055,-0.5686,-0.5564,-0.5443,-1.1578,-1.2144,-1.2551,-1.1893,-1.1013,-1.0217,-0.9876,0.0,0.0,-0.8612,-0.8612,-0.8612,-0.8612,-0.8612,-0.8612,-0.8612,-0.8612,0.0,0.0,0.0,0.0,0.0,0.0,0.0,0.0,0.0,0.0,0.0,0.0,0.0,-1.1329,-1.1203,-1.1409,-1.1962,-1.1866,-1.1715,-1.1589,-1.1523,-1.1403,-1.1228,-1.1047,-1.0911,-1.0905,-1.0957,-1.0911,0.0,0.0,0.0,0.0,-1.149,-1.139,-1.1204,-1.1033,-1.0891,-1.0773,-1.0712,-1.0692,-1.0692,-1.0692,-1.0692,-1.0692,-1.0692,-1.0692,-1.0672,-1.0554,-1.0599,-1.0692,-1.0692,-1.0399,-1.0172,-1.0239,-0.9971,-0.9801,-1.02,-0.9987,-0.9768,-0.984,-0.9591,-0.9232,-0.8981,-0.8783,-0.8584,-0.8432,-0.8237,-0.8088,-0.7988,-0.7948,-0.7631,-0.6768,-0.6324,-0.5752,-0.4842,-0.4467,-0.4554,-0.5134,-0.5179,-0.5179,-0.5179,-0.5179,-0.509,-0.491,-0.4552,-0.4376,-0.4334,-0.3664,-0.3532,-0.3894,-0.3626,-0.3582,-0.3807,-0.3735,-0.3682,0.0,-1.0586,-1.0806,-1.0737,-1.0197,0.0,0.0,0.0,0.0,-0.8612,-0.8612,-0.8612,-0.8612,-0.8612,-0.8612,-0.8612,-0.8612,0.0,0.0,0.0,0.0,0.0,0.0,0.0,0.0,0.0,0.0,0.0,0.0,0.0,-1.0804,-1.0733,-1.0929,-1.1465,-1.1425,-1.135,-1.124,-1.11,-1.095,-1.085,-1.067,-1.0531,-1.0516,-1.0523,-1.0535,0.0,0.0,0.0,0.0,-1.1109,-1.1077,-1.1013,-1.0907,-1.0794,-1.0692,-1.0692,-1.0692,-1.0684,-1.0615,-1.0585,-1.0507,-1.0375,-1.0278,-1.0208,-1.0048,-1.0194,-1.0343,-1.0244,-0.9984,-0.975,-1.0093,-0.9793,-0.9568,-1.0175,-0.991,-0.9562,-0.9619,-0.9321,-0.8981,-0.8676,-0.8531,-0.8382,-0.8283,-0.8088,-0.7839,-0.7437,-0.7388,-0.6958,-0.5734,-0.5279,-0.4742,-0.3906,-0.3481,-0.3241,-0.3261,-0.3905,-0.4289,-0.4289,-0.4198,-0.4063,-0.3929,-0.3395,-0.3127,-0.3218,-0.2416,-0.2284,-0.2911,-0.2911,-0.2911,-0.2911,-0.2911,-0.2846,0.0,0.0,0.0,0.0,0.0,0.0,0.0,0.0,0.0,0.0,0.0,-0.8612,-0.8612,-0.8612,-0.8612,-0.8612,-0.862,0.0,0.0,0.0,0.0,0.0,0.0,0.0,0.0,0.0,0.0,0.0,0.0,0.0,-1.0702,-1.0558,-1.0539,-1.0539,-1.0621,-1.0748,-1.0737,-1.0606,-1.0532,-1.0517,-1.036,-1.0228,-1.0228,-1.0228,-1.0228,0.0,0.0,0.0,0.0,-1.0521,-1.0588,-1.0653,-1.0696,-1.0637,-1.0637,-1.0637,-1.0637,-1.0617,-1.0401,-1.0333,-1.0183,-0.9855,-0.9586,-0.9369,-0.938,-0.9541,-0.9729,-0.9556,-0.9283,-0.9234,-0.9804,-0.9455,-0.9164,-1.0015,-0.9559,-0.9003,-0.9223,-0.9013,-0.8676,-0.8432,-0.8382,-0.8283,-0.7939,-0.7889,-0.7537,-0.6437,-0.6284,-0.5844,-0.4659,-0.372,-0.311,-0.2912,-0.205,-0.1515,-0.1486,-0.3086,-0.4072,-0.4067,-0.384,-0.366,-0.366,-0.2415,-0.2103,-0.2952,-0.1031,-0.0898,-0.2688,-0.2688,-0.2688,-0.2688,-0.2688,-0.2688,-0.8763,0.0,-0.8975,-0.8935,-0.8861,-0.8788,0.0,0.0,0.0,0.0,0.0,0.0,0.0,0.0,-0.8612,-0.8612,0.0,0.0,0.0,0.0,0.0,0.0,0.0,0.0,0.0,0.0,0.0,0.0,0.0,-1.0304,-0.9735,-0.9686,-0.9669,-0.9669,-0.97,-0.9898,-1.0241,-1.0149,-1.0012,-0.9828,-0.9788,-0.9656,-0.9489,-0.966,-0.9656,0.0,0.0,0.0,-1.0352,-1.0738,-1.0775,-1.0551,-1.0418,-1.0257,-1.0033,-1.0033,-1.0033,-0.9974,-0.9936,-0.9864,-0.9754,-0.9553,-0.935,-0.916,-0.9075,-0.922,-0.9496,-0.9429,-0.9312,-0.9207,-0.9333,-0.9273,-0.919,-0.9552,-0.931,-0.9017,-0.8978,-0.8754,-0.8432,-0.8137,-0.8088,-0.7836,-0.6936,-0.6786,-0.6434,-0.5327,-0.5177,-0.4794,-0.3679,-0.3329,-0.2869,-0.1959,-0.1622,-0.1428,-0.1231,-0.1579,-0.1868,-0.1838,-0.1612,-0.1388,-0.1209,-0.0896,-0.0717,-0.0763,-0.0269,-0.0225,-0.0673,-0.0673,-0.0673,-0.0673,-0.0673,-0.0673,-0.8612,-0.8612,-0.8612,-0.8612,-0.8612,-0.8612,-0.8612,0.0,0.0,0.0,0.0,0.0,0.0,0.0,0.0,0.0,0.0,0.0,0.0,0.0,0.0,0.0,0.0,0.0,0.0,0.0,0.0,0.0,0.0,-0.9863,-0.9453,-0.9313,-0.9333,-0.9333,-0.9215,-0.9375,-0.9778,-0.967,-0.9517,-0.9433,-0.9307,-0.922,-0.9055,-0.922,-0.922,0.0,0.0,0.0,-0.9904,-1.0156,-1.0229,-1.0166,-1.0126,-0.9981,-0.9816,-0.9816,-0.9816,-0.9794,-0.9645,-0.9326,-0.902,-0.8913,-0.8746,-0.8578,-0.8507,-0.8637,-0.8775,-0.8918,-0.8864,-0.8857,-0.9101,-0.9086,-0.9017,-0.934,-0.9122,-0.8799,-0.8724,-0.8449,-0.8035,-0.7388,-0.7288,-0.6936,-0.5832,-0.5679,-0.5279,-0.4225,-0.4074,-0.366,-0.2585,-0.2484,-0.2227,-0.1618,-0.1421,-0.1318,-0.1161,-0.0909,-0.0801,-0.0924,-0.0692,-0.0505,-0.041,-0.0273,-0.0136,0.0,0.0,0.0,0.0,0.0,0.0,0.0,0.0,0.0,-0.8612,-0.8612,-0.8612,-0.8612,-0.8612,-0.8612,-0.8612,0.0,0.0,0.0,0.0,0.0,0.0,0.0,0.0,0.0,0.0,0.0,0.0,0.0,0.0,0.0,0.0,0.0,0.0,0.0,0.0,0.0,0.0,-0.95,-0.9323,-0.9191,-0.9176,-0.9176,-0.9001,-0.9059,-0.931,-0.9184,-0.9176,-0.9176,-0.8998,-0.8885,-0.8885,-0.8885,-0.8885,-0.8885,0.0,0.0,-0.9379,-0.9434,-0.9599,-0.9757,-0.9731,-0.9684,-0.9647,-0.9622,-0.9629,-0.9603,-0.9281,-0.8816,-0.8389,-0.8302,-0.8147,-0.7988,-0.7988,-0.7988,-0.8046,-0.8374,-0.8377,-0.847,-0.9012,-0.8925,-0.8804,-0.923,-0.874,-0.8243,-0.8266,-0.7888,-0.7235,-0.6334,-0.6134,-0.5832,-0.4726,-0.4574,-0.4175,-0.3123,-0.2973,-0.2622,-0.1667,-0.1516,-0.1516,-0.1465,-0.1263,-0.1104,-0.1086,-0.0641,-0.0441,-0.0578,-0.043,-0.0331,-0.0324,-0.0138,0.0,0.0,0.0,0.0,0.0,0.0,0.0,0.0,0.0,0.0,-0.8612,-0.8612,-0.8612,-0.8612,-0.8612,-0.8612,-0.8612,0.0,0.0,0.0,0.0,0.0,0.0,0.0,0.0,0.0,0.0,0.0,0.0,0.0,0.0,0.0,0.0,0.0,0.0,0.0,0.0,0.0,0.0,0.0,-0.8966,-0.8984,-0.8971,-0.8971,-0.8895,-0.8905,-0.8949,-0.8984,-0.8971,-0.8971,-0.8895,-0.8885,-0.8885,-0.8885,-0.8885,-0.894,0.0,-0.9379,-0.9434,-0.9651,-0.9651,-0.9475,-0.9338,-0.9203,-0.9034,-0.89,-0.8937,-0.9003,-0.8697,-0.8477,-0.8269,-0.8109,-0.8008,-0.7988,-0.7988,-0.7988,-0.8025,-0.8252,-0.8374,-0.8542,-0.8719,-0.8763,-0.875,-0.8958,-0.7962,-0.7027,-0.7136,-0.6187,-0.5225,-0.5074,-0.5024,-0.4724,-0.3624,-0.3423,-0.3073,-0.2019,-0.1869,-0.1717,-0.1314,-0.1263,-0.1162,-0.096,-0.0909,-0.0757,-0.0553,-0.0453,-0.0301,-0.01,-0.0097,-0.0047,-0.0046,0.0,0.0,0.0,0.0,0.0,0.0,0.0,0.0,0.0,0.0,0.0,-0.8316,-0.8313,-0.8317,-0.8135,-0.8225,-0.834,-0.8256,0.0,0.0,0.0,0.0,0.0,0.0,0.0,0.0,0.0,0.0,0.0,0.0,0.0,0.0,0.0,0.0,0.0,0.0,0.0,0.0,0.0,0.0,0.0,-0.8892,-0.8885,-0.8885,-0.8885,-0.8885,-0.8885,-0.8885,-0.8801,-0.8801,-0.8885,-0.8885,-0.8885,-0.8881,-0.8797,-0.8815,-0.8815,0.0,-0.8984,-0.8911,-0.9103,-0.9089,-0.8901,-0.8828,-0.8786,-0.8808,-0.8737,-0.8655,-0.8557,-0.8418,-0.8269,-0.8133,-0.8012,-0.8096,-0.8147,-0.8015,-0.815,-0.8292,-0.8367,-0.8431,-0.8516,-0.8669,-0.8771,-0.8664,-0.805,-0.7357,-0.6651,-0.6068,-0.5326,-0.4624,-0.4024,-0.3924,-0.3574,-0.2521,-0.2321,-0.217,-0.1667,-0.1465,-0.1364,-0.1212,-0.1061,-0.096,-0.0808,-0.0657,-0.0556,-0.0404,-0.0253,-0.0152,0.0,0.0,0.0,0.0,0.0,0.0,0.0,0.0,0.0,0.0,0.0,0.0,0.0,0.0135,0.0224,-0.8033,-0.8018,-0.7931,-0.7625,0.0,-0.8204,-0.794,-0.7974,0.0,0.0,0.0,0.0,0.0,0.0,0.0,0.0,0.0,0.0,0.0,0.0,0.0,0.0,0.0,0.0,0.0,0.0,0.0,0.0,0.0,0.0,-0.8834,-0.8831,-0.8814,-0.8832,-0.8832,-0.8832,-0.8832,-0.8716,-0.8754,-0.8885,-0.8848,-0.8831,-0.8824,-0.8764,-0.8693,-0.8659,-0.8659,-0.8591,-0.8489,-0.8608,-0.8587,-0.8482,-0.8482,-0.8395,-0.8277,-0.8277,-0.796,-0.7597,-0.7853,-0.781,-0.769,-0.7939,-0.7918,-0.7842,-0.7711,-0.7632,-0.7651,-0.7716,-0.7681,-0.7821,-0.8234,-0.841,-0.8186,-0.698,-0.6414,-0.5869,-0.4906,-0.4345,-0.3823,-0.2973,-0.2822,-0.2572,-0.1717,-0.1566,-0.1516,-0.1516,-0.1263,-0.1061,-0.101,-0.0808,-0.0707,-0.0606,-0.0404,-0.0303,-0.0303,-0.0101,0.0,0.0,0.0,0.0,0.0,0.0,0.0,0.0,0.0,0.0,0.0,0.0045,0.009,0.009,0.0359,0.0448,-0.8002,-0.7724,-0.7435,-0.736,-0.7954,0.0,-0.7988,-0.815,0.0,-0.8132,0.0,0.0,0.0,0.0,0.0,0.0,0.0,0.0,0.0,0.0,0.0,0.0,0.0,0.0,0.0,0.0,0.0,0.0,0.0,0.0,-0.8743,-0.8726,-0.8662,-0.852,-0.8516,-0.8516,-0.8516,-0.8503,-0.8648,-0.8881,-0.8794,-0.8726,-0.8726,-0.8716,-0.8632,-0.8499,-0.8499,-0.8492,-0.8482,-0.8492,-0.8492,-0.8482,-0.8482,-0.7904,-0.7015,-0.7015,-0.6302,-0.5478,-0.6454,-0.6684,-0.6686,-0.769,-0.7344,-0.657,-0.6573,-0.5943,-0.5162,-0.5336,-0.5331,-0.5626,-0.6887,-0.7202,-0.6927,-0.5799,-0.4628,-0.3723,-0.3611,-0.269,-0.1818,-0.1717,-0.1718,-0.1667,-0.1617,-0.1415,-0.1212,-0.1212,-0.101,-0.0758,-0.0505,-0.0455,-0.0354,-0.0101,-0.0051,-0.0051,-0.0051,0.0,0.0,0.0,0.0,0.0,0.0,0.0,0.0,0.0,0.0,0.0,0.0,0.0269,0.0359,0.0359,0.0583,0.0673,-0.7484,-0.7409,-0.7256,-0.7003,-0.7572,0.0,0.0,-0.7865,-0.8131,-0.7604,-0.7941,0.0,0.0,0.0,0.0,0.0,0.0,0.0,0.0,0.0,0.0,0.0,0.0,0.0,0.0,0.0,0.0,0.0,0.0,0.0,0.0,-0.8567,-0.854,-0.8482,-0.8482,-0.8482,-0.8482,-0.8394,-0.8455,-0.8655,-0.8598,-0.8567,-0.8564,-0.8476,-0.8408,-0.8402,-0.8402,-0.8296,-0.8214,-0.8309,-0.793,-0.7139,-0.6597,-0.6063,-0.56,-0.5719,-0.5831,-0.5893,-0.5585,-0.5914,-0.6334,-0.6079,-0.5819,-0.5563,-0.5538,-0.5343,-0.5212,-0.512,-0.5217,-0.5376,-0.591,-0.6031,-0.5724,-0.4521,-0.3843,-0.3267,-0.2491,-0.1956,-0.1639,-0.1621,-0.1465,-0.1364,-0.1364,-0.1111,-0.096,-0.096,-0.0707,-0.0505,-0.0404,-0.0253,-0.0101,0.0,0.0,0.0,0.0,0.0,0.0,0.0,0.0,0.0,0.0,0.0,0.0094,0.0236,0.0228,0.0314,0.0449,0.0538,0.0583,0.0583,0.0852,0.0942,-0.7016,-0.7033,-0.6975,-0.6757,0.0,0.0,-0.7279,-0.7677,-0.796,-0.7407,-0.7811,0.0,0.0,0.0,0.0,0.0,0.0,0.0,0.0,0.0,0.0,0.0,0.0,0.0,0.0,0.0,0.0,0.0,0.0,0.0,0.0,-0.8414,-0.8394,-0.8343,-0.8343,-0.8343,-0.8343,-0.8245,-0.8248,-0.8343,-0.8343,-0.8367,-0.8411,-0.8368,-0.8245,-0.8197,-0.7839,-0.7629,-0.7494,-0.7285,-0.6735,-0.5939,-0.5264,-0.4949,-0.4871,-0.4602,-0.4881,-0.5281,-0.4526,-0.4776,-0.5331,-0.4926,-0.4655,-0.4486,-0.4403,-0.4314,-0.4231,-0.4097,-0.4179,-0.427,-0.427,-0.4545,-0.4466,-0.3237,-0.2953,-0.2713,-0.1798,-0.1589,-0.1539,-0.1469,-0.1263,-0.1061,-0.1061,-0.0859,-0.0657,-0.0657,-0.0455,-0.0253,-0.0253,-0.0101,0.0,0.0,0.0,0.0,0.0,0.0,0.0051,0.0101,0.0152,0.0101,0.0,0.0098,0.0192,0.0381,0.0461,0.0587,0.0718,0.0807,0.0807,0.0852,0.1076,0.1211,-0.6802,-0.6638,-0.6552,0.0,0.0,0.0,-0.7392,-0.7674,-0.787,-0.7832,0.0,-0.7985,0.0,0.0,0.0,0.0,0.0,0.0,0.0,0.0,0.0,0.0,0.0,0.0,0.0,0.0,0.0,0.0,0.0,0.0,0.0,-0.832,-0.8197,-0.7995,-0.7988,-0.7988,-0.7988,-0.7988,-0.7988,-0.7988,-0.7988,-0.8119,-0.832,-0.8269,-0.8184,-0.7939,-0.6836,-0.6387,-0.6287,-0.5227,-0.4877,-0.5054,-0.4859,-0.4879,-0.4899,-0.3649,-0.3173,-0.3224,-0.3173,-0.3173,-0.3374,-0.4425,-0.4074,-0.3185,-0.3244,-0.2519,-0.171,-0.1795,-0.1804,-0.1804,-0.1804,-0.262,-0.3217,-0.2075,-0.1758,-0.1714,-0.1714,-0.1433,-0.1213,-0.1212,-0.096,-0.0808,-0.0808,-0.0556,-0.0404,-0.0404,-0.0152,0.0,0.0,0.0,0.0,0.0,0.0,0.0,0.0,0.0051,0.0152,0.0404,0.0455,0.0303,0.0,0.0248,0.0389,0.0429,0.0701,0.0778,0.0718,0.0987,0.1121,0.1121,0.1345,0.1436,-0.6762,-0.6718,0.0,0.0,0.0,0.0,0.0,-0.7757,0.0,0.0,0.0,0.0,0.0,0.0,0.0,0.0,0.0,0.0,0.0,0.0,0.0,0.0,0.0,0.0,0.0,0.0,0.0,0.0,0.0,0.0,0.0,-0.8109,-0.8039,-0.7992,-0.7988,-0.7988,-0.7988,-0.7988,-0.764,-0.6886,-0.6886,-0.731,-0.8059,-0.7299,-0.6924,-0.6836,-0.5729,-0.5277,-0.5177,-0.4124,-0.3687,-0.3704,-0.288,-0.258,-0.2592,-0.2225,-0.2572,-0.3073,-0.2321,-0.2572,-0.3123,-0.2671,-0.2341,-0.2164,-0.2175,-0.1943,-0.1706,-0.1715,-0.1718,-0.1664,-0.1503,-0.1702,-0.1897,-0.174,-0.1584,-0.1418,-0.1383,-0.1178,-0.0975,-0.0912,-0.0707,-0.0505,-0.0505,-0.0303,-0.0101,-0.0101,-0.0051,0.0,0.0,0.0,0.0,0.0,0.0656,0.111,0.111,0.2015,0.2566,0.2668,0.2816,0.2214,0.0606,0.0645,0.107,0.1858,0.1961,0.2422,0.3218,0.3307,0.3353,0.3353,0.3398,0.3443,-0.6638,0.0,0.0,0.0,0.0,0.0,0.0,0.0,0.0,0.0,0.0,0.0,0.0,0.0,0.0,0.0,0.0,0.0,0.0,0.0,0.0,0.0,0.0,0.0,0.0,0.0,0.0,0.0,0.0,0.0,0.0,-0.7988,-0.7988,-0.7988,-0.7988,-0.7789,-0.7388,-0.7235,-0.6734,-0.5779,-0.5527,-0.5877,-0.6731,-0.6079,-0.5779,-0.5729,-0.4626,-0.3924,-0.3475,-0.2822,-0.2572,-0.2521,-0.1869,-0.1869,-0.217,-0.1768,-0.227,-0.3022,-0.1969,-0.2019,-0.2471,-0.1818,-0.1629,-0.1644,-0.1644,-0.1613,-0.1529,-0.1529,-0.1476,-0.1371,-0.116,-0.1145,-0.1132,-0.1348,-0.125,-0.1089,-0.1066,-0.0866,-0.0666,-0.0658,-0.0404,-0.0253,-0.0253,-0.0101,0.0,0.0,0.0,0.0151,0.0606,0.0656,0.0858,0.1361,0.2015,0.2416,0.2566,0.3318,0.3819,0.392,0.4067,0.3607,0.2343,0.2219,0.2475,0.314,0.3216,0.356,0.4289,0.4289,0.4289,0.4289,0.4289,0.4289,-0.6528,0.0,0.0,0.0,0.0,0.0,0.0,0.0,0.0,0.0,0.0,0.0,0.0,0.0,0.0,0.0,0.0,0.0,0.0,0.0,0.0,0.0,0.0,0.0,0.0,0.0,0.0,0.0,0.0,0.0,0.0,-0.7898,-0.7905,-0.7918,-0.7918,-0.7475,-0.6487,-0.6132,-0.5577,-0.4874,-0.4168,-0.4119,-0.4574,-0.4624,-0.4574,-0.4474,-0.3473,-0.2521,-0.1617,-0.1617,-0.1617,-0.1617,-0.1617,-0.2221,-0.2923,-0.1969,-0.222,-0.2923,-0.1919,-0.1617,-0.1617,-0.1566,-0.1566,-0.1566,-0.1516,-0.138,-0.1243,-0.1243,-0.1088,-0.088,-0.088,-0.0818,-0.0761,-0.0826,-0.0767,-0.0758,-0.0758,-0.0556,-0.0354,-0.0354,-0.0152,0.0,0.0,0.0,0.0051,0.0151,0.0151,0.0555,0.1663,0.1764,0.2266,0.3519,0.372,0.387,0.4117,0.4268,0.4418,0.467,0.472,0.4783,0.4895,0.4452,0.4261,0.436,0.4419,0.447,0.4554,0.4554,0.4554,0.4554,0.4554,0.4554,0.0,-0.6787,0.0,0.0,0.0,0.0,0.0,0.0,0.0,0.0,0.0,0.0,0.0,0.0,0.0,0.0,0.0,0.0,0.0,0.0,0.0,0.0,0.0,0.0,0.0,0.0,0.0,0.0,0.0,0.0,-0.7168,-0.712,-0.7167,-0.7271,-0.7274,-0.7226,-0.7036,-0.6126,-0.5577,0.0,-0.3621,-0.2819,-0.2923,-0.3122,-0.287,-0.227,-0.2019,-0.1818,-0.1617,-0.1617,-0.1617,-0.1617,-0.1617,-0.1717,-0.1919,-0.1667,-0.1768,-0.1919,-0.1667,-0.1617,-0.1566,-0.1364,-0.1263,-0.1263,-0.1061,-0.0963,-0.0915,-0.0915,-0.0864,-0.0762,-0.0559,-0.0507,-0.0455,-0.0254,-0.0355,-0.0505,-0.0505,-0.0253,-0.0101,-0.0101,-0.0051,0.0,0.0,0.0,0.0303,0.111,0.1261,0.1713,0.3019,0.3169,0.3369,0.3867,0.467,0.5172,0.527,0.6229,0.6836,0.6886,0.7132,0.7171,0.7133,0.5426,0.4812,0.5432,0.5453,0.5793,0.6514,0.6514,0.6514,0.6514,0.6514,0.6605,0.0,0.0,0.0,0.0,0.0,0.0,0.0,0.0,0.0,0.0,0.0,0.0,0.0,0.0,0.0,0.0,0.0,0.0,0.0,0.0,0.0,0.0,0.0,0.0,0.0,0.0,0.0,0.0,0.0,-0.7029,-0.6891,-0.6891,-0.6922,-0.699,-0.6993,-0.6537,-0.5574,-0.4884,-0.4116,-0.3279,-0.2056,-0.1563,-0.1817,-0.1967,-0.1867,-0.1617,-0.1617,-0.1617,-0.1617,-0.1617,-0.1617,-0.1617,-0.1617,-0.1617,-0.1617,-0.1617,-0.1617,-0.1566,-0.1465,-0.1415,-0.1364,-0.1111,-0.101,-0.096,-0.0859,-0.0707,-0.0606,-0.0606,-0.0505,-0.0404,-0.0253,-0.0202,-0.0152,-0.0051,-0.0101,-0.0202,-0.0202,-0.0101,0.0,0.0,0.0,0.0,0.0,0.0404,0.116,0.2366,0.2567,0.3019,0.4372,0.4572,0.4872,0.5625,0.6229,0.6631,0.6731,0.7388,0.7793,0.7793,0.7875,0.7865,0.7716,0.659,0.612,0.6545,0.6479,0.6636,0.7095,0.7095,0.7187,0.7279,0.7279,0.7455,0.0,0.0,0.0,0.0,0.0,0.0,0.0,0.0,0.0,0.0,0.0,0.0,0.0,0.0,0.0,0.0,0.0,0.0,0.0,0.0,0.0,0.0,0.0,0.0,0.0,0.0,0.0,0.0,0.0,-0.6727,-0.6683,-0.668,-0.6643,-0.6476,-0.6476,-0.5583,-0.3703,-0.328,-0.2434,-0.1221,-0.0794,-0.0751,-0.1056,-0.1056,-0.1259,-0.1617,-0.1617,-0.1617,-0.1617,-0.1617,-0.1617,-0.1617,-0.1566,-0.1516,-0.1516,-0.1465,-0.1465,-0.1415,-0.1212,-0.1111,-0.1111,-0.0808,-0.0707,-0.0707,-0.0657,-0.0505,-0.0354,-0.0354,-0.0152,0.0,0.0,0.0,0.0,0.0,0.0,0.0,0.0,0.0,0.0,0.0,0.0151,0.0353,0.0605,0.1361,0.2417,0.372,0.392,0.4422,0.5777,0.5927,0.6381,0.7543,0.7646,0.7743,0.7988,0.7988,0.7978,0.7951,0.7882,0.7736,0.7567,0.7484,0.7451,0.7427,0.7252,0.7187,0.7228,0.7228,0.7363,0.7547,0.7547,0.7724,0.0,0.0,0.0,0.0,0.0,0.0,0.0,0.0,0.0,0.0,0.0,0.0,0.0,0.0,0.0,0.0,0.0,0.0,0.0,0.0,0.0,0.0,0.0,0.0,0.0,0.0,0.0,0.0,-0.6289,-0.609,-0.5871,-0.5871,-0.5551,-0.4857,-0.4813,-0.4342,-0.328,-0.2336,-0.2196,-0.2864,-0.1916,-0.1114,-0.0493,-0.0493,-0.0895,-0.1617,-0.1617,-0.1617,-0.1617,-0.1617,-0.1617,-0.1566,-0.1364,-0.1263,-0.1212,-0.101,-0.0909,-0.0909,-0.0859,-0.0859,-0.0808,-0.0556,-0.0455,-0.0404,-0.0202,-0.0101,-0.0051,-0.0051,-0.0051,0.0,0.0,0.0,0.0,0.0,0.0,0.0,0.0,0.0,0.0,0.0,0.0757,0.1764,0.2918,0.3219,0.377,0.5122,0.5322,0.5827,0.7138,0.7341,0.7494,0.7892,0.7939,0.7942,0.7988,0.7988,0.7934,0.7848,0.7821,0.7689,0.746,0.7563,0.7625,0.7494,0.7473,0.7547,0.7808,0.7808,0.7808,0.7856,0.7856,0.794,-0.6556,0.0,0.0,0.0,0.0,0.0,0.0,0.0,0.0,0.0,0.0,0.0,0.0,0.0,0.0,0.0,0.0,0.0,0.0,0.0,0.0,0.0,0.0,0.0,0.0,0.0,0.0,0.0,-0.5444,-0.5057,-0.4926,-0.4433,-0.3957,-0.3628,-0.3584,-0.3144,-0.2209,-0.1721,-0.1553,-0.1618,-0.1143,-0.0814,-0.0628,-0.0628,-0.0835,-0.1162,-0.1162,-0.1162,-0.1162,-0.1162,-0.1162,-0.1162,-0.101,-0.096,-0.096,-0.0859,-0.0808,-0.0758,-0.0606,-0.0556,-0.0556,-0.0253,-0.0152,-0.0152,-0.0051,0.0,0.0,0.0,0.0,0.0,0.0,0.0,0.0,0.0,0.0454,0.0908,0.0908,0.0908,0.1109,0.1864,0.2416,0.3169,0.4472,0.4722,0.5175,0.6534,0.6734,0.6986,0.7743,0.7842,0.7892,0.7988,0.7914,0.7897,0.7982,0.784,0.7849,0.8011,0.7844,0.7734,0.7791,0.7784,0.7838,0.79,0.7768,0.7768,0.79,0.79,0.794,0.8069,0.8069,0.8204,0.0,0.0,0.0,0.0,0.0,0.0,0.0,0.0,0.0,0.0,0.0,0.0,0.0,0.0,0.0,0.0,0.0,0.0,0.0,0.0,0.0,0.0,0.0,0.0,0.0,0.0,0.0,0.0,-0.4344,-0.3941,-0.3941,-0.3269,-0.2778,-0.2509,-0.251,-0.2062,-0.1032,-0.1047,-0.0786,-0.0282,-0.0282,-0.0424,-0.0615,-0.0615,-0.0579,-0.0597,-0.0747,-0.0799,-0.0802,-0.0802,-0.0805,-0.0808,-0.0707,-0.0707,-0.0707,-0.0606,-0.0606,-0.0556,-0.0354,-0.0303,-0.0253,-0.0051,0.0,0.0,0.0,0.0,0.0,0.0,0.0,0.0,0.0,0.0,0.0051,0.0353,0.1059,0.1764,0.1965,0.2066,0.2467,0.3772,0.4071,0.4522,0.5877,0.6126,0.6481,0.754,0.7693,0.7793,0.7992,0.7958,0.7931,0.7931,0.7845,0.7804,0.7965,0.777,0.782,0.8134,0.7959,0.7898,0.8042,0.8008,0.8028,0.8201,0.8116,0.8076,0.8076,0.8076,0.8164,0.8292,0.8292,0.8428,0.0,0.0,0.0,0.0,0.0,0.0,0.0,0.0,0.0,0.0,0.0,0.0,0.0,0.0,0.0,0.0,0.0,0.0,0.0,0.0,0.0,0.0,0.0,0.0,0.0,0.0,0.0,0.0,-0.3001,-0.2956,-0.2956,-0.2913,-0.2465,-0.1524,-0.148,-0.1032,-0.009,-0.009,-0.0045,0.0,0.0,-0.0046,-0.0046,-0.0046,-0.0047,-0.0048,-0.0574,-0.0822,-0.0787,-0.0787,-0.0795,-0.0758,-0.0505,-0.0404,-0.0404,-0.0152,-0.0051,-0.0051,-0.0051,0.0,0.0,0.0,0.0,0.0,0.0,0.0,0.0,0.0,0.0,0.0,0.0,0.0,0.0252,0.1261,0.1763,0.2164,0.2972,0.3321,0.3822,0.4926,0.5325,0.5927,0.7241,0.7497,0.7593,0.7942,0.7992,0.7988,0.7988,0.7913,0.7824,0.7824,0.7695,0.7708,0.7897,0.7882,0.7955,0.8093,0.8068,0.8035,0.7919,0.8076,0.8201,0.8201,0.8428,0.8568,0.8568,0.8568,0.8564,0.8568,0.8568,0.8568,0.0,0.0,0.0,0.0,0.0,0.0,0.0,0.0,0.0,0.0,0.0,0.0,0.0,0.0,0.0,0.0,0.0,0.0,0.0,0.0,0.0,0.0,0.0,0.0,0.0,0.0,0.0,0.0,0.0,-0.1928,-0.1928,-0.1345,-0.0853,-0.0494,-0.0494,-0.0359,0.0,0.0,0.0,0.0,0.0,0.0,0.0,0.0,0.0,0.0,-0.0184,-0.0283,-0.0295,-0.0295,-0.0298,-0.0253,-0.0202,-0.0152,-0.0152,-0.0051,0.0,0.0,0.0,0.0,0.0,0.0,0.0,0.0,0.0,0.0,0.0,0.0,0.0505,0.1009,0.1009,0.1662,0.2616,0.387,0.4219,0.4572,0.5579,0.5327,0.5275,0.6484,0.6836,0.7086,0.7743,0.7842,0.7892,0.7988,0.7907,0.7892,0.7892,0.7767,0.7675,0.7675,0.7679,0.772,0.7865,0.7922,0.8049,0.8475,0.8283,0.8273,0.8458,0.8444,0.8732,0.9292,0.9384,0.917,0.8612,0.8612,0.8612,0.8612,0.8612,0.8915,-0.5263,0.0,0.0,0.0,0.0,0.0,0.0,0.0,0.0,0.0,0.0,0.0,0.0,0.0,0.0,0.0,0.0,0.0,0.0,0.0,0.0,0.0,0.0,0.0,0.0,0.0,0.0,0.0,0.0,0.0,-0.0942,-0.0359,0.0,0.0,0.0,0.0,0.0,0.0,0.0,0.0,0.0,0.0,0.0,0.0,0.0,0.0,0.0,0.0,0.0,0.0,0.0,0.0,0.0,0.0,0.0,0.0,0.0,0.0,0.0,0.0,0.0,0.0,0.0,0.0,0.0,0.0303,0.0656,0.0656,0.1511,0.2416,0.2416,0.3318,0.4522,0.5525,0.6027,0.6481,0.7285,0.6833,0.6531,0.7444,0.7696,0.7793,0.7992,0.7988,0.7971,0.7921,0.7875,0.7794,0.7746,0.7614,0.7569,0.7612,0.7612,0.774,0.7982,0.8072,0.8297,0.8702,0.8915,0.9065,0.9264,0.9553,0.989,1.0376,1.0376,1.0115,0.9641,0.9559,0.9519,0.9519,0.9602,0.9985,0.0,0.0,0.0,0.0,0.0,0.0,0.0,0.0,0.0,0.0,0.0,0.0,0.0,0.0,0.0,0.0,0.0,0.0,0.0,0.0,0.0,0.0,0.0,0.0,0.0,0.0,0.0,0.0,0.0,0.0,0.0,0.0,0.0,0.0,0.0,0.0,0.0,0.0,0.0,0.0,0.0,0.0,0.0,0.0,0.0,0.0,0.0,0.0,0.0,0.0,0.0,0.0,0.0,0.0,0.0,0.0,0.0,0.0,0.0,0.0,0.0,0.0,0.0051,0.005,0.005,0.1008,0.2063,0.2063,0.3015,0.4066,0.4116,0.487,0.5724,0.5977,0.6836,0.7696,0.7939,0.7793,0.7596,0.7596,0.7842,0.7988,0.7985,0.7982,0.7931,0.7828,0.7801,0.7746,0.7611,0.7458,0.75,0.7675,0.7592,0.7724,0.8201,0.8454,0.8647,0.8869,0.998,1.0497,1.0258,1.1227,1.1646,1.137,1.1365,1.1488,1.1778,1.1445,1.1322,1.1322,1.1612,1.1858,-0.3368,0.0,0.0,0.0,0.0,0.0,0.0,0.0,0.0,0.0,0.0,0.0,0.0,0.0,0.0,0.0,0.0,0.0,0.0,0.0,0.0,0.0,0.0,0.0,0.0,0.0,0.0,0.0,0.0,0.0,0.0,0.0,0.0,0.0,0.0,0.0,0.0,0.0,0.0,0.0,0.0,0.0,0.0,0.0,0.0,0.0,0.0,0.0,0.0,0.0,0.0,0.0,0.0,0.0,0.0,0.0,0.0,0.0,0.0,0.0,0.0051,0.0202,0.0807,0.1461,0.1662,0.2515,0.3466,0.3466,0.4268,0.5372,0.6331,0.6836,0.7138,0.7388,0.769,0.7892,0.7988,0.7939,0.7892,0.7892,0.7939,0.7955,0.7892,0.7875,0.7824,0.7682,0.7563,0.7478,0.7441,0.7486,0.7478,0.7567,0.7834,0.8328,0.9148,0.9602,1.0224,1.1045,1.1332,1.1502,1.1505,1.1469,1.1695,1.2314,1.2473,1.2893,1.3662,1.2248,1.1649,1.1821,1.2595,1.2589,0.0,0.0,0.0,0.0,0.0,0.0,-0.2426,-0.2748,0.0,0.0,0.0,0.0,0.0,0.0,0.0,0.0,0.0,0.0,0.0,0.0,0.0,0.0,0.0,0.0,0.0,0.0,0.0,0.0,0.0,0.0,0.0,0.0,0.0,0.0,0.0,0.0,0.0,0.0,0.0,0.0,0.0,0.0,0.0,0.0,0.0,0.0,0.0,0.0,0.0,0.0,0.0,0.0,0.0,0.0,0.0,0.0,0.0,0.0,0.0,0.0353,0.0857,0.1009,0.1863,0.2865,0.3016,0.3919,0.482,0.482,0.5672,0.6781,0.754,0.7743,0.7793,0.7942,0.7988,0.7988,0.7988,0.7988,0.7988,0.7988,0.7938,0.7916,0.7828,0.7763,0.7675,0.7526,0.7519,0.7482,0.7469,0.7908,0.8241,0.8372,0.8978,0.9623,1.0279,1.0656,1.1149,1.177,1.2243,1.2462,1.2412,1.2674,1.2985,1.3385,1.3626,1.4048,1.4699,1.3535,1.3063,1.3317,1.3837,1.388,0.0,0.0,0.0,0.0,0.0,0.0,-0.1535,-0.1795,-0.1967,0.0,0.0,0.0,0.0,0.0,0.0,0.0,0.0,0.0,0.0,0.0,0.0,0.0,0.0,0.0,0.0,0.0,0.0,0.0,0.0,0.0045,0.009,0.0045,0.0,0.0045,0.0045,0.0045,0.0,0.0045,0.0045,0.0,0.0,0.0,0.0,0.0,0.0,0.0045,0.0045,0.0045,0.009,0.009,0.0045,0.0,0.0,0.0,0.0048,0.0146,0.0198,0.0251,0.0402,0.1206,0.2208,0.2263,0.3165,0.4218,0.4268,0.5172,0.6229,0.6229,0.7083,0.7988,0.7988,0.7988,0.7988,0.7988,0.7988,0.7988,0.7988,0.7975,0.7965,0.7965,0.7906,0.7801,0.7767,0.7658,0.7569,0.7415,0.7657,0.7833,0.7698,0.8671,0.9492,0.971,1.0529,1.1139,1.1408,1.1663,1.1799,1.1932,1.2944,1.3422,1.3229,1.4265,1.4692,1.444,1.465,1.4866,1.5131,1.4908,1.4915,1.5131,1.5131,1.5215,0.0,0.0,0.0,0.0,0.0,0.0,-0.0364,-0.0399,-0.0434,0.0,0.0,0.0,0.0,0.0,0.0,0.0,0.0,0.0,0.0,0.0,0.0,0.0,0.0,0.0,0.0,0.0,0.0,0.0,0.0,0.018,0.0538,0.0225,0.009,0.0314,0.0314,0.0224,0.0,0.0224,0.0224,0.0,0.0,0.0,0.0,0.0,0.0135,0.0314,0.0314,0.0404,0.0583,0.0583,0.0359,0.0,0.0,0.0139,0.042,0.1189,0.1536,0.1833,0.2741,0.3245,0.3498,0.3851,0.467,0.5627,0.5879,0.6734,0.7587,0.7587,0.7789,0.7988,0.7988,0.7988,0.7988,0.7988,0.7988,0.7988,0.7988,0.7894,0.7855,0.7855,0.7831,0.7736,0.7499,0.7569,0.7636,0.7485,0.8288,0.8884,0.8894,0.9923,1.0654,1.0702,1.1052,1.158,1.2357,1.2679,1.3141,1.3892,1.4169,1.4357,1.4522,1.4496,1.4544,1.465,1.4908,1.5131,1.5347,1.5298,1.5298,1.5347,1.5347,1.5347,0.0,0.0,0.0,-0.0168,0.0,0.0,0.0,0.0,0.0,0.0,0.0,0.0,0.0,0.0,0.0,0.0,0.0,0.0,0.0,0.0,0.0,0.0,0.0,0.0,0.0,0.0215,0.035,0.0353,0.0357,0.0449,0.0673,0.0494,0.0404,0.0538,0.0538,0.0493,0.0359,0.0493,0.0493,0.0359,0.0359,0.0359,0.0359,0.0359,0.0404,0.0538,0.0538,0.0628,0.0718,0.121,0.1255,0.1032,0.1043,0.1145,0.1387,0.2333,0.278,0.295,0.3505,0.414,0.4724,0.4913,0.5845,0.6935,0.7036,0.7532,0.7988,0.7988,0.7988,0.7988,0.7988,0.7988,0.7971,0.7894,0.7934,0.7948,0.7851,0.7818,0.7907,0.8359,0.8466,0.8413,0.825,0.8372,0.8597,0.899,0.9666,1.0096,1.0096,1.1139,1.1832,1.1832,1.2351,1.2875,1.3349,1.3519,1.3817,1.4259,1.4381,1.4509,1.4638,1.4698,1.4824,1.5041,1.5173,1.5298,1.5389,1.5389,1.5389,1.5389,1.5389,1.5389,0.0,0.0,0.0,0.0,0.0,0.0,0.0,0.0,0.0,0.0,0.0,0.0,0.0,0.0,0.0,0.0,0.0,0.0,0.0,0.0,0.0,0.0,0.0,0.0,0.0,0.0467,0.0695,0.0757,0.0713,0.0759,0.0852,0.0762,0.0718,0.0762,0.0762,0.0762,0.0718,0.0762,0.0762,0.0718,0.0718,0.0718,0.0718,0.0718,0.0807,0.1031,0.1031,0.1165,0.1433,0.2192,0.2505,0.2505,0.2416,0.2396,0.2568,0.3572,0.3977,0.4036,0.4238,0.5045,0.5943,0.5965,0.6804,0.777,0.777,0.7875,0.7944,0.7944,0.7944,0.7951,0.7982,0.7948,0.788,0.7834,0.7906,0.8021,0.7935,0.8062,0.8437,0.9265,0.9437,0.9455,0.941,0.9464,0.9792,1.0567,1.1047,1.1348,1.1348,1.2308,1.296,1.296,1.3652,1.4088,1.4088,1.413,1.4166,1.4166,1.4363,1.4482,1.4524,1.4957,1.5215,1.5389,1.5389,1.5389,1.5389,1.5389,1.5389,1.5389,1.5423,1.5541,0.0,0.0,0.0,0.0,0.0,0.0,0.0,0.0,0.0,0.0,0.0,0.0,0.0,0.0,0.0,0.0,0.0,0.0,0.0,0.0,0.0,0.0,0.0,0.0,0.0,0.0566,0.071,0.0958,0.0786,0.088,0.1299,0.0942,0.0807,0.1031,0.1076,0.0942,0.0718,0.0942,0.0942,0.0718,0.0718,0.0718,0.0718,0.0718,0.13,0.2284,0.2284,0.2907,0.3887,0.4022,0.4065,0.402,0.3571,0.3532,0.3808,0.4839,0.5297,0.5594,0.6612,0.707,0.723,0.7316,0.7466,0.7624,0.7624,0.7723,0.7838,0.7838,0.7838,0.7868,0.7955,0.7845,0.7678,0.7784,0.7976,0.8327,0.8976,0.9317,0.9729,1.0457,1.0695,1.0689,1.0472,1.0626,1.0832,1.0961,1.1826,1.2528,1.2528,1.3349,1.3955,1.3955,1.4046,1.4088,1.4088,1.4237,1.4356,1.4356,1.4566,1.4783,1.5006,1.5257,1.5389,1.5389,1.5389,1.5389,1.5389,1.5389,1.5389,1.5389,1.5582,1.609,0.0,0.0,0.0,0.0,0.0,0.0,0.0,0.0,0.0,0.0,0.0,0.0,0.0,0.0,0.0,0.0,0.0,0.0,0.0,0.0,0.0,0.0,0.0,0.0,0.0,0.0,0.0,0.0,0.1123,0.1178,0.1408,0.1203,0.1166,0.1256,0.1256,0.1211,0.1121,0.1211,0.1524,0.1972,0.1972,0.2283,0.2772,0.2772,0.3084,0.3532,0.3532,0.3844,0.4334,0.487,0.5092,0.5137,0.5489,0.5354,0.5045,0.6027,0.6428,0.6571,0.708,0.7238,0.7261,0.7417,0.7468,0.7485,0.7573,0.7641,0.7689,0.7689,0.778,0.7889,0.7907,0.839,0.8835,0.8811,0.9342,0.9892,1.0029,1.0187,1.0616,1.1494,1.1716,1.1949,1.2516,1.226,1.218,1.2735,1.3215,1.3525,1.3525,1.387,1.4088,1.4088,1.4088,1.4166,1.4237,1.4356,1.444,1.4566,1.4783,1.5041,1.5257,1.5347,1.5389,1.5389,1.5389,1.5707,1.6337,1.6337,1.6657,1.7253,1.669,1.696,0.0,0.0,0.0,0.0,0.0,0.0,0.0,0.0,0.0,0.0,0.0,0.0,0.0,0.0,0.0,0.0,0.0,0.0,0.0,0.0,0.0,0.0,0.0,0.0,0.0,0.0,0.0,0.1665,0.1901,0.1885,0.1433,0.1631,0.1738,0.1793,0.1793,0.1927,0.2194,0.2194,0.2552,0.3267,0.3267,0.3623,0.4289,0.4289,0.4423,0.469,0.469,0.4823,0.5134,0.5805,0.6074,0.6163,0.683,0.6697,0.6163,0.683,0.7095,0.7095,0.7095,0.7095,0.7112,0.7272,0.7309,0.7329,0.7441,0.7549,0.7629,0.7629,0.7948,0.8327,0.8372,0.9183,0.9944,0.9863,1.0529,1.1121,1.1083,1.1226,1.1679,1.2601,1.2808,1.3075,1.3955,1.3525,1.3307,1.4004,1.4088,1.4088,1.4088,1.4088,1.413,1.4166,1.4166,1.4243,1.4482,1.4566,1.4699,1.4866,1.5082,1.5257,1.5389,1.5631,1.5748,1.5748,1.5989,1.6501,1.7366,1.7366,1.7923,1.9,1.8003,1.8083,0.0,0.0,0.0,0.0,0.0,0.0,0.0,0.0,0.0,0.0,0.0,0.0,0.0,0.0,0.0,0.0,0.0,0.0,0.0,0.0,0.0,0.0,0.0,0.0,0.0,0.0,0.0,0.2633,0.3287,0.3023,0.1473,0.2128,0.263,0.2865,0.2867,0.3267,0.4198,0.42,0.4245,0.4245,0.4245,0.4287,0.4289,0.4289,0.4779,0.5675,0.5675,0.6163,0.7007,0.7051,0.7051,0.7051,0.7095,0.7095,0.7051,0.7095,0.7095,0.7095,0.7095,0.7095,0.7095,0.7102,0.7102,0.7105,0.7109,0.7393,0.7689,0.7689,0.8548,0.9492,0.962,1.0105,1.0599,1.0721,1.0999,1.1381,1.2086,1.2626,1.3143,1.3881,1.4039,1.4039,1.4088,1.4088,1.4088,1.4088,1.4088,1.4088,1.4088,1.4088,1.4166,1.4356,1.4398,1.4482,1.465,1.4915,1.5173,1.5347,1.5389,1.5389,1.5389,1.6221,1.6657,1.6657,1.7472,1.8029,1.8261,1.8261,1.889,2.0119,1.9256,1.9295,0.0,0.0,0.0,0.0,0.0,0.0,0.0,0.0,0.0,0.0,0.0,0.0,0.0,0.0,0.0,0.0,0.0,0.0,0.0,0.0,0.0,0.0,0.0,0.0,0.0,0.0,0.0,0.3401,0.3654,0.3613,0.3134,0.344,0.3676,0.3842,0.3846,0.3978,0.4289,0.4289,0.4601,0.5225,0.5225,0.5539,0.6157,0.6157,0.6337,0.6609,0.6609,0.683,0.7095,0.7095,0.7095,0.7095,0.7095,0.7095,0.7095,0.7095,0.7095,0.7095,0.7095,0.7231,0.737,0.737,0.7499,0.7632,0.7632,0.8147,0.8714,0.8714,0.9548,1.0484,1.0553,1.1255,1.1983,1.2068,1.2616,1.3194,1.3447,1.3632,1.3805,1.4059,1.4088,1.4088,1.4088,1.4201,1.4243,1.413,1.4201,1.4279,1.4279,1.4405,1.4531,1.4608,1.4608,1.4699,1.4957,1.5173,1.5582,1.6221,1.6263,1.6509,1.7115,1.7545,1.7779,1.7779,1.8172,1.8771,1.9562,1.9562,2.0119,2.1242,2.0962,2.0962,0.0,0.0,0.0,0.0135,0.0135,0.0,0.0224,0.0,0.0,0.0,0.0,0.0,0.0,0.0,0.0,0.0,0.0,0.0,0.0,0.5121,0.0,0.0,0.0,0.0,0.0,0.0,0.4574,0.4261,0.452,0.4487,0.0,0.0,0.4505,0.4722,0.4726,0.4919,0.5312,0.5312,0.5581,0.6207,0.6207,0.6517,0.7095,0.7095,0.7095,0.7095,0.7095,0.7095,0.7095,0.7095,0.7095,0.7095,0.7095,0.7095,0.7095,0.7095,0.7143,0.7279,0.7363,0.7499,0.7635,0.7635,0.7984,0.8372,0.8372,0.9061,0.9836,0.9836,1.0702,1.1612,1.1612,1.2394,1.3179,1.3179,1.3659,1.4088,1.4088,1.4088,1.4088,1.4088,1.4166,1.4201,1.4201,1.4363,1.444,1.4243,1.4363,1.4524,1.4524,1.4608,1.4734,1.4824,1.4824,1.5075,1.5609,1.6064,1.655,1.7147,1.7147,1.7464,1.8069,1.855,1.8851,1.9106,1.9408,1.996,2.0918,2.0722,2.1039,2.1807,2.1807,2.1807]}]]